     2.11           OBSERVATION DATA    G (GPS)             RINEX VERSION / TYPE
teqc 2007Jun25 20080612 09:35:34UTC                         PGM / RUN BY / DATE
MSXP|IAx86-PII|bcc32 5.0|MSWin95->XP|486/DX+                COMMENT
2.10 OBSERVATION DATA G (GPS)                               COMMENT
JPS2RIN 1.40 RUN BY 12-JUN-08 11:02                         COMMENT
build Feb 6 2004 (c) Javad Navigation Systems               COMMENT
Use -p (profile) switch to override ANTENNA TYPE and DELTA  COMMENT
and other fields                                            COMMENT
jav0502b.jps                                                COMMENT
SE TPS 00000000                                             COMMENT
jav0502b_277K                                               MARKER NAME
OBSERVER AGENCY                                             OBSERVER / AGENCY
8QG3JM7277K TPS MAXOR 2.6.0 Apr,18,2007                     REC # / TYPE / VERS
jav0502b -Unknown-                                          ANT # / TYPE
   387251.8943  -738616.6823  6302227.9020                  APPROX POSITION XYZ
        0.0000        0.0000        0.0000                  ANTENNA: DELTA H/E/N
     1     1                                                WAVELENGTH FACT L1/2
     7    C1    P1    P2    L1    L2    D1    D2            # / TYPES OF OBSERV
    30.0000                                                 INTERVAL
Forced Modulo Decimation to 30 seconds                      COMMENT
teqc windowed: start @ 2008 May 2 12:16:30.000              COMMENT
  2008     5     2    12    16   30.0000000     GPS         TIME OF FIRST OBS
                                                            END OF HEADER
 08  5  2 12 16 30.0000000  0 11G 2G 4G10G13G16G23G24G25G29G30G31
  20981864.804    20981864.4794   20981865.3194  110260444.777 8  85917250.03546
     -1583.874       -1234.187
  22862881.035    22862881.0744   22862884.4054  120145253.450 7  93619696.93344
     -3903.058       -3041.342
  23282133.745    23282132.7844   23282136.5654  122348411.477 7  95336465.42644
      2904.809        2263.479
  21513964.008                                   113056646.245 8
       693.486
  23846339.972    23846339.7374   23846342.3274  125313359.398 7  97646796.43144
      2424.179        1888.963
  21793407.081    21793406.7754   21793408.4484  114525128.397 8  89240377.87545
     -2072.639       -1615.040
  24119210.323    24119209.9844   24119213.8784  126747281.375 6  98764152.99943
      2878.347        2242.862
  24295357.657                                   127672977.415 6
      2508.382
  21943154.848    21943154.9174   21943157.0004  115312048.314 7  89853570.33046
       839.468         654.132
  23404965.964    23404966.0514   23404968.7204  122993912.753 7  95839442.79844
     -4011.688       -3125.991
  23665154.878    23665154.9104   23665156.6174  124361222.544 7  96904873.04345
     -3501.466       -2728.416
 08  5  2 12 17  0.0000000  0 11G 2G 4G10G13G16G23G24G25G29G30G31
  20990949.851    20990949.3584   20990950.1364  110308185.732 8  85954450.77946
     -1599.125       -1246.072
  22885177.354    22885177.1884   22885180.5884  120262420.360 7  93710995.79345
     -3908.390       -3045.505
  23265561.274    23265560.5404   23265564.0054  122261322.846 7  95268604.20944
      2900.802        2260.369
  21510048.650    21510048.7444   21510050.5464  113036070.256 8  88080072.90146
       677.943         528.268
  23832516.552    23832516.0504   23832518.9284  125240716.350 7  97590191.54444
      2418.407        1884.465
  21805280.390    21805280.1014   21805280.7824  114587523.125 8  89288997.10845
     -2087.275       -1626.445
  24102780.682    24102780.2024   24102784.1134  126660943.047 6  98696876.36043
      2877.268        2242.024
  24281047.259    24281047.1804   24281050.6254  127597773.809 6  99426849.46644
      2505.031        1951.963
  21938398.369    21938398.4744   21938400.5774  115287052.834 7  89834093.34346
       826.652         644.144
  23427885.011    23427884.7884   23427887.7454  123114352.488 7  95933291.97944
     -4017.906       -3130.836
  23685163.526    23685163.5784   23685165.3024  124466368.145 7  96986804.65345
     -3508.495       -2733.888
 08  5  2 12 17 30.0000000  0 11G 2G 4G10G13G16G23G24G25G29G30G31
  21000127.743    21000127.4074   21000128.2304  110356415.950 8  85992032.62646
     -1616.617       -1259.699
  22907509.875    22907509.7234   22907513.1474  120379778.778 7  93802443.84944
     -3915.919       -3051.363
  23249017.681    23249016.9824   23249020.6864  122174387.417 7  95200862.39544
      2894.464        2255.427
  21506228.316    21506228.2804   21506230.0744  113015993.588 8  88064428.75146
       660.102         514.363
  23818732.265    23818731.7674   23818734.0684  125168279.732 7  97533747.52644
      2410.268        1878.126
  21817243.307    21817242.9124   21817243.5134  114650388.176 7  89337982.82045
     -2104.089       -1639.546
  24086363.599    24086362.7984   24086367.1494  126574669.615 6  98629650.26943
      2873.838        2239.354
  24266761.514    24266761.2864   24266764.6184  127522699.622 7  99368350.05544
      2499.495        1947.665
  21933721.499    21933721.5104   21933723.6554  115262474.549 7  89814941.40446
       811.519         632.350
  23450845.464    23450845.4324   23450848.2454  123235010.207 7  96027311.00544
     -4026.317       -3137.390
  23705217.904    23705217.8484   23705219.5394  124571753.555 7  97068923.12145
     -3517.635       -2741.014
 08  5  2 12 18  0.0000000  0 11G 2G 4G10G13G16G23G24G25G29G30G31
  21009410.652    21009410.2244   21009411.2034  110405197.769 8  86030044.39246
     -1636.128       -1274.907
  22929890.531    22929890.3734   22929894.0174  120497388.759 7  93894087.90145
     -3925.368       -3058.716
  23232516.239    23232515.2664   23232518.9594  122087670.126 7  95133290.50644
      2885.986        2248.823
  21502515.054    21502515.0624   21502516.7694  112996480.509 8  88049223.75545
       640.130         498.806
  23804999.866    23804999.3194   23805001.6214  125096115.148 7  97477515.47344
      2400.024        1870.134
  21829307.329    21829307.0234   21829307.6784  114713784.832 7  89387382.71045
     -2122.948       -1654.236
  24069970.941    24069970.3994   24069974.8084  126488526.091 6  98562525.43143
      2868.323        2235.063
  24252512.354    24252512.1054   24252515.3694  127447821.159 6  99310003.24044
      2491.760        1941.630
  21929135.905    21929135.9894   21929138.1694  115238377.715 7  89796164.63746
       794.280         618.922
  23473858.583    23473858.5624   23473861.4124  123355945.553 7  96121546.37544
     -4036.677       -3145.465
  23725328.977    23725328.9794   23725330.7174  124677439.014 7  97151275.40045
     -3528.730       -2749.656
 08  5  2 12 18 30.0000000  0 11G 2G 4G10G13G16G23G24G25G29G30G31
  21018808.553    21018808.1444   21018808.9334  110454584.045 8  86068527.20046
     -1655.961       -1290.356
  22952328.923    22952328.9834   22952331.9544  120615302.351 7  93985968.59245
     -3935.176       -3066.374
  23216066.816    23216065.9074   23216069.7464  122001228.254 7  95065933.21744
      2877.079        2241.882
  21498919.643    21498919.6894   21498921.3794  112977586.549 8  88034501.20046
       619.761         482.933
  23791329.832    23791329.2454   23791331.8224  125024279.569 7  97421539.77944
      2389.340        1861.825
  21841482.716    21841482.4044   21841482.8434  114777765.996 8  89437238.14645
     -2142.110       -1669.177
  24053613.772    24053613.4924   24053617.4664  126402569.154 6  98495545.96943
      2862.390        2230.438
  24238311.467    24238311.0194   24238314.2544  127373194.946 6  99251853.03544
      2483.627        1935.291
  21924652.832    21924652.8354   21924654.9634  115214818.373 7  89777806.69146
       776.618         605.159
  23496934.139    23496934.1934   23496937.2824  123477209.672 7  96216037.89244
     -4047.244       -3153.697
  23745507.174    23745507.3024   23745509.1034  124783476.555 7  97233902.02245
     -3540.114       -2758.528
 08  5  2 12 19  0.0000000  0 11G 2G 4G10G13G16G23G24G25G29G30G31
  21028323.189    21028322.7854   21028323.7164  110504583.937 8  86107488.19546
     -1677.091       -1306.836
  22974825.842    22974825.9694   22974829.7074  120733526.704 7  94078091.46745
     -3946.158       -3074.934
  23199672.138    23199671.3604   23199674.9684  121915074.108 7  94998800.16644
      2866.757        2233.840
  21495444.259    21495444.1644   21495445.9274  112959323.081 8  88020269.93946
       598.076         466.035
  23777724.984    23777724.3094   23777727.1134  124952785.475 7  97365830.16644
      2377.231        1852.386
  21853770.644    21853770.1854   21853770.8124  114842339.683 8  89487555.34645
     -2162.520       -1685.087
  24037294.550    24037293.9874   24037298.5214  126316810.785 6  98428721.21943
      2855.092        2224.744
  24224160.372    24224160.4124   24224163.7824  127298833.105 7  99193908.78744
      2474.112        1927.879
  21920274.008    21920273.9514   21920276.1764  115191807.650 7  89759876.25046
       757.658         590.381
  23520073.877    23520074.0184   23520076.8434  123598809.513 7  96310791.00644
     -4059.095       -3162.931
  23765754.052    23765753.8364   23765755.7334  124889873.269 7  97316808.51545
     -3552.719       -2768.356
 08  5  2 12 19 30.0000000  0 11G 2G 4G10G13G16G23G24G25G29G30G31
  21037958.470    21037958.0494   21037958.9614  110555217.465 8  86146942.86346
     -1698.792       -1323.738
  22997386.289    22997386.1224   22997389.3714  120852080.507 7  94170471.04444
     -3957.713       -3083.930
  23183337.002    23183336.2754   23183339.8354  121829231.300 7  94931909.63344
      2855.767        2225.266
  21492092.948    21492092.9924   21492094.8934  112941712.568 8  88006547.46346
       575.687         448.583
  23764189.465    23764189.0984   23764191.6184  124881656.685 7  97310405.23344
      2364.410        1842.391
  21866175.006    21866174.5944   21866175.2464  114907525.405 8  89538349.41045
     -2183.486       -1701.423
  24021017.448    24021017.4354   24021021.6544  126231274.853 6  98362069.83943
      2847.039        2218.476
  24210064.822    24210064.6174   24210067.9014  127224759.439 6  99136189.09544
      2463.882        1919.912
  21916003.968    21916003.8574   21916006.0614  115169368.124 7  89742390.88646
       737.993         575.059
  23543281.017    23543281.1884   23543283.8984  123720763.564 7  96405820.13344
     -4071.418       -3172.540
  23786072.359    23786072.4464   23786074.3314  124996647.808 7  97400009.43045
     -3565.853       -2778.591
 08  5  2 12 20  0.0000000  0 11G 2G 4G10G13G16G23G24G25G29G30G31
  21047722.194    21047721.8454   21047722.8014  110606527.361 8  86186924.70146
     -1721.941       -1341.776
  23020016.760    23020016.7014   23020020.1664  120971004.741 7  94263139.20445
     -3970.599       -3093.979
  23167069.714    23167068.7584   23167072.7164  121743746.386 7  94865297.97544
      2843.156        2215.439
  21488874.544    21488874.5554   21488876.5334  112924799.874 8  87993368.74745
       551.770         429.951
  23750732.275    23750731.8714   23750734.1994  124810939.369 7  97255300.91144
      2350.039        1831.201
  21878704.053    21878703.6934   21878704.1864  114973365.345 8  89589653.22346
     -2205.887       -1718.873
  24004791.770    24004791.1974   24004795.3434  126146006.986 6  98295627.41943
      2837.466        2211.014
  24196032.666    24196032.3924   24196036.2364  127151020.000 7  99078729.79344
      2452.034        1910.670
  21911851.080    21911851.0834   21911853.1744  115147544.881 7  89725385.77246
       716.809         558.555
  23566563.087    23566563.3194   23566566.0534  123843111.937 7  96501156.48944
     -4085.166       -3183.250
  23806470.546    23806470.7674   23806472.3394  125103841.002 7  97483536.58245
     -3580.392       -2789.918
 08  5  2 12 20 30.0000000  0 11G 2G 4G10G13G16G23G24G25G29G30G31
  21057618.297    21057617.8914   21057618.8874  110658531.871 8  86227447.75546
     -1745.253       -1359.939
  23042721.087    23042720.9794   23042723.9584  121090316.517 7  94356109.44444
     -3983.697       -3104.180
  23150874.838    23150874.0304   23150877.6064  121658641.332 7  94798982.25144
      2830.264        2205.399
  21485793.017    21485792.9444   21485794.9764  112908605.687 8  87980749.90246
       527.590         411.105
  23737357.719    23737357.0084   23737359.7504  124740655.235 7  97200534.09944
      2335.358        1819.762
  21891360.759    21891360.5384   21891360.8244  115039877.257 7  89641480.74145
     -2228.479       -1736.476
  23988620.891    23988620.6564   23988624.6724  126061028.914 6  98229410.75243
      2827.564        2203.306
  24182068.470    24182068.2664   24182071.5814  127077636.937 6  99021548.19544
      2439.892        1901.209
  21907819.467    21907819.4334   21907821.6254  115126358.733 7  89708877.09846
       695.372         541.847
  23589923.373    23589923.8284   23589926.3414  123965871.214 7  96596813.03844
     -4098.997       -3194.022
  23826951.830    23826951.6714   23826953.4464  125211469.683 7  97567403.08645
     -3595.064       -2801.347
 08  5  2 12 21  0.0000000  0 11G 2G 4G10G13G16G23G24G25G29G30G31
  21067648.830    21067648.5034   21067649.4544  110711242.693 8  86268521.09746
     -1768.979       -1378.428
  23065500.990    23065500.9114   23065504.2884  121210026.015 7  94449389.56245
     -3997.071       -3114.594
  23134755.273    23134754.3144   23134757.9544  121573932.127 7  94732975.07344
      2816.836        2194.933
  21482850.621    21482850.6374   21482852.6664  112893144.274 8  87968702.06146
       502.967         391.921
  23724068.663    23724068.1204   23724070.3284  124670819.959 7  97146117.03244
      2320.100        1807.862
  21904147.547    21904147.2174   21904147.6714  115107072.097 8  89693840.35045
     -2251.397       -1754.337
  23972507.379    23972507.5834   23972511.7214  125976356.029 7  98163432.01544
      2817.130        2195.167
  24168174.870    24168174.6074   24168178.0404  127004625.477 7  98964656.15944
      2427.315        1891.410
  21903911.707    21903911.7474   21903913.9684  115105823.774 7  89692875.83646
       673.445         524.762
  23613364.075    23613363.9954   23613366.8324  124089050.940 7  96692797.20644
     -4113.151       -3205.046
  23847517.343    23847517.5754   23847519.3874  125319544.269 7  97651617.03245
     -3610.087       -2813.057
 08  5  2 12 21 30.0000000  0 11G 2G 4G10G13G16G23G24G25G29G30G31
  21077817.060    21077816.5784   21077817.5564  110764676.599 8  86310157.90046
     -1793.412       -1397.466
  23088359.245    23088359.2754   23088362.6354  121330148.163 7  94542991.25344
     -4011.153       -3125.575
  23118714.351    23118713.7854   23118717.5734  121489638.142 7  94667291.47844
      2802.646        2183.891
  21480051.497    21480051.4264   21480053.3954  112878434.304 8  87957239.76546
       477.545         372.109
  23710868.521    23710867.9794   23710870.5054  124601453.654 7  97092065.41244
      2304.130        1795.427
  21917067.017    21917066.7144   21917067.4064  115174965.860 8  89746744.65745
     -2274.979       -1772.717
  23956456.818    23956456.7144   23956460.5004  125892007.422 6  98097705.96844
      2805.954        2186.465
  24154355.691    24154355.4804   24154359.0634  126932005.647 7  98908069.35644
      2413.835        1880.901
  21900131.583    21900131.6194   21900133.8374  115085958.866 8  89677396.66946
       650.721         507.053
  23636886.626    23636886.9684   23636889.8384  124212665.470 7  96789120.20844
     -4127.905       -3216.548
  23868170.927    23868171.0914   23868173.1614  125428079.571 7  97736189.99545
     -3625.697       -2825.217
 08  5  2 12 22  0.0000000  0 11G 2G 4G10G13G16G23G24G25G29G30G31
  21088127.149    21088126.6414   21088127.6964  110818856.341 8  86352375.86646
     -1818.622       -1417.110
  23111300.473    23111300.5694   23111303.9014  121450704.491 7  94636931.27745
     -4025.957       -3137.111
  23102757.871    23102757.2184   23102761.1414  121405786.791 7  94601952.76244
      2787.438        2172.025
  21477400.034    21477399.9784   21477401.9424  112864500.849 8  87946382.56546
       451.291         351.655
  23697762.970    23697762.3244   23697764.9904  124532583.320 7  97038400.26544
      2287.168        1782.199
  21930123.790    21930123.3684   21930124.2344  115243580.721 8  89800210.84145
     -2299.378       -1791.725
  23940472.491    23940472.1354   23940476.3844  125808009.671 6  98032253.25244
      2793.795        2176.982
  24140616.135    24140615.9574   24140619.2014  126859803.981 7  98851808.35044
      2399.512        1869.753
  21896483.759    21896483.7844   21896486.1174  115066789.723 7  89662459.69846
       627.137         488.675
  23660496.626    23660496.8404   23660499.6194  124336736.286 7  96885798.71244
     -4143.504       -3228.705
  23888916.462    23888916.3574   23888918.3494  125537096.979 7  97821138.59445
     -3642.165       -2838.052
 08  5  2 12 22 30.0000000  0 11G 2G 4G10G13G16G23G24G25G29G30G31
  21098582.479    21098581.8904   21098582.7624  110873798.741 8  86395188.18546
     -1844.333       -1437.134
  23134327.082    23134327.2164   23134330.5224  121571710.374 7  94731221.54645
     -4041.218       -3148.999
  23086889.985    23086889.1714   23086892.6604  121322398.517 7  94536974.91644
      2771.635        2159.705
  21474899.947    21474899.8924   21474902.0674  112851363.290 8  87936145.52946
       424.420         330.716
  23684755.584    23684755.1084   23684757.5544  124464229.374 7  96985137.48744
      2269.652        1768.556
  21943321.332    21943320.8624   21943321.4684  115312932.932 8  89854251.58445
     -2324.236       -1811.098
  23924558.754    23924558.3964   23924562.6304  125724383.393 6  97967089.94844
      2781.080        2167.080
  24126960.274    24126959.9894   24126963.1824  126788041.287 7  98795889.42744
      2384.541        1858.086
  21892972.259    21892972.1594   21892974.3174  115048335.432 7  89648079.77846
       602.960         469.837
  23684196.239    23684196.3274   23684199.2794  124461278.009 6  96982844.18744
     -4159.434       -3241.125
  23909756.657    23909756.5604   23909758.5834  125646612.202 7  97906475.15245
     -3658.982       -2851.159
 08  5  2 12 23  0.0000000  0 11G 2G 4G10G13G16G23G24G25G29G30G31
  21109184.440    21109184.0734   21109184.7924  110929513.858 8  86438602.54846
     -1870.139       -1457.247
  23157440.937    23157441.0484   23157444.3444  121693174.324 7  94825868.72545
     -4056.516       -3160.919
  23071112.159    23071111.4864   23071115.0994  121239486.676 7  94472368.32444
      2755.650        2147.263
  21472553.847    21472553.8174   21472555.6654  112839033.852 8  87926538.20546
       397.383         309.650
  23671848.961    23671848.4544   23671850.9124  124396405.473 7  96932287.72944
      2251.815        1754.667
  21956660.453    21956660.1174   21956660.8494  115383031.846 7  89908874.15945
     -2349.175       -1830.526
  23908718.375    23908718.1264   23908722.4434  125641141.802 6  97902226.37144
      2768.255        2157.079
  24113389.945    24113389.9794   24113393.5214  126716730.623 7  98740322.70144
      2369.342        1846.235
  21889598.907    21889598.7724   21889600.9234  115030608.376 8  89634266.51946
       578.669         450.914
  23707986.943    23707987.2914   23707989.7434  124586298.471 7  97080262.70344
     -4175.388       -3253.548
  23930692.933    23930692.7784   23930694.8224  125756633.003 7  97992205.64745
     -3675.875       -2864.318
 08  5  2 12 23 30.0000000  0 11G 2G 4G10G13G16G23G24G25G29G30G31
  21119933.226    21119932.7974   21119933.6304  110985998.826 8  86482616.79246
     -1895.663       -1477.147
  23180641.419    23180641.3874   23180644.5414  121815092.589 7  94920869.96244
     -4071.480       -3172.578
  23055425.535    23055424.6854   23055428.3704  121157052.034 7  94408133.53144
      2739.856        2134.942
  21470361.218    21470361.2044   21470363.2974  112827512.060 8  87917560.20546
       370.595         288.772
  23659043.591    23659043.0264   23659045.7414  124329112.684 7  96879851.82944
      2234.253        1740.982
  21970141.358    21970141.0444   21970141.7394  115453873.901 7  89964075.74145
     -2373.756       -1849.681
  23892951.486    23892951.3204   23892955.3054  125558285.645 6  97837663.18544
      2755.392        2147.053
  24099906.506    24099906.3134   24099909.4924  126645873.224 6  98685109.17544
      2354.343        1834.552
  21886363.649    21886363.7514   21886365.8734  115013607.889 7  89621019.39746
       554.539         432.106
  23731868.027    23731867.9214   23731870.9454  124711793.197 6  97178050.78344
     -4191.014       -3265.723
  23951724.596    23951724.5774   23951726.4824  125867155.439 7  98078326.99245
     -3692.424       -2877.209
 08  5  2 12 24  0.0000000  0 11G 2G 4G10G13G16G23G24G25G29G30G31
  21130826.473    21130825.9934   21130826.7714  111043242.649 8  86527222.34746
     -1920.782       -1496.712
  23203925.430    23203925.3294   23203928.9034  121937452.196 7  95016215.06244
     -4085.987       -3183.880
  23039828.039    23039827.2254   23039830.9604  121075087.444 7  94344265.01645
      2724.265        2122.807
  21468320.595    21468320.6134   21468322.6314  112816789.247 8  87909204.78646
       344.074         268.109
  23646337.742    23646337.0014   23646339.8554  124262343.566 7  96827823.98544
      2216.838        1727.402
  21983761.425    21983761.1504   21983761.8374  115525447.421 7  90019847.19245
     -2397.983       -1868.559
  23877256.342    23877255.9664   23877260.1804  125475806.944 6  97773394.05044
      2742.965        2137.383
  24086507.567    24086507.2334   24086510.7764  126575461.487 6  98630242.98244
      2339.608        1823.065
  21883265.299    21883265.3834   21883267.3874  114997326.051 8  89608332.28846
       530.727         413.552
  23755836.240    23755836.4004   23755839.4194  124837749.001 6  97276198.16044
     -4206.165       -3277.532
  23972849.161    23972849.3894   23972851.3064  125978166.899 7  98164829.41145
     -3708.521       -2889.754
 08  5  2 12 24 30.0000000  0 11G 2G 4G10G13G16G23G24G25G29G30G31
  21141863.024    21141862.7254   21141863.5434  111101241.223 8  86572416.03246
     -1945.680       -1516.109
  23227292.770    23227292.9244   23227296.2074  122060247.712 7  95111899.80444
     -4100.280       -3195.030
  23024320.033    23024319.3924   23024323.3384  120993593.225 7  94280763.00245
      2708.800        2110.747
  21466431.776    21466431.7874   21466433.7914  112806863.304 8  87901470.29446
       317.773         247.612
  23633731.274    23633730.8804   23633733.5284  124196097.612 7  96776203.80144
      2199.615        1713.988
  21997519.687    21997519.4114   21997520.0264  115597748.210 7  90076185.46345
     -2421.949       -1887.230
  23861633.206    23861632.4914   23861636.7784  125393705.165 6  97709418.64144
      2730.613        2127.742
  24073193.198    24073193.0364   24073196.1854  126505494.880 7  98575723.62544
      2324.919        1811.626
  21880303.244    21880303.3294   21880305.2744  114981760.718 8  89596203.48146
       507.069         395.120
  23779891.795    23779891.7134   23779894.4454  124964159.700 7  97374699.92744
     -4221.022       -3289.106
  23994066.057    23994066.2174   23994067.9894  126089661.761 7  98251708.48945
     -3724.341       -2902.083
 08  5  2 12 25  0.0000000  0 11G 2G 4G10G13G16G23G24G25G29G30G31
  21153041.420    21153041.0364   21153041.8474  111159983.570 8  86618189.31146
     -1970.310       -1535.300
  23250740.985    23250740.8374   23250743.8944  122183466.968 7  95207914.77044
     -4114.203       -3205.862
  23008900.401    23008899.4664   23008903.4564  120912561.846 7  94217621.77345
      2693.471        2098.810
  21464692.963    21464692.8534   21464694.8484  112797725.443 8  87894349.89746
       291.582         227.207
  23621223.611    23621222.8214   23621225.4784  124130367.553 7  96724985.60744
      2182.538        1700.679
  22011414.336    22011413.9344   22011414.5544  115670763.968 8  90133080.81545
     -2445.604       -1905.657
  23846079.736    23846079.3374   23846083.2924  125311972.744 7  97645731.05044
      2718.385        2118.229
  24059961.986    24059961.8674   24059965.0004  126435965.993 7  98521545.30844
      2310.478        1800.378
  21877475.886    21877476.0314   21877478.0834  114966903.160 7  89584626.15746
       483.586         376.826
  23804031.018    23804031.0264   23804033.9554  125091012.682 6  97473546.34744
     -4235.618       -3300.485
  24015372.212    24015372.6434   24015374.5484  126201627.649 7  98338954.58145
     -3739.862       -2914.174
 08  5  2 12 25 30.0000000  0 11G 2G 4G10G13G16G23G24G25G29G30G31
  21164358.985    21164358.5834   21164359.4524  111219457.713 8  86664532.78146
     -1994.333       -1554.022
  23274266.866    23274266.9514   23274270.1564  122307096.999 7  95304249.81944
     -4127.454       -3216.193
  22993567.370    22993566.2894   22993570.1624  120831985.207 7  94154834.80745
      2678.627        2087.241
  21463102.182    21463102.2734   21463104.0934  112789366.454 8  87887836.41346
       265.984         207.258
  23608812.142    23608811.4524   23608814.0344  124065145.814 7  96674163.50844
      2165.890        1687.708
  22025442.468    22025442.0024   22025442.8434  115744482.737 8  90190523.97745
     -2468.655       -1923.624
  23830594.989    23830594.8354   23830599.0614  125230601.882 7  97582325.23944
      2706.663        2109.079
  24046812.895    24046812.8454   24046816.0374  126366867.168 7  98467702.11444
      2296.467        1789.458
  21874781.713    21874781.7304   21874783.8294  114952744.472 7  89573593.41846
       460.648         358.947
  23828251.823    23828251.9714   23828254.7054  125218294.549 7  97572727.02644
     -4249.470       -3311.266
  24036765.918    24036766.2094   24036768.2304  126314051.881 7  98426557.81945
     -3754.733       -2925.766
 08  5  2 12 26  0.0000000  0 11G 2G 4G10G13G16G23G24G25G29G30G31
  21175811.947    21175811.5574   21175812.3144  111279643.860 8  86711431.09246
     -2017.950       -1572.433
  23297867.029    23297866.9134   23297870.3514  122431116.336 7  95400888.18744
     -4140.319       -3226.222
  22978317.476    22978316.5544   22978320.3224  120751847.319 7  94092389.79545
      2664.000        2075.833
  21461656.300    21461656.3344   21461658.3214  112781768.607 8  87881916.01546
       240.665         187.529
  23596494.115    23596493.9304   23596496.5914  124000415.980 7  96623724.70344
      2149.540        1674.960
  22039600.526    22039600.1364   22039600.9094  115818883.545 7  90248498.57545
     -2491.273       -1941.257
  23815176.431    23815176.1014   23815180.2584  125149575.891 6  97519188.15244
      2695.201        2100.145
  24033742.447    24033742.3754   24033745.3414  126298181.853 6  98414181.11344
      2282.684        1778.698
  21872216.837    21872217.0124   21872219.1154  114939266.725 8  89563091.26246
       437.996         341.293
  23852550.152    23852550.3064   23852553.1134  125345982.813 6  97672224.28344
     -4262.938       -3321.756
  24058242.951    24058243.0774   24058244.8894  126426912.432 7  98514501.09645
     -3769.155       -2937.002
 08  5  2 12 26 30.0000000  0 11G 2G 4G10G13G16G23G24G25G29G30G31
  21187400.205    21187399.8734   21187400.5924  111340540.376 8  86758882.93346
     -2041.798       -1591.008
  23321540.681    23321540.4994   23321544.0434  122555522.555 7  95497828.08044
     -4153.348       -3236.367
  22963151.238    22963150.6174   22963154.5004  120672150.107 7  94030288.07445
      2649.152        2064.285
  21460355.546    21460355.5214   21460357.4954  112774932.887 8  87876589.47946
       215.090         167.599
  23584270.651    23584270.1544   23584272.8164  123936180.399 7  96573671.01044
      2132.892        1661.995
  22053887.965    22053887.5884   22053888.5464  115893964.782 7  90307003.38245
     -2514.074       -1959.018
  23799823.481    23799823.3864   23799827.7764  125068896.904 7  97456321.43744
      2683.451        2091.004
  24020751.516    24020751.2294   24020754.2824  126229912.511 7  98360984.26144
      2268.618        1767.751
  21869782.017    21869782.1284   21869784.1904  114926471.378 8  89553120.85946
       415.054         323.419
  23876925.526    23876925.5754   23876928.4784  125474074.682 7  97772035.94444
     -4276.486       -3332.321
  24079801.881    24079802.1534   24079804.0134  126540206.304 7  98602782.03145
     -3783.757       -2948.380
 08  5  2 12 27  0.0000000  0 11G 2G 4G10G13G16G23G24G25G29G30G31
  21199123.586    21199123.0914   21199123.9154  111402146.516 8  86806887.71746
     -2065.141       -1609.203
  23345287.596    23345287.6384   23345290.8914  122680313.574 7  95595067.84744
     -4165.861       -3246.127
  22948070.081    22948069.2274   22948073.0724  120592896.922 7  93968532.32645
      2634.514        2052.870
  21459200.033    21459199.9374   21459202.0124  112768860.486 8  87871857.73246
       189.890         147.964
  23572141.552    23572141.3704   23572143.9254  123872442.437 7  96524005.09144
      2116.485        1649.210
  22068304.557    22068304.2984   22068305.0794  115969724.747 7  90366037.09245
     -2536.413       -1976.429
  23784537.605    23784537.1284   23784541.5834  124988567.451 7  97393727.06144
      2672.008        2082.074
  24007839.602    24007839.3304   24007842.7424  126162062.202 6  98308113.90344
      2254.884        1757.047
  21867477.112    21867477.2654   21867479.3844  114914359.697 7  89543683.16046
       392.521         305.860
  23901376.734    23901376.7754   23901379.8574  125602567.683 7  97872160.33344
     -4289.551       -3342.501
  24101442.844    24101443.3224   24101445.2284  126653931.715 7  98691399.21945
     -3797.804       -2959.323
 08  5  2 12 27 30.0000000  0 11G 2G 4G10G13G16G23G24G25G29G30G31
  21210982.383    21210981.8184   21210982.7024  111464464.568 8  86855447.23546
     -2088.933       -1627.738
  23369107.566    23369107.5624   23369111.0094  122805489.935 7  95692607.93344
     -4178.745       -3256.165
  22933074.154    22933073.5194   22933077.3714  120514094.179 7  93907127.63445
      2619.427        2041.113
  21458190.538    21458190.5354   21458192.5674  112763555.820 8  87867724.23546
       164.216         127.957
  23560108.371    23560108.1284   23560110.6834  123809207.759 7  96474731.34844
      2099.574        1636.039
  22082850.907    22082850.4594   22082851.2654  116046164.942 7  90425600.87445
     -2559.123       -1994.122
  23769318.937    23769318.8034   23769323.0054  124908593.320 7  97331409.55944
      2660.028        2072.752
  23995009.326    23995008.9434   23995012.0394  126094636.251 7  98255574.16544
      2240.645        1745.955
  21865303.748    21865303.5954   21865305.5934  114902936.548 7  89534781.98546
       369.479         287.906
  23925904.668    23925904.6134   23925907.6884  125731462.043 6  97972597.53344
     -4302.919       -3352.929
  24123166.510    24123166.6504   24123168.7944  126768089.253 7  98780353.11945
     -3812.245       -2970.582
 08  5  2 12 28  0.0000000  0 11G 2G 4G10G13G16G23G24G25G29G30G31
  21222973.203    21222972.9054   21222973.8164  111527477.914 8  86904548.49746
     -2111.864       -1645.604
  23392998.086    23392998.0954   23393001.4014  122931034.221 7  95790434.65744
     -4190.768       -3265.536
  22918161.974    22918161.0124   22918164.9144  120435729.588 7  93846064.35445
      2604.974        2029.854
  21457324.306    21457324.3794   21457326.4514  112759004.776 8  87864177.97646
       139.291         108.539
  23548168.897    23548168.5484   23548170.9184  123746464.011 7  96425840.15744
      2083.392        1623.422
  22097523.117    22097522.8124   22097523.5304  116123268.380 7  90485681.42745
     -2581.011       -2011.178
  23754165.629    23754165.3374   23754169.4934  124828961.833 7  97269359.06944
      2648.817        2064.015
  23982256.665    23982256.5954   23982259.8554  126027622.556 7  98203355.67344
      2227.002        1735.332
  21863258.190    21863258.2874   21863260.2344  114892187.723 7  89526406.23046
       347.204         270.549
  23950505.099    23950505.5104   23950508.4924  125860739.480 6  98073333.22644
     -4315.482       -3362.723
  24144969.065    24144969.1064   24144971.0334  126882661.269 7  98869629.97545
     -3825.845       -2981.176
 08  5  2 12 28 30.0000000  0 11G 2G 4G10G13G16G23G24G25G29G30G31
  21235095.132    21235094.7384   21235095.6134  111591178.603 8  86954185.40246
     -2134.865       -1663.526
  23416956.368    23416956.2414   23416959.6964  123056937.253 7  95888540.96444
     -4202.800       -3274.910
  22903332.297    22903331.1634   22903335.0744  120357798.810 7  93785339.11445
      2590.362        2018.466
  21456600.481    21456600.5524   21456602.7044  112755201.377 8  87861214.30546
       114.220          89.006
  23536321.612    23536321.1254   23536323.7394  123684206.957 7  96377328.19944
      2067.033        1610.678
  22112319.996    22112319.7024   22112320.3544  116201026.634 7  90546272.31145
     -2602.891       -2028.226
  23739076.535    23739076.3504   23739080.4764  124749668.502 6  97207572.03644
      2637.373        2055.112
  23969582.449    23969581.8764   23969585.1674  125961016.752 7  98151455.05444
      2213.271        1724.620
  21861340.026    21861339.9454   21861341.9974  114882107.523 8  89518551.50946
       324.775         253.072
  23975176.643    23975176.9564   23975179.7434  125990389.969 7  98174359.55744
     -4327.954       -3372.438
  24166848.292    24166848.5934   24166850.6074  126997638.591 7  98959222.66645
     -3839.364       -2991.708
 08  5  2 12 29  0.0000000  0 11G 2G 4G10G13G16G23G24G25G29G30G31
  21247345.846    21247345.4914   21247346.3694  111655556.461 8  87004349.93946
     -2157.335       -1681.038
  23440981.331    23440981.3124   23440984.1694  123183187.707 7  95986917.97744
     -4214.267       -3283.842
  22888583.622    22888582.8554   22888586.7094  120280295.369 7  93724946.82745
      2576.126        2007.367
  21456017.825    21456017.7914   21456019.8704  112752138.289 8  87858827.48746
        89.607          69.823
  23524565.919    23524565.7124   23524568.2754  123622430.529 7  96329190.75644
      2050.998        1598.182
  22127239.442    22127239.2184   22127239.7964  116279428.828 7  90607364.94145
     -2624.290       -2044.899
  23724050.470    23724050.2354   23724054.4664  124670706.864 7  97146043.46244
      2626.337        2046.499
  23956983.826    23956983.6034   23956986.9374  125894812.676 6  98099867.49144
      2199.936        1714.238
  21859547.609    21859547.6154   21859549.6884  114872688.865 7  89511212.27546
       302.763         235.921
  23999917.285    23999917.4994   23999920.6394  126120401.774 6  98275667.41144
     -4339.879       -3381.722
  24188802.830    24188802.8314   24188805.0594  127113009.655 7  99049122.20645
     -3852.370       -3001.850
 08  5  2 12 29 30.0000000  0 11G 2G 4G10G13G16G23G24G25G29G30G31
  21259726.051    21259725.6284   21259726.3824  111720614.530 8  87055044.55946
     -2179.560       -1698.359
  23465071.804    23465072.0664   23465075.2524  123309786.999 7  96085566.80244
     -4225.412       -3292.527
  22873917.651    22873916.8404   22873921.0684  120203226.366 7  93664893.08445
      2562.084        1996.435
  21455576.583    21455576.5694   21455578.7184  112749820.328 8  87857021.29346
        65.222          50.823
  23512902.935    23512902.5674   23512905.1914  123561141.386 7  96281433.01644
      2035.217        1585.872
  22142281.969    22142281.4324   22142282.2414  116358477.298 8  90668961.16445
     -2645.340       -2061.303
  23709088.986    23709089.0154   23709093.0044  124592083.657 6  97084778.63044
      2615.498        2038.045
  23944463.207    23944463.0744   23944466.5064  125829016.921 7  98048598.09644
      2186.750        1703.964
  21857882.259    21857882.1664   21857884.2294  114863936.778 8  89504392.43246
       280.966         218.935
  24024726.975    24024726.8774   24024729.7084  126250776.191 6  98377257.84344
     -4351.448       -3390.739
  24210832.401    24210832.7144   24210834.4404  127228775.817 7  99139329.58745
     -3865.081       -3011.749
 08  5  2 12 30  0.0000000  0 11G 2G 4G10G13G16G23G24G25G29G30G31
  21272231.604    21272231.1664   21272231.9414  111786331.735 8  87106252.79246
     -2201.172       -1715.195
  23489225.352    23489225.4084   23489228.6904  123436713.634 7  96184470.71444
     -4235.958       -3300.750
  22859331.382    22859330.6014   22859334.8464  120126574.797 7  93605164.59745
      2548.433        1985.800
  21455273.882    21455273.5574   21455275.8114  112748228.693 8  87855781.06746
        41.290          32.175
  23501329.577    23501329.0714   23501331.7594  123500322.564 7  96234041.75644
      2019.792        1573.864
  22157443.007    22157442.7434   22157443.5614  116438150.624 7  90731044.27445
     -2665.784       -2077.231
  23694188.900    23694188.4694   23694192.4664  124513781.591 7  97023764.00844
      2605.044        2029.902
  23932017.500    23932017.1294   23932020.0004  125763612.587 7  97997633.75444
      2173.947        1693.981
  21856340.124    21856340.1194   21856342.1874  114855832.924 8  89498077.76846
       259.676         202.346
  24049600.887    24049600.9334   24049604.2674  126381490.896 6  98479113.42644
     -4362.411       -3399.280
  24232933.002    24232933.2674   24232935.0774  127344915.106 7  99229827.71645
     -3877.130       -3021.140
 08  5  2 12 30 30.0000000  0 11G 2G 4G10G13G16G23G24G25G29G30G31
  21284860.696    21284860.1874   21284861.1544  111852698.256 8  87157966.93746
     -2223.033       -1732.233
  23513438.688    23513438.6504   23513442.0914  123563956.237 6  96283620.76844
     -4246.675       -3309.095
  22844823.491    22844822.6154   22844826.8824  120050334.857 7  93545756.86645
      2534.424        1974.865
  21455107.439    21455107.4434   21455109.8464  112747355.985 8  87855101.04246
        17.099          13.322
  23489844.232    23489844.0044   23489846.3914  123439967.911 7  96187012.17144
      2004.055        1561.592
  22172721.290    22172720.9154   22172721.7524  116518437.946 7  90793605.84345
     -2686.516       -2093.395
  23679348.405    23679347.9484   23679352.1424  124435794.507 7  96962994.81544
      2594.302        2021.529
  23919644.581    23919644.3204   23919647.3564  125698593.432 7  97946969.48044
      2160.850        1683.774
  21854919.829    21854919.8934   21854921.9434  114848369.750 8  89492262.30746
       238.058         185.501
  24074537.766    24074537.7624   24074540.9544  126512533.696 7  98581224.51644
     -4373.563       -3407.969
  24255102.472    24255102.6674   24255104.6424  127461416.357 7  99320607.88145
     -3889.381       -3030.693
 08  5  2 12 31  0.0000000  0 11G 2G 4G10G13G16G23G24G25G29G30G31
  21297613.026    21297612.6864   21297613.5934  111919712.724 8  87210185.99346
     -2244.531       -1748.990
  23537712.270    23537712.0764   23537715.2164  123691512.312 7  96383015.11744
     -4256.977       -3317.125
  22830394.519    22830393.5654   22830397.7944  119974509.149 7  93486671.85945
      2520.716        1964.197
  21455078.460    21455078.4444   21455080.6974  112747202.603 7  87854981.51746
        -6.798          -5.295
  23478448.335    23478447.6094   23478450.0234  123380080.190 7  96140346.41844
      1988.557        1549.517
  22188115.939    22188115.4014   22188116.3314  116599337.341 7  90856644.33445
     -2706.718       -2109.135
  23664568.218    23664567.9854   23664572.2544  124358124.280 7  96902472.48844
      2583.760        2013.310
  23907345.729    23907345.3894   23907348.4394  125633961.780 7  97896607.17044
      2147.974        1673.747
  21853621.697    21853621.8234   21853623.8554  114841548.026 7  89486946.62446
       216.760         168.906
  24099536.226    24099536.5194   24099539.5584  126643901.948 7  98683589.24244
     -4384.246       -3416.301
  24277340.158    24277340.3194   24277342.4764  127578276.718 7  99411667.89645
     -3901.199       -3039.893
 08  5  2 12 31 30.0000000  0 11G 2G 4G10G13G16G23G24G25G29G30G31
  21310487.283    21310486.9284   21310487.7784  111987367.219 8  87262903.81746
     -2265.615       -1765.413
  23562042.866    23562042.8624   23562046.1554  123819372.981 7  96482646.81544
     -4266.913       -3324.860
  22816043.294    22816042.4924   22816046.5514  119899093.887 7  93427906.80045
      2507.120        1953.590
  21455185.139    21455185.0204   21455187.3794  112747763.130 8  87855418.28846
       -30.423         -23.704
  23467139.903    23467139.6544   23467142.1254  123320655.393 7  96094041.40344
      1973.271        1537.610
  22203624.999    22203624.9084   22203625.7674  116680840.553 7  90920153.35245
     -2726.663       -2124.675
  23649847.904    23649847.2944   23649851.3874  124280767.281 7  96842194.33344
      2573.480        2005.308
  23895119.608    23895119.4684   23895122.6314  125569713.850 7  97846543.88344
      2135.331        1663.890
  21852444.552    21852444.7814   21852446.8124  114835362.650 8  89482126.84946
       195.744         152.531
  24124595.175    24124595.3944   24124598.4384  126775586.516 7  98786200.58944
     -4394.562       -3424.335
  24299644.590    24299644.6274   24299646.7844  127695486.859 7  99503000.41845
     -3912.628       -3048.800
 08  5  2 12 32  0.0000000  0 11G 2G 4G10G13G16G23G24G25G29G30G31
  21323481.563    21323481.1794   21323481.9234  112055652.630 8  87316113.23946
     -2286.728       -1781.871
  23586430.293    23586430.2574   23586433.4384  123947528.167 7  96582507.99744
     -4276.764       -3332.542
  22801769.304    22801768.6824   22801772.5214  119824083.852 7  93369457.42645
      2493.520        1943.006
  21455426.323    21455426.3814   21455428.5484  112749030.813 8  87856406.08946
       -54.091         -42.150
  23455918.927    23455918.4994   23455920.8544  123261688.441 7  96048093.14045
      1957.838        1525.585
  22219247.631    22219247.4694   22219248.3184  116762937.878 7  90984125.31045
     -2746.489       -2140.125
  23635185.561    23635185.3334   23635189.3314  124203718.282 7  96782156.18444
      2563.127        1997.233
  23882965.545    23882965.0664   23882968.6194  125505844.483 7  97796775.59844
      2122.631        1653.998
  21851387.442    21851387.5714   21851389.6054  114829807.048 8  89477797.80246
       174.622         136.067
  24149711.842    24149712.0134   24149715.0424  126907576.286 6  98889049.76044
     -4404.768       -3432.290
  24322013.636    24322013.8164   24322015.9084  127813037.076 7  99594597.93345
     -3924.008       -3057.672
 08  5  2 12 32 30.0000000  0 11G 2G 4G10G13G16G23G24G25G29G30G31
  21336595.302    21336594.9444   21336595.8624  112124566.098 8  87369812.01946
     -2307.425       -1797.992
  23610872.289    23610872.4424   23610876.0684  124075974.160 7  96682595.76744
     -4286.241       -3339.930
  22787573.091    22787572.0194   22787575.9674  119749480.588 7  93311324.99445
      2480.132        1932.574
  21455802.033    21455801.9544   21455804.3794  112751005.125 8  87857944.50046
       -77.448         -60.346
  23444785.213    23444784.7634   23444787.2804  123203180.470 7  96002502.51745
      1942.734        1513.824
  22234982.681    22234982.6234   22234983.3194  116845626.108 7  91048557.70645
     -2765.925       -2155.267
  23620582.680    23620582.3594   23620586.4254  124126978.645 7  96722359.12044
      2552.987        1989.343
  23870883.944    23870883.6044   23870886.8994  125442354.779 6  97747303.11444
      2110.143        1644.265
  21850450.253    21850450.2344   21850452.2474  114824880.860 8  89473959.19146
       153.855         119.886
  24174885.913    24174886.1874   24174889.2244  127039867.024 6  98992133.42844
     -4414.543       -3439.900
  24344446.652    24344446.8394   24344448.9844  127930923.508 7  99686457.46445
     -3935.002       -3066.238
 08  5  2 12 33  0.0000000  0 11G 2G 4G10G13G16G23G24G25G29G30G31
  21349827.152    21349826.7034   21349827.6024  112194099.269 8  87423993.67846
     -2328.087       -1814.091
  23635368.604    23635368.5544   23635371.9374  124204701.636 7  96782902.88144
     -4295.599       -3347.217
  22773452.913    22773452.0504   22773456.1614  119675279.883 7  93253506.32745
      2466.606        1922.021
  21456310.996    21456310.9914   21456313.3314  112753680.034 8  87860028.85846
      -100.856         -78.586
  23433738.106    23433737.5684   23433740.1814  123145127.363 7  95957266.34144
      1927.500        1501.946
  22250828.553    22250828.2704   22250828.9844  116928896.237 7  91113443.53945
     -2785.345       -2170.395
  23606037.461    23606036.9604   23606041.4084  124050542.982 7  96662798.83644
      2542.719        1981.346
  23858873.743    23858873.2714   23858876.7944  125379240.628 7  97698123.29144
      2097.512        1634.434
  21849631.458    21849631.4034   21849633.5364  114820578.193 8  89470606.47346
       133.006         103.641
  24200115.674    24200115.6564   24200118.7164  127172448.654 6  99095443.66843
     -4424.196       -3447.416
  24366941.911    24366941.9364   24366944.0344  128049136.302 7  99778571.31745
     -3945.852       -3074.694
 08  5  2 12 33 30.0000000  0 11G 2G 4G10G13G16G23G24G25G29G30G31
  21363176.694    21363176.3334   21363177.2444  112264251.954 8  87478658.10446
     -2348.644       -1830.108
  23659917.833    23659917.9644   23659921.2314  124333709.016 7  96883428.10744
     -4304.803       -3354.388
  22759410.335    22759409.3544   22759413.4774  119601485.271 7  93196004.04945
      2453.121        1911.529
  21456953.651    21456953.5944   21456955.8854  112757056.950 8  87862660.20846
      -124.188         -96.770
  23422778.024    23422777.5434   23422780.2044  123087532.466 7  95912387.20644
      1912.252        1490.073
  22266785.073    22266784.7504   22266785.5044  117012747.325 7  91178782.05945
     -2804.592       -2185.395
  23591550.709    23591550.2874   23591554.4634  123974415.136 7  96603478.45144
      2532.552        1973.420
  23846935.478    23846935.1884   23846938.5114  125316505.125 7  97649238.48344
      2084.900        1624.604
  21848931.749    21848931.6714   21848933.8054  114816901.159 8  89467741.27646
       112.239          87.462
  24225400.254    24225400.1894   24225402.9324  127305319.826 7  99198979.70443
     -4433.723       -3454.844
  24389498.794    24389498.9134   24389501.0874  128167673.994 7  99870938.32345
     -3956.547       -3083.020
 08  5  2 12 34  0.0000000  0 11G 2G 4G10G13G16G23G24G25G29G30G31
  21376642.266    21376641.9354   21376642.9844  112335014.739 8  87533797.93446
     -2368.812       -1845.828
  23684518.456    23684518.6604   23684521.8274  124462986.252 7  96984163.60144
     -4313.641       -3361.284
  22745444.091    22745443.2294   22745447.1494  119528091.721 7  93138814.23145
      2439.815        1901.149
  21457728.415    21457728.4644   21457730.6764  112761128.933 8  87865833.18046
      -147.260        -114.749
  23411904.463    23411904.0074   23411906.5484  123030390.886 7  95867861.31545
      1897.207        1478.341
  22282850.146    22282849.6774   22282850.3784  117097169.273 7  91244565.38745
     -2823.477       -2200.114
  23577121.647    23577121.3014   23577125.3494  123898589.597 7  96544393.60344
      2522.531        1965.613
  23835068.471    23835068.2524   23835071.6324  125254143.309 7  97600644.89944
      2072.530        1614.955
  21848349.574    21848349.5784   21848351.7794  114813842.874 8  89465358.19346
        91.699          71.455
  24250737.500    24250737.8514   24250740.9624  127438468.950 6  99302732.21243
     -4442.868       -3461.984
  24412115.648    24412115.8464   24412117.9434  128286526.012 7  99963550.27045
     -3966.822       -3091.029
 08  5  2 12 34 30.0000000  0 11G 2G 4G10G13G16G23G24G25G29G30G31
  21390222.764    21390222.5184   21390223.4104  112406380.489 8  87589407.58646
     -2388.690       -1861.313
  23709168.896    23709168.9664   23709172.3034  124592524.945 7  97085102.82844
     -4322.092       -3367.866
  22731553.191    22731552.5234   22731556.4834  119455096.294 7  93081934.64045
      2426.727        1890.959
  21458634.774    21458634.6534   21458636.9764  112765891.085 8  87869543.93846
      -170.046        -132.504
  23401116.336    23401115.9024   23401118.4844  122973699.356 7  95823686.08245
      1882.388        1466.796
  22299022.288    22299021.8424   22299022.6304  117182154.481 7  91310787.60245
     -2841.991       -2214.533
  23562749.285    23562749.0274   23562753.1014  123823062.985 7  96485541.66144
      2512.725        1957.974
  23823271.861    23823271.4794   23823274.4174  125192151.787 7  97552339.84744
      2060.407        1605.503
  21847884.555    21847884.4994   21847886.6784  114811398.758 8  89463453.69046
        71.423          55.652
  24276126.392    24276126.6104   24276129.2924  127571887.426 6  99406694.61543
     -4451.490       -3468.695
  24434790.772    24434790.7014   24434792.9724  128405684.115 7 100056400.72345
     -3976.818       -3098.815
 08  5  2 12 35  0.0000000  0 11G 2G 4G10G13G16G23G24G25G29G30G31
  21403914.789    21403914.5444   21403915.5034  112478332.241 8  87645473.86146
     -2408.091       -1876.435
  23733865.635    23733865.6844   23733868.9704  124722307.164 7  97186231.77844
     -4330.061       -3374.068
  22717735.984    22717735.1274   22717739.0744  119382485.595 7  93025354.93745
      2413.952        1881.002
  21459669.256    21459669.3384   21459671.5714  112771328.446 8  87873780.83946
      -192.481        -149.987
  23390411.566    23390411.1334   23390413.5414  122917444.860 7  95779851.41845
      1867.841        1455.458
  22315298.237    22315297.9004   22315298.7494  117267685.375 7  91377435.04545
     -2860.074       -2228.632
  23548431.632    23548431.2154   23548435.3534  123747822.250 7  96426912.48444
      2503.248        1950.583
  23811543.113    23811542.8944   23811546.2384  125130517.361 6  97504313.04444
      2048.517        1596.245
  21847533.332    21847533.4074   21847535.6574  114809553.926 8  89462016.13246
        51.548          40.172
  24301562.855    24301563.1134   24301566.2724  127705557.083 7  99510852.75643
     -4459.754       -3475.143
  24457520.450    24457520.7364   24457522.7944  128525130.069 7 100149475.43845
     -3986.266       -3106.180
 08  5  2 12 35 30.0000000  0 11G 2G 4G10G13G16G23G24G25G29G30G31
  21417718.299    21417718.0184   21417718.9464  112550869.914 8  87701996.70046
     -2427.344       -1891.436
  23758608.724    23758608.6444   23758612.1584  124852332.242 7  97287550.00144
     -4337.905       -3380.183
  22703992.513    22703992.0174   22703995.7324  119310264.195 7  92969078.53645
      2401.168        1871.037
  21460832.950    21460832.9294   21460835.1784  112777443.179 8  87878545.57746
      -214.811        -167.384
  23379790.376    23379790.0214   23379792.4794  122861631.295 7  95736360.32944
      1853.391        1444.194
  22331677.996    22331677.5744   22331678.2474  117353761.494 7  91444507.36145
     -2877.926       -2242.544
  23534168.816    23534168.6004   23534172.6814  123672871.312 7  96368509.13144
      2493.818        1943.235
  23799883.242    23799882.8284   23799886.1674  125069244.292 7  97456567.78744
      2036.676        1587.019
  21847296.756    21847296.9244   21847299.1834  114808310.871 8  89461047.51446
        31.688          24.691
  24327046.845    24327047.0444   24327049.9584  127839476.414 6  99615205.48843
     -4467.843       -3481.435
  24480304.856    24480305.2184   24480307.0494  128644863.029 7 100242773.83545
     -3995.505       -3113.372
 08  5  2 12 36  0.0000000  0 11G 2G 4G10G13G16G23G24G25G29G30G31
  21431630.182    21431629.9094   21431631.0304  112623978.016 8  87758964.03546
     -2446.371       -1906.262
  23783394.558    23783394.5894   23783398.0744  124982584.007 6  97389044.86044
     -4345.429       -3386.047
  22690321.276    22690320.6154   22690324.5594  119238421.283 7  92913097.05245
      2388.473        1861.148
  21462122.984    21462122.9634   21462125.3524  112784222.492 8  87883828.16546
      -237.008        -184.680
  23369251.427    23369250.7034   23369253.2274  122806246.956 7  95693203.68145
      1839.005        1432.990
  22348158.396    22348158.2194   22348158.6744  117440366.978 8  91511992.15045
     -2895.608       -2256.319
  23519959.273    23519958.7604   23519963.2234  123598199.007 7  96310322.89944
      2484.470        1935.949
  23788289.976    23788289.6844   23788293.2004  125008321.342 7  97409095.39044
      2024.950        1577.879
  21847172.431    21847172.5324   21847174.8544  114807657.252 7  89460538.20346
        11.991           9.344
  24352575.234    24352575.3024   24352578.5494  127973628.747 6  99719739.67543
     -4475.578       -3487.463
  24503140.870    24503140.9024   24503143.0894  128764866.443 7 100336282.95745
     -4004.549       -3120.427
 08  5  2 12 36 30.0000000  0 11G 2G 4G10G13G16G23G24G25G29G30G31
  21445651.946    21445651.7554   21445652.5274  112697662.697 8  87816380.68946
     -2465.782       -1921.387
  23808224.763    23808224.9484   23808228.3654  125113066.886 6  97490719.78644
     -4353.267       -3392.161
  22676723.818    22676723.0854   22676726.9124  119166966.301 7  92857417.87545
      2375.293        1850.875
  21463540.994    21463540.9184   21463543.1024  112791673.716 8  87889634.31746
      -259.603        -202.288
  23358795.707    23358795.0614   23358797.6024  122751302.527 7  95650389.85545
      1824.099        1421.373
  22364740.506    22364740.1264   22364740.8184  117527506.587 7  91579893.14945
     -2913.572       -2270.314
  23505804.094    23505803.9874   23505808.0014  123523814.967 7  96252361.41744
      2474.611        1928.267
  23776765.209    23776764.8924   23776768.0484  124947757.877 7  97361903.05944
      2012.739        1568.370
  21847161.985    21847161.8424   21847164.0944  114807600.729 8  89460494.14146
        -8.140          -6.345
  24378148.767    24378149.0464   24378152.2004  128108018.395 6  99824458.85743
     -4483.630       -3493.737
  24526029.342    24526029.2734   24526031.3714  128885144.933 7 100430006.39544
     -4013.861       -3127.681
 08  5  2 12 37  0.0000000  0 11G 2G 4G10G13G16G23G24G25G29G30G31
  21459781.486    21459781.0004   21459781.9554  112771912.814 8  87874237.91646
     -2484.237       -1935.767
  23833096.666    23833096.7364   23833100.2074  125243769.608 6  97592566.00744
     -4360.215       -3397.564
  22663199.022    22663198.2754   22663201.9224  119095892.561 7  92802035.75545
      2362.917        1841.239
  21465085.144    21465085.1704   21465087.4514  112799788.518 8  87895957.55146
      -281.376        -219.255
  23348422.377    23348421.8344   23348424.4444  122696790.915 7  95607913.27645
      1810.008        1410.400
  22381422.166    22381421.8364   22381422.6254  117615169.602 8  91648201.99745
     -2930.622       -2283.605
  23491702.886    23491702.6024   23491706.7814  123449711.956 7  96194618.85944
      2465.518        1921.181
  23765307.581    23765307.1464   23765310.5884  124887547.497 7  97314985.88244
      2001.303        1559.459
  21847263.189    21847263.1814   21847265.4324  114808133.258 8  89460909.09246
       -27.425         -21.369
  24403765.294    24403765.3304   24403768.2514  128242632.922 6  99929353.30543
     -4490.636       -3499.202
  24548967.573    24548967.6284   24548969.9344  129005686.832 7 100523935.09844
     -4022.231       -3134.205
 08  5  2 12 37 30.0000000  0 11G 2G 4G10G13G16G23G24G25G29G30G31
  21474017.553    21474017.0934   21474017.9854  112846723.787 8  87932532.16346
     -2502.997       -1950.385
  23858009.684    23858009.5274   23858012.7354  125374686.331 7  97694578.92944
     -4367.383       -3403.156
  22649746.703    22649745.7954   22649749.6934  119025199.476 7  92746950.20545
      2350.105        1831.248
  21466754.923    21466755.0544   21466757.2584  112808564.106 8  87902795.67146
      -303.513        -236.501
  23338131.764    23338130.9584   23338133.4144  122642711.406 7  95565773.38545
      1795.473        1399.068
  22398202.352    22398202.2474   22398202.8214  117703350.384 7  91716914.28845
     -2947.948       -2297.099
  23477654.913    23477654.4294   23477658.7374  123375889.317 7  96137094.76744
      2456.068        1913.825
  23753916.796    23753916.4704   23753919.9524  124827689.394 7  97268343.21844
      1989.403        1550.182
  21847476.105    21847475.9904   21847478.3044  114809252.131 8  89461780.92246
       -47.069         -36.681
  24429422.477    24429423.0604   24429425.8374  128377465.944 6 100034418.02343
     -4497.951       -3504.898
  24571954.986    24571955.2594   24571957.3364  129126486.282 7 100618064.49044
     -4030.905       -3140.956
 08  5  2 12 38  0.0000000  0 11G 2G 4G10G13G16G23G24G25G29G30G31
  21488361.566    21488361.1794   21488362.0784  112922103.097 8  87991269.29246
     -2522.235       -1965.377
  23882963.832    23882963.9764   23882967.1914  125505823.940 7  97796764.04544
     -4375.030       -3409.114
  22636368.689    22636368.0604   22636371.9314  118954898.972 7  92692170.60745
      2336.633        1820.756
  21468552.576    21468552.5774   21468554.7534  112818009.972 8  87910156.08346
      -326.178        -254.164
  23327924.764    23327924.3524   23327926.9764  122589075.281 7  95523978.98845
      1780.312        1387.260
  22415082.503    22415082.3024   22415083.1244  117792055.846 7  91786035.39845
     -2965.722       -2310.953
  23463662.309    23463661.9994   23463666.3244  123302358.162 7  96079797.75844
      2446.010        1905.984
  23742595.371    23742595.1314   23742598.4504  124768194.945 7  97221983.89644
      1976.927        1540.449
  21847802.271    21847802.4024   21847804.6564  114810967.477 8  89463117.57246
       -67.259         -52.414
  24455123.769    24455123.4294   24455126.9544  128512524.010 6 100139658.00743
     -4505.821       -3511.036
  24594992.725    24594992.7834   24594995.0234  129247549.605 7 100712399.48444
     -4039.952       -3148.014
 08  5  2 12 38 30.0000000  0 11G 2G 4G10G13G16G23G24G25G29G30G31
  21502814.002    21502813.6164   21502814.5414  112998051.455 8  88050449.84746
     -2540.794       -1979.841
  23907960.704    23907960.8014   23907964.2734  125637182.337 7  97899121.19944
     -4381.938       -3414.499
  22623066.898    22623065.9954   22623069.7484  118884996.260 7  92637700.97545
      2323.752        1810.713
  21470478.180    21470478.1834   21470480.3774  112828129.248 8  87918041.23146
      -348.261        -271.373
  23317803.722    23317803.0964   23317805.7054  122535887.937 7  95482534.30445
      1765.679        1375.853
  22432062.453    22432062.2654   22432062.8194  117881286.153 7  91855565.51445
     -2982.792       -2324.259
  23449726.426    23449725.9384   23449730.1714  123229123.848 7  96022732.09344
      2436.461        1898.540
  23731344.442    23731343.9124   23731347.1204  124709069.066 7  97175911.78644
      1964.958        1531.134
  21848242.846    21848242.8334   21848245.1404  114813282.433 8  89464921.44146
       -86.894         -67.711
  24480866.715    24480867.1824   24480869.9954  128647806.666 6 100245073.09143
     -4512.902       -3516.555
  24618080.518    24618080.6174   24618082.8514  129368876.872 7 100806940.15844
     -4048.317       -3154.531
 08  5  2 12 39  0.0000000  0 11G 2G 4G10G13G16G23G24G25G29G30G31
  21517373.593    21517373.0614   21517374.1224  113074562.000 8  88110068.44046
     -2559.832       -1994.672
  23932998.018    23932998.0264   23933001.5354  125768754.286 7  98001644.78844
     -4389.357       -3420.270
  22609839.923    22609839.0344   22609843.0424  118815488.916 7  92583539.43245
      2310.168        1800.127
  21472531.008    21472531.0154   21472533.2914  112838917.739 8  87926447.83746
      -370.888        -289.001
  23307767.316    23307766.8544   23307769.2884  122483146.704 7  95441437.20945
      1750.460        1363.998
  22449140.995    22449140.6184   22449141.4124  117971034.303 7  91925499.12445
     -3000.336       -2337.924
  23435846.314    23435846.0214   23435850.3344  123156183.579 7  95965895.50944
      2426.318        1890.642
  23720162.502    23720162.3574   23720165.4234  124650309.338 7  97130124.95844
      1952.472        1521.407
  21848796.757    21848796.7304   21848799.0134  114816192.890 8  89467189.27746
      -107.079         -83.440
  24506651.728    24506651.5094   24506654.5464  128783305.915 6 100350656.99343
     -4520.313       -3522.323
  24641217.208    24641217.2494   24641219.4464  129490460.438 7 100901680.55744
     -4057.148       -3161.410
 08  5  2 12 39 30.0000000  0 11G 2G 4G10G13G16G23G24G25G29G30G31
  21532039.341    21532038.9584   21532039.8994  113151631.341 8  88170122.49446
     -2577.997       -2008.831
  23958075.113    23958075.3024   23958078.6144  125900534.957 7  98104330.99044
     -4395.883       -3425.363
  22596688.326    22596687.2994   22596691.1884  118746376.878 7  92529685.87145
      2297.355        1790.150
  21474711.018    21474710.9504   21474713.4184  112850373.407 8  87935374.33146
      -392.754        -306.041
  23297815.921    23297815.3444   23297817.9714  122430851.893 7  95400687.98845
      1735.912        1352.656
  22466317.290    22466317.0784   22466317.5274  118061296.029 7  91995832.93145
     -3016.991       -2350.897
  23422021.984    23422022.0514   23422026.2324  123083537.699 7  95909288.37844
      2416.799        1883.217
  23709050.599    23709050.3754   23709053.5534  124591916.105 7  97084623.73744
      1940.533        1512.099
  21849463.604    21849463.6554   21849465.8744  114819697.775 8  89469920.38546
      -126.509         -98.583
  24532476.364    24532476.6474   24532479.3724  128919016.158 6 100456405.23243
     -4526.959       -3527.503
  24664401.670    24664401.7944   24664403.8734  129612295.325 7 100996616.81044
     -4065.098       -3167.607
 08  5  2 12 40  0.0000000  0 11G 2G 4G10G13G16G23G24G25G29G30G31
  21546811.093    21546810.6284   21546811.5284  113229257.312 8  88230610.29246
     -2596.842       -2023.520
  23983191.309    23983191.2044   23983194.8664  126032521.636 7  98207177.72044
     -4403.066       -3430.960
  22583612.571    22583611.5814   22583615.6564  118677662.453 7  92476142.20045
      2283.745        1779.541
  21477017.782    21477017.8294   21477020.1704  112862496.128 8  87944820.59846
      -415.289        -323.604
  23287949.895    23287949.4204   23287952.0124  122379005.378 7  95360288.10345
      1720.619        1340.743
  22483590.860    22483590.4514   22483591.1264  118152068.838 7  92066564.95645
     -3034.347       -2364.424
  23408254.545    23408254.0974   23408258.4624  123011187.802 7  95852911.85044
      2406.615        1875.279
  23698008.842    23698008.7484   23698011.9704  124533891.136 6  97039409.47645
      1927.891        1502.245
  21850243.657    21850243.6784   21850245.9254  114823797.224 8  89473114.76846
      -146.656        -114.281
  24558340.400    24558341.0424   24558344.1084  129054934.433 6 100562315.62043
     -4534.136       -3533.095
  24687633.311    24687633.3254   24687635.4464  129734378.559 7 101091746.59044
     -4073.604       -3174.242
 08  5  2 12 40 30.0000000  0 11G 2G 4G10G13G16G23G24G25G29G30G31
  21561688.875    21561688.5484   21561689.4974  113307440.922 8  88291532.58546
     -2615.191       -2037.818
  24008346.817    24008346.9574   24008350.8074  126164714.669 6  98310185.22544
     -4409.654       -3436.100
  22570613.105    22570612.3184   22570616.4664  118609351.247 7  92422912.70145
      2270.509        1769.231
  21479452.293    21479452.3644   21479454.5794  112875288.989 8  87954789.04546
      -437.381        -340.819
  23278170.094    23278169.4614   23278172.0104  122327612.365 7  95320241.61945
      1705.719        1329.127
  22500961.595    22500961.1484   22500961.9484  118243352.621 7  92137695.12645
     -3051.063       -2377.451
  23394543.949    23394543.4944   23394548.0114  122939138.945 7  95796769.89344
      2396.791        1867.634
  23687038.069    23687038.0794   23687041.4984  124476239.466 7  96994486.07244
      1915.688        1492.742
  21851137.636    21851137.4814   21851139.8364  114828494.294 8  89476774.86746
      -166.313        -129.601
  24584244.727    24584244.6554   24584248.0754  129191060.282 6 100668387.74243
     -4540.670       -3538.189
  24710912.007    24710911.9584   24710914.4404  129856710.009 7 101187069.76144
     -4081.637       -3180.501
 08  5  2 12 41  0.0000000  0 11G 2G 4G10G13G16G23G24G25G29G30G31
  21576670.608    21576670.1664   21576671.0544  113386170.261 8  88352880.15246
     -2633.445       -2052.038
  24033539.317    24033539.4094   24033542.9624  126297101.505 7  98413343.74144
     -4416.197       -3441.192
  22557689.144    22557688.4074   22557692.5734  118541436.002 7  92369991.67745
      2257.151        1758.824
  21482012.341    21482012.4044   21482014.6294  112888742.519 8  87965272.30746
      -459.536        -358.079
  23268475.091    23268474.7484   23268477.1314  122276665.516 7  95280542.79745
      1690.686        1317.416
  22518427.264    22518426.9804   22518427.6234  118335135.743 7  92209214.48145
     -3067.801       -2390.493
  23380889.299    23380889.1174   23380893.5544  122867383.743 7  95740856.75045
      2386.797        1859.840
  23676137.203    23676136.9174   23676140.1744  124418953.798 7  96949847.87645
      1903.317        1483.099
  21852143.176    21852143.3514   21852145.6084  114833779.788 8  89480893.44946
      -186.087        -145.007
  24610185.574    24610185.6664   24610188.5594  129327380.951 6 100774611.66143
     -4547.314       -3543.361
  24734235.931    24734235.8524   24734238.3814  129979277.499 7 101282576.84244
     -4089.560       -3186.664
 08  5  2 12 41 30.0000000  0 11G 2G 4G10G13G16G23G24G25G29G30G31
  21591756.344    21591756.0564   21591756.8544  113465446.578 8  88414653.91746
     -2651.743       -2066.297
  24058768.863    24058768.8014   24058772.3824  126429682.700 7  98516653.69344
     -4422.686       -3446.250
  22544841.728    22544840.9514   22544845.1254  118473921.931 7  92317383.22645
      2243.662        1748.315
  21484698.905    21484698.8554   21484701.1224  112902859.892 8  87976272.85446
      -481.731        -375.378
  23258866.234    23258865.6674   23258868.1534  122226169.778 7  95241195.48545
      1675.555        1305.633
  22535988.189    22535987.7414   22535988.4844  118427418.622 7  92281123.21345
     -3084.481       -2403.491
  23367291.648    23367291.4094   23367295.7234  122795927.479 7  95685176.59845
      2376.779        1852.030
  23665306.786    23665306.6324   23665309.8204  124362039.448 7  96905499.02245
      1890.838        1473.376
  21853261.679    21853261.8574   21853264.1764  114839657.958 8  89485473.85846
      -205.904        -160.448
  24636163.503    24636163.3454   24636166.8154  129463896.393 6 100880987.39343
     -4553.797       -3548.420
  24757604.379    24757604.6294   24757607.1384  130102080.994 7 101378267.84344
     -4097.447       -3192.823
 08  5  2 12 42  0.0000000  0 11G 2G 4G10G13G16G23G24G25G29G30G31
  21606945.529    21606945.0844   21606946.1514  113545266.271 7  88476851.07146
     -2669.662       -2080.258
  24084034.156    24084033.8894   24084037.8504  126562454.021 7  98620111.75644
     -4428.807       -3451.013
  22532070.925    22532070.0424   22532074.1114  118406810.346 7  92265088.59045
      2230.368        1737.936
  21487511.430    21487511.3264   21487513.5864  112917639.620 8  87987789.53546
      -503.648        -392.453
  23249343.320    23249342.7084   23249345.2704  122176126.029 7  95202200.36245
      1660.586        1293.969
  22553643.403    22553642.9114   22553643.8044  118520197.231 7  92353418.19745
     -3100.815       -2416.219
  23353751.116    23353750.6784   23353754.9734  122724770.773 7  95629729.84645
      2366.922        1844.347
  23654546.947    23654546.7194   23654549.9444  124305496.895 7  96861439.89545
      1878.554        1463.802
  21854492.646    21854492.9134   21854495.2614  114846127.279 7  89490514.91546
      -225.469        -175.690
  24662178.032    24662178.0244   24662180.7694  129600601.537 6 100987510.81143
     -4559.978       -3553.229
  24781017.451    24781017.3114   24781019.9434  130225116.192 7 101474139.40944
     -4104.959       -3198.674
 08  5  2 12 42 30.0000000  0 11G 2G 4G10G13G16G23G24G25G29G30G31
  21622237.409    21622236.9364   21622237.9644  113625625.741 8  88539468.85246
     -2687.444       -2094.112
  24109335.529    24109335.4264   24109338.9404  126695411.285 7  98723714.77844
     -4434.809       -3455.690
  22519376.497    22519375.6864   22519379.5954  118340100.785 7  92213107.24345
      2217.107        1727.619
  21490449.421    21490449.4604   21490451.6944  112933079.739 8  87999820.81346
      -525.509        -409.487
  23239906.126    23239905.7994   23239908.3984  122126534.502 7  95163557.63545
      1645.668        1282.343
  22571392.011    22571391.6064   22571392.4794  118613467.289 7  92426096.13345
     -3116.999       -2428.824
  23340267.493    23340267.0254   23340271.1344  122653913.837 7  95574516.70045
      2357.083        1836.687
  23643857.990    23643857.6974   23643860.9484  124249326.409 7  96817670.68745
      1866.299        1454.257
  21855836.262    21855836.1314   21855838.4924  114853186.113 7  89496015.31146
      -244.939        -190.862
  24688227.118    24688227.2444   24688230.2744  129737491.848 6 101094178.68243
     -4565.887       -3557.820
  24804473.555    24804473.6294   24804475.9224  130348378.630 7 101570188.07644
     -4112.300       -3204.387
 08  5  2 12 43  0.0000000  0 10G 2G 4G10G13G16G23G24G25G29G31
  21637631.628    21637631.2444   21637632.3094  113706523.326 8  88602505.95446
     -2705.603       -2108.262
  24134670.851    24134670.8774   24134674.9774  126828551.990 7  98827460.77844
     -4441.132       -3460.628
  22506759.055    22506758.3094   22506762.1434  118273796.198 7  92161441.36345
      2203.344        1716.897
  21493513.379    21493513.3534   21493515.7134  112949180.988 8  88012367.26446
      -547.774        -426.837
  23230555.751    23230555.4034   23230557.7514  122077397.525 7  95125269.10945
      1630.235        1270.316
  22589233.816    22589233.5254   22589234.4374  118707226.577 8  92499155.28745
     -3133.488       -2441.676
  23326841.311    23326840.9644   23326845.0894  122583359.024 7  95519538.93445
      2346.671        1828.573
  23633240.503    23633240.2234   23633243.4494  124193530.613 7  96774193.44945
      1853.523        1444.315
  21857291.754    21857291.8094   21857294.0584  114860835.467 8  89501975.86546
      -264.876        -206.397
  24827972.341    24827972.4104   24827974.6534  130471865.662 6 101666411.75044
     -4120.011       -3210.396
 08  5  2 12 43 30.0000000  0 10G 2G 4G10G13G16G23G24G25G29G31
  21653127.627    21653127.2304   21653128.2674  113787955.595 8  88665959.69346
     -2723.291       -2122.045
  24160040.849    24160041.0024   24160044.5184  126961872.018 6  98931346.44544
     -4446.941       -3465.146
  22494218.891    22494218.0714   22494222.1764  118207897.463 7  92110091.70345
      2189.856        1706.377
  21496702.798    21496702.8984   21496705.2004  112965941.792 8  88025427.63346
      -569.678        -443.901
  23221292.124    23221291.5094   23221294.1154  122028716.026 7  95087335.48745
      1615.117        1258.531
  22607168.049    22607167.6174   22607168.6394  118801471.261 7  92572592.64245
     -3149.537       -2454.177
  23313472.870    23313472.3864   23313476.5654  122513107.316 7  95464797.37945
      2336.665        1820.781
  23622694.429    23622693.9444   23622697.4834  124138110.123 7  96731008.66045
      1841.054        1434.583
  21858859.418    21858859.5334   21858861.8054  114869074.298 8  89508395.74446
      -284.421        -221.626
  24851513.002    24851512.8574   24851515.3004  130595572.849 6 101762806.99744
     -4127.160       -3215.972
 08  5  2 12 44  0.0000000  0 10G 2G 4G10G13G16G23G24G25G29G31
  21668724.009    21668723.5914   21668724.5404  113869915.152 7  88729824.30046
     -2741.009       -2135.854
  24185443.754    24185443.6224   24185447.6064  127095363.508 6  99035365.76644
     -4452.846       -3469.751
  22481755.314    22481754.7404   22481758.6744  118142402.255 7  92059056.56645
      2176.153        1695.703
  21500016.821    21500016.8554   21500019.2174  112983356.927 8  88038997.87146
      -591.669        -461.038
  23212114.106    23212113.7234   23212116.0874  121980486.877 7  95049754.33645
      1599.818        1246.613
  22625193.322    22625192.8804   22625193.6064  118896193.500 7  92646402.13745
     -3165.579       -2466.682
  23300161.276    23300160.8234   23300165.2234  122443155.396 7  95410289.43745
      2326.448        1812.820
  23612218.950    23612218.7044   23612221.8764  124083061.649 7  96688113.74945
      1828.467        1424.784
  21860538.432    21860538.5594   21860540.7914  114877897.346 8  89515270.83046
      -304.114        -236.968
  24875094.031    24875093.9644   24875096.5574  130719491.935 6 101859367.32144
     -4134.350       -3221.571
 08  5  2 12 44 30.0000000  0 10G 2G 4G10G13G16G23G24G25G29G31
  21684420.904    21684420.4474   21684421.3774  113952402.235 8  88794099.94846
     -2758.478       -2149.465
  24210879.022    24210879.0184   24210882.8814  127229026.269 6  99139518.51244
     -4458.433       -3474.114
  22469369.853    22469368.8774   22469372.7574  118077314.655 7  92008339.03245
      2162.640        1685.170
  21503455.857    21503455.7764   21503458.1144  113001428.591 8  88053079.68646
      -613.461        -478.024
  23203023.479    23203022.9314   23203025.4384  121932714.510 7  95012529.09145
      1584.646        1234.784
  22643308.806    22643308.5674   22643309.4624  118991392.932 7  92720583.49945
     -3181.410       -2479.021
  23286907.946    23286907.3884   23286911.5204  122373507.557 7  95356018.42345
      2316.353        1804.944
  23601815.268    23601815.0394   23601818.3394  124028389.719 7  96645512.18845
      1815.959        1415.027
  21862329.453    21862329.1994   21862331.4304  114887307.686 7  89522603.58546
      -323.604        -252.161
  24898715.218    24898715.4224   24898717.7334  130843622.673 7 101956092.57644
     -4141.310       -3226.989
 08  5  2 12 45  0.0000000  0 10G 2G 4G10G13G16G23G24G25G29G31
  21700218.631    21700218.2394   21700219.1354  114035420.515 8  88858789.54146
     -2776.187       -2163.270
  24236347.477    24236347.4104   24236350.9414  127362863.187 7  99243806.96244
     -4464.190       -3478.582
  22457062.984    22457062.2394   22457066.2774  118012642.501 7  91957945.05645
      2148.714        1674.321
  21507020.679    21507020.6054   21507022.9784  113020162.175 8  88067677.26346
      -635.545        -495.231
  23194021.152    23194020.6254   23194023.0514  121885406.649 7  94975665.81245
      1569.109        1222.683
  22661516.236    22661515.9364   22661516.7494  119087072.999 7  92795139.42745
     -3197.381       -2491.469
  23273713.430    23273713.1194   23273717.3784  122304171.610 7  95301990.42445
      2305.867        1796.779
  23591484.398    23591484.4044   23591487.8034  123974102.419 7  96603210.39845
      1803.058        1404.976
  21864232.996    21864232.8034   21864235.1024  114897311.260 8  89530398.57746
      -343.400        -267.585
  24922377.089    24922377.4694   24922379.6994  130967967.735 7 102052984.83044
     -4148.455       -3232.556
 08  5  2 12 45 30.0000000  0 10G 2G 4G10G13G16G23G24G25G29G31
  21716116.904    21716116.5294   21716117.2924  114118966.291 8  88923890.15346
     -2793.487       -2176.744
  24261848.202    24261848.4394   24261851.5064  127496870.200 7  99348227.99044
     -4469.555       -3482.764
  22444835.712    22444834.9524   22444839.0294  117948386.730 7  91907875.55545
      2135.021        1663.646
  21510711.216    21510711.3434   21510713.5994  113039556.271 8  88082789.53746
      -657.374        -512.239
  23185107.125    23185106.7534   23185109.2974  121838563.884 7  94939164.94345
      1553.783        1210.737
  22679814.233    22679813.8154   22679814.7024  119183229.199 7  92870066.34645
     -3212.959       -2503.604
  23260578.597    23260578.4134   23260582.6104  122235148.305 7  95248206.10045
      2295.679        1788.844
  23581227.324    23581227.1364   23581230.3084  123920200.015 7  96561208.52445
      1790.422        1395.135
  21866248.980    21866249.0364   21866251.3014  114907906.529 8  89538654.63946
      -362.927        -282.799
  24946079.313    24946079.6084   24946081.9184  131092522.866 6 102150040.71944
     -4155.201       -3237.817
 08  5  2 12 46  0.0000000  0 10G 2G 4G10G13G16G23G24G25G29G31
  21732115.995    21732115.6964   21732116.4214  114203042.154 7  88989403.80046
     -2811.270       -2190.598
  24287381.377    24287381.3954   24287385.1644  127631049.322 7  99452783.09244
     -4475.418       -3487.337
  22432688.903    22432688.1044   22432692.0524  117884554.589 7  91858136.24045
      2120.719        1652.514
  21514528.466    21514528.3644   21514530.6514  113059615.259 8  88098419.91346
      -679.658        -529.605
  23176283.050    23176282.7714   23176285.1524  121792192.626 7  94903031.47845
      1537.859        1198.325
  22698203.075    22698202.7734   22698203.6664  119279864.004 7  92945366.19545
     -3229.052       -2516.143
  23247504.803    23247504.4884   23247508.6474  122166444.225 7  95194670.48345
      2284.860        1780.401
  23571044.446    23571044.3694   23571047.6994  123866689.252 7  96519511.83045
      1777.185        1384.817
  21868378.542    21868378.7434   21868381.0414  114919098.467 8  89547375.63446
      -382.957        -298.409
  24969822.220    24969821.6754   24969824.3804  131217289.807 6 102247261.68644
     -4162.337       -3243.375
 08  5  2 12 46 30.0000000  0 10G 2G 4G10G13G16G23G24G25G29G31
  21748214.651    21748214.2774   21748215.1284  114287641.107 8  89055325.04746
     -2828.826       -2204.278
  24312946.249    24312946.1744   24312950.0514  127765392.966 7  99557466.37944
     -4481.085       -3491.750
  22420622.125    22420621.0844   22420625.1844  117821142.961 7  91808724.60145
      2106.543        1641.458
  21518471.009    21518471.0074   21518473.3834  113080334.311 8  88114564.62746
      -701.792        -546.849
  23167548.120    23167547.5444   23167550.2044  121746290.336 7  94867263.44845
      1522.103        1186.060
  22716681.694    22716681.4414   22716682.2994  119376969.632 7  93021032.91645
     -3244.831       -2528.440
  23234490.932    23234490.6264   23234494.7494  122098056.438 7  95141381.30745
      2274.135        1772.049
  23560935.694    23560935.6354   23560939.0454  123813567.508 7  96478118.26645
      1764.095        1374.614
  21870621.351    21870621.2954   21870623.5434  114930882.635 7  89556558.11446
      -402.832        -313.899
  24993602.921    24993603.1994   24993605.4264  131342260.535 6 102344641.44044
     -4169.212       -3248.731
 08  5  2 12 47  0.0000000  0  9G 2G 4G10G13G16G23G24G25G29
  21764413.874    21764413.6434   21764414.2344  114372768.213 7  89121657.83646
     -2846.425       -2217.987
  24338543.276    24338543.5984   24338547.0774  127899905.606 7  99662281.32044
     -4486.651       -3496.087
  22408636.941    22408636.2234   22408640.1474  117758161.547 7  91759648.18145
      2092.114        1630.226
  21522540.665    21522540.7844   21522542.9124  113101720.211 8  88131228.97046
      -724.043        -564.186
  23158904.181    23158903.7864   23158906.2854  121700866.255 7  94831868.08545
      1506.087        1173.577
  22735250.683    22735250.4264   22735251.3954  119474550.755 7  93097070.16445
     -3260.660       -2540.769
  23221539.201    23221538.8004   23221543.0814  122029994.259 7  95088345.82445
      2263.197        1763.531
  23550902.907    23550902.4854   23550905.8134  123760843.830 7  96437034.88645
      1750.759        1364.234
  21872977.672    21872977.7264   21872980.0144  114943266.263 7  89566207.73046
      -422.844        -329.486
 08  5  2 12 47 30.0000000  0 10G 2G 4G 7G10G13G16G23G24G25G29
  21780713.058    21780712.7014   21780713.2844  114458420.521 8  89188399.88446
     -2863.470       -2231.278
  24364171.732    24364171.8884   24364175.3864  128034584.161 6  99767225.60144
     -4491.752       -3500.082
  24871050.319    24871050.4624   24871053.7714  130698258.183 6 101842817.61444
      2882.265        2245.921
  22396734.488    22396733.4774   22396737.5494  117695612.308 7  91710908.48845
      2078.091        1619.290
  21526736.993    21526737.0174   21526739.2424  113123772.018 8  88148412.18946
      -745.836        -581.171
  23150351.285    23150350.9044   23150353.6104  121655921.557 7  94796846.25145
      1490.457        1161.393
  22753910.017    22753909.2604   22753910.1814  119572603.814 7  93173475.16745
     -3275.983       -2552.712
  23208649.822    23208649.2564   23208653.5864  121962259.144 7  95035565.25045
      2252.679        1755.328
  23540945.818    23540945.5074   23540949.1454  123708519.547 7  96396262.71545
      1737.776        1354.109
  21875448.213    21875448.2654   21875450.4454  114956249.005 8  89576324.17846
      -442.437        -344.761
 08  5  2 12 48  0.0000000  0 10G 2G 4G 7G10G13G16G23G24G25G29
  21797109.867    21797109.4944   21797110.1514  114544586.214 8  89255541.98946
     -2881.075       -2244.988
  24389829.851    24389829.5704   24389833.2374  128169416.396 7  99872289.64444
     -4497.322       -3504.403
  24854613.845    24854613.8314   24854616.9454  130611884.048 6 101775513.14044
      2875.816        2240.900
  22384912.371    22384911.6084   22384915.3634  117633487.138 7  91662499.29445
      2063.403        1607.845
  21531058.243    21531058.0954   21531060.4434  113146479.847 8  88166106.60146
      -768.192        -598.584
  23141888.569    23141888.0964   23141890.7744  121611448.974 7  94762192.29345
      1474.192        1148.722
  22772656.228    22772655.7544   22772656.5804  119671116.770 7  93250238.49445
     -3291.762       -2565.004
  23195820.745    23195820.3674   23195824.7814  121894843.474 7  94983033.57545
      2241.519        1746.640
  23531063.398    23531063.1784   23531066.6594  123656587.253 7  96355795.99645
      1724.185        1343.526
  21878030.850    21878030.8764   21878033.1044  114969821.180 8  89586899.91846
      -462.586        -360.451
 08  5  2 12 48 30.0000000  0 10G 2G 4G 7G10G13G16G23G24G25G29
  21513813.578    21513813.3094   21513814.0234  113055854.827 8  88095491.52346
     -2897.906       -2258.109
  24115726.014    24115726.1084   24115729.8434  126728992.819 7  98749881.66644
     -4502.080       -3508.117
  24538420.124    24538420.1884   24538423.2214  128950275.967 6 100480753.71944
      2869.895        2236.265
  22073380.478    22073379.5954   22073383.4484  115996375.285 7  90386827.83545
      2049.309        1596.855
  21235713.318    21235713.3314   21235715.6734  111594432.903 8  86956719.37746
      -789.895        -615.503
  22833724.705    22833724.2114   22833726.8554  119992037.344 7  93500313.11545
      1458.522        1136.513
  22491699.268    22491698.8564   22491699.7014  118194678.819 7  92099767.36745
     -3306.770       -2576.704
  22883262.117    22883261.6064   22883265.8784  120252336.027 7  93703157.65345
      2230.886        1738.352
  23221465.232    23221464.7714   23221467.8244  122029635.937 7  95088041.76045
      1711.149        1333.358
  21580935.219    21580935.0494   21580937.3324  113408572.163 8  88370342.26946
      -482.091        -375.660
 08  5  2 12 49  0.0000000  0 10G 2G 4G 7G10G13G16G23G24G25G29
  21530405.628    21530405.3744   21530406.0164  113143046.639 8  88163433.16246
     -2915.052       -2271.469
  24141441.822    24141442.0004   24141445.6634  126864130.141 6  98855183.46244
     -4507.216       -3512.117
  24522054.021    24522053.9564   24522057.2804  128864270.632 7 100413736.73744
      2863.569        2231.344
  22061722.155    22061721.4324   22061725.1524  115935111.472 7  90339089.90145
      2034.755        1585.524
  21240285.204    21240285.2764   21240287.5624  111618457.864 8  86975440.12746
      -811.948        -632.688
  22825443.567    22825443.2054   22825445.8074  119948519.869 7  93466403.40245
      1442.415        1123.953
  22510620.064    22510619.8544   22510620.7854  118294109.297 7  92177245.66345
     -3322.077       -2588.631
  22870557.281    22870556.8414   22870561.1424  120185571.598 7  93651133.42845
      2219.865        1729.766
  23211734.261    23211733.8764   23211736.8664  121978499.389 7  95048195.13645
      1697.722        1322.896
  21583743.497    21583743.3184   21583745.4494  113423329.710 8  88381841.69446
      -501.938        -391.121
 08  5  2 12 49 30.0000000  0 10G 2G 4G 7G10G13G16G23G24G25G29
  21547094.390    21547094.0574   21547094.5254  113230746.033 8  88231770.30946
     -2931.702       -2284.441
  24167185.412    24167185.3714   24167189.0034  126999413.806 6  98960599.26144
     -4511.894       -3515.764
  24505723.148    24505723.1204   24505725.9874  128778450.771 7 100346864.11344
      2857.529        2226.637
  22050146.080    22050145.3354   22050148.9564  115874279.292 7  90291688.28445
      2020.543        1574.449
  21244981.834    21244981.7564   21244984.1354  111643138.678 8  86994671.92946
      -833.599        -649.558
  22817253.748    22817253.2554   22817255.8094  119905481.041 7  93432866.64845
      1426.665        1111.685
  22529627.186    22529626.9364   22529627.9834  118393992.381 7  92255076.66345
     -3336.925       -2600.198
  22857914.594    22857914.1914   22857918.5054  120119133.700 7  93599363.62745
      2209.118        1721.381
  23202078.857    23202078.7234   23202081.8794  121927761.290 7  95008658.98345
      1684.633        1312.696
  21586663.857    21586663.9904   21586666.1424  113438677.757 7  88393801.20346
      -521.403        -406.288
 08  5  2 12 50  0.0000000  0 10G 2G 4G 7G10G13G16G23G24G25G29
  21563877.968    21563877.4284   21563878.1634  113318944.022 8  88300495.97446
     -2948.068       -2297.196
  24192955.390    24192955.1624   24192958.9584  127134834.601 6  99066121.90744
     -4516.128       -3519.056
  24489426.392    24489426.2674   24489429.3914  128692812.895 6 100280133.41744
      2851.725        2222.126
  22038651.292    22038650.5234   22038654.4904  115813874.024 7  90244619.26245
      2006.543        1563.542
  21249801.983    21249801.9224   21249804.2984  111668468.354 8  87014409.33646
      -854.977        -666.220
  22809153.902    22809153.3284   22809155.8454  119862916.123 7  93399699.17645
      1411.054        1099.525
  22548718.775    22548718.3234   22548719.3644  118494318.542 7  92333252.88845
     -3351.406       -2611.487
  22845333.116    22845332.6614   22845336.9134  120053017.801 7  93547844.78845
      2198.639        1713.221
  23192498.752    23192498.4554   23192501.3454  121877417.082 7  94969429.74745
      1671.653        1302.587
  21589695.825    21589695.8384   21589698.0004  113454609.948 8  88406215.86846
      -540.651        -421.288
 08  5  2 12 50 30.0000000  0 10G 2G 4G 7G10G13G16G23G24G25G29
  21580753.892    21580753.4194   21580754.1684  113407627.159 8  88369599.72146
     -2964.101       -2309.685
  24218748.525    24218748.4794   24218752.2934  127270378.594 7  99171740.60444
     -4520.121       -3522.174
  24473162.804    24473162.7804   24473165.7134  128607347.604 6 100213537.10344
      2845.952        2217.629
  22027236.120    22027235.2444   22027239.0714  115753886.522 7  90197875.75445
      1992.650        1552.717
  21254743.191    21254743.0654   21254745.4464  111694434.878 8  87034642.98346
      -876.130        -682.695
  22801142.149    22801141.8634   22801144.3314  119820815.369 7  93366893.40145
      1395.652        1087.523
  22567891.903    22567891.5644   22567892.3644  118595073.771 7  92411763.44445
     -3365.596       -2622.542
  22832810.980    22832810.7214   22832814.9074  119987214.051 7  93496569.15345
      2188.272        1705.144
  23182991.836    23182991.4864   23182994.5364  121827457.704 7  94930500.38045
      1658.936        1292.681
  21592836.524    21592836.4444   21592838.7354  113471114.493 8  88419076.54146
      -559.631        -436.078
 08  5  2 12 51  0.0000000  0 10G 2G 4G 7G10G13G16G23G24G25G29
  21597724.137    21597723.5454   21597724.1654  113496804.994 7  88439088.92146
     -2980.926       -2322.798
  24244566.503    24244566.9264   24244570.3964  127406054.610 7  99277462.07444
     -4524.845       -3525.850
  24456934.513    24456935.0124   24456938.3084  128522069.720 7 100147086.83044
      2839.322        2212.453
  22015903.195    22015902.2824   22015906.2144  115694330.928 7  90151468.79045
      1977.850        1541.178
  21259807.807    21259807.7444   21259810.1654  111721049.782 8  87055381.85546
      -898.091        -699.809
  22793221.736    22793221.2314   22793223.7444  119779192.866 7  93334460.28445
      1379.311        1074.790
  22587148.489    22587148.0404   22587148.9114  118696267.330 7  92490615.54645
     -3380.528       -2634.181
  22820351.022    22820350.7904   22820354.8044  119921736.783 7  93445547.93845
      2176.995        1696.359
  23173560.330    23173560.2524   23173563.3084  121777896.648 7  94891881.39945
      1645.244        1282.005
  21596088.401    21596088.3684   21596090.7714  113488203.580 7  88432392.68846
      -579.505        -451.564
 08  5  2 12 51 30.0000000  0 10G 2G 4G 7G10G13G16G23G24G25G29
  21614788.506    21614788.0314   21614788.8734  113586479.929 8  88508965.48246
     -2997.699       -2335.871
  24270410.841    24270410.7064   24270414.3824  127541865.065 7  99383288.29644
     -4529.508       -3529.480
  24440744.278    24440744.1724   24440747.2494  128436986.669 6 100080788.42344
      2832.552        2207.178
  22004653.644    22004652.6844   22004656.5364  115635214.522 7  90105404.05045
      1962.898        1529.529
  21264996.606    21264996.7404   21264998.9874  111748317.525 8  87076629.42346
      -920.067        -716.932
  22785393.660    22785392.9564   22785395.6594  119738055.197 7  93302404.96945
      1362.883        1061.988
  22606488.695    22606488.4074   22606489.2504  118797901.451 7  92569810.95445
     -3395.366       -2645.736
  22807954.609    22807954.2254   22807958.2264  119856592.849 7  93394786.42945
      2165.618        1687.494
  23164206.250    23164206.1854   23164209.2614  121728740.725 7  94853578.10745
      1631.464        1271.270
  21599452.485    21599452.4524   21599454.8944  113505882.083 7  88446168.13046
      -599.370        -467.041
 08  5  2 12 52  0.0000000  0 11G 2G 4G 7G10G13G16G23G24G25G27G29
  21631948.789    21631948.3674   21631949.1984  113676658.152 7  88579234.20846
     -3014.173       -2348.706
  24296281.577    24296281.7244   24296285.2964  127677816.061 7  99489224.01844
     -4533.879       -3532.906
  24424592.658    24424592.6504   24424595.7734  128352109.646 6 100014650.51844
      2825.895        2201.996
  21993489.448    21993488.7494   21993492.7564  115576548.023 7  90059689.94045
      1948.185        1518.070
  21270311.301    21270311.3944   21270313.8754  111776246.504 8  87098392.24346
      -941.835        -733.897
  22777659.299    22777658.9434   22777661.6364  119697412.617 7  93270735.44345
      1346.581        1049.279
  22625913.995    22625913.6944   22625914.4864  118899981.302 7  92649353.68445
     -3409.938       -2657.095
  22795623.488    22795623.0714   22795627.3654  119791792.841 7  93344292.95445
      2154.402        1678.749
  23154931.282    23154930.8904   23154934.2344  121680000.508 7  94815598.76845
      1617.863        1260.671
  24846814.144    24846813.8834   24846818.3634  130570895.271 6 101743574.63443
      2506.476        1953.105
  21602930.433    21602930.2954   21602932.7444  113524158.408 8  88460409.45046
      -619.019        -482.354
 08  5  2 12 52 30.0000000  0 11G 2G 4G 7G10G13G16G23G24G25G27G29
  21649204.804    21649204.4034   21649205.3244  113767339.528 7  88649894.97846
     -3030.873       -2361.718
  24322178.900    24322178.7054   24322182.7224  127813907.351 6  99595269.15344
     -4538.478       -3536.476
  24408481.110    24408481.0764   24408484.2284  128267443.216 7  99948676.70644
      2818.838        2196.501
  21982412.094    21982411.2154   21982415.1334  115518335.349 7  90014329.43045
      1933.017        1506.247
  21275752.081    21275752.2314   21275754.5314  111804837.707 8  87120671.07446
      -963.879        -751.072
  22770020.438    22770019.8874   22770022.7064  119657269.329 7  93239454.97845
      1329.950        1036.320
  22645424.066    22645423.6504   22645424.3754  119002506.936 7  92729243.78745
     -3424.690       -2668.585
  22783358.630    22783358.2904   22783362.4904  119727340.773 7  93294070.59145
      2142.781        1669.699
  23145736.112    23145735.9834   23145739.1994  121631679.946 7  94777946.42045
      1603.846        1249.745
  24832521.022    24832520.6304   24832524.9384  130495784.926 6 101685047.22743
      2501.264        1949.026
  21606522.324    21606522.2994   21606524.7874  113543034.808 8  88475118.35546
      -639.038        -497.948
 08  5  2 12 53  0.0000000  0 11G 2G 4G 7G10G13G16G23G24G25G27G29
  21666555.418    21666555.1304   21666555.9444  113858517.984 8  88720943.07546
     -3047.632       -2374.776
  24348101.460    24348101.3674   24348105.6544  127950132.124 7  99701418.34444
     -4543.110       -3540.103
  24392409.419    24392409.4574   24392412.4304  128182986.154 7  99882866.04144
      2811.644        2190.890
  21971420.594    21971419.8504   21971423.5024  115460574.744 7  89969321.19345
      1917.696        1494.308
  21281317.962    21281318.0954   21281320.5654  111834086.922 8  87143462.65646
      -986.016        -768.324
  22762476.037    22762475.5654   22762478.2274  119617623.335 7  93208562.01445
      1313.131        1023.220
  22665017.361    22665017.0934   22665017.9064  119105471.537 7  92809475.93545
     -3439.492       -2680.123
  22771159.680    22771159.4114   22771163.5064  119663234.619 7  93244117.79345
      2131.005        1660.521
  23136620.564    23136620.4054   23136623.5924  121583777.246 7  94740619.70945
      1589.651        1238.682
  24818257.487    24818257.1274   24818261.1874  130420828.063 6 101626639.28043
      2495.830        1944.801
  21610227.553    21610227.7584   21610230.0894  113562506.957 8  88490291.43246
      -659.108        -513.595
 08  5  2 12 53 30.0000000  0 11G 2G 4G 7G10G13G16G23G24G25G27G29
  21684001.427    21684001.1984   21684002.1214  113950198.213 7  88792382.22746
     -3064.380       -2387.827
  24374050.608    24374050.6314   24374054.4644  128086494.637 6  99807674.77744
     -4547.716       -3543.682
  24376379.453    24376379.4684   24376382.1114  128098747.966 6  99817225.93044
      2804.252        2185.134
  21960516.845    21960515.9954   21960519.7344  115403275.402 7  89924672.36345
      1902.255        1482.274
  21287010.497    21287010.4874   21287012.8044  111864000.475 8  87166771.90946
     -1008.190        -785.605
  22755027.838    22755027.5264   22755030.1504  119578483.391 7  93178063.37745
      1296.189        1010.016
  22684695.359    22684695.0454   22684695.6734  119208879.178 7  92890053.28645
     -3454.295       -2691.663
  22759028.370    22759027.9134   22759031.9984  119599483.711 7  93194441.77445
      2119.062        1651.215
  23127586.285    23127585.8274   23127588.9604  121536301.125 7  94703625.34945
      1575.407        1227.592
  24804024.128    24804023.4084   24804028.2464  130346034.061 6 101568358.25143
      2490.395        1940.576
  21614047.816    21614047.8514   21614050.2974  113582582.146 8  88505934.45646
      -679.210        -529.252
 08  5  2 12 54  0.0000000  0 11G 2G 4G 7G10G13G16G23G24G25G27G29
  21701541.956    21701541.5924   21701542.5734  114042373.826 7  88864207.36945
     -3080.656       -2400.510
  24400024.444    24400024.3184   24400028.2984  128222989.088 7  99914034.13744
     -4551.848       -3546.890
  24360390.683    24360390.7444   24360393.7754  128014727.590 7  99751755.58444
      2797.111        2179.566
  21949700.590    21949699.8534   21949703.6524  115346435.692 7  89880381.70245
      1887.071        1470.451
  21292828.431    21292828.6144   21292830.8504  111894574.182 8  87190595.56346
     -1030.064        -802.645
  22747675.885    22747675.3914   22747677.9614  119539847.841 7  93147957.77645
      1279.542         997.048
  22704456.171    22704455.8124   22704456.6814  119312723.149 7  92970970.65445
     -3468.646       -2702.844
  22746963.977    22746963.6454   22746967.9034  119536085.929 7  93145040.89945
      2107.457        1642.171
  23118632.824    23118632.4304   23118635.4304  121489249.751 7  94666961.97545
      1561.349        1216.636
  24789822.033    24789821.7204   24789826.0394  130271401.264 6 101510202.83743
      2485.063        1936.413
  21617982.350    21617982.1494   21617984.4854  113603256.369 8  88522044.24246
      -699.050        -544.715
 08  5  2 12 54 30.0000000  0 11G 2G 4G 7G10G13G16G23G24G25G27G29
  21719176.465    21719176.0744   21719177.3054  114135044.102 7  88936417.96946
     -3097.268       -2413.458
  24426023.323    24426023.1024   24426027.0294  128359613.748 7 100020494.88944
     -4556.365       -3550.409
  24344444.376    24344444.5134   24344447.5124  127930929.153 7  99686458.14044
      2789.496        2173.631
  21938972.339    21938971.5944   21938975.2554  115290059.245 7  89836452.03745
      1871.407        1458.242
  21298772.359    21298772.4364   21298774.6594  111925809.218 8  87214934.54946
     -1052.228        -819.921
  22740420.255    22740419.7664   22740422.6054  119501719.817 7  93118247.65245
      1262.395         983.680
  22724299.925    22724299.4784   22724300.2344  119417002.599 7  93052227.34045
     -3483.293       -2714.259
  22734967.805    22734967.3374   22734971.5414  119473044.981 7  93095918.07345
      2095.344        1632.736
  23109760.677    23109760.2664   23109763.4024  121442626.771 7  94630632.41645
      1546.869        1205.351
  24775651.353    24775651.1594   24775655.4314  130196933.774 6 101452176.40743
      2479.464        1932.038
  21622030.648    21622030.6184   21622032.9344  113624530.997 7  88538621.87446
      -719.230        -560.445
 08  5  2 12 55  0.0000000  0 11G 2G 4G 7G10G13G16G23G24G25G27G29
  21736905.689    21736905.0884   21736906.1984  114228210.719 7  89009015.30146
     -3114.054       -2426.535
  24452047.441    24452047.3354   24452051.0704  128496370.017 6 100127058.12644
     -4560.924       -3553.960
  24328541.820    24328541.9024   24328544.5794  127847359.488 7  99621338.91844
      2781.583        2167.467
  21928333.548    21928332.8044   21928336.6454  115234152.283 7  89792888.18545
      1855.490        1445.843
  21304842.608    21304842.5474   21304844.8764  111957708.602 8  87239791.19846
     -1074.646        -837.384
  22733262.425    22733261.8354   22733264.2934  119464104.988 7  93088937.41145
      1244.986         970.118
  22744226.901    22744226.5104   22744227.0634  119521718.990 7  93133824.50445
     -3498.051       -2725.754
  22723040.582    22723040.1214   22723044.0834  119410366.969 7  93047078.10645
      2082.972        1623.096
  23100970.947    23100970.8724   23100973.9074  121396437.938 7  94594641.12245
      1532.132        1193.872
  24761513.017    24761512.4724   24761516.9114  130122637.264 6 101394283.10644
      2473.406        1927.311
  21626193.931    21626193.9704   21626196.3864  113646409.873 8  88555670.33246
      -739.604        -576.313
 08  5  2 12 55 30.0000000  0 11G 2G 4G 7G10G13G16G23G24G25G27G29
  21754730.038    21754729.5884   21754730.6134  114321878.455 7  89082003.10546
     -3130.485       -2439.335
  24478096.974    24478097.1534   24478100.8454  128633262.977 7 100233727.97244
     -4565.275       -3557.353
  24312684.433    24312684.1104   24312687.2124  127764028.250 7  99556405.52844
      2773.782        2161.388
  21917786.071    21917785.2254   21917789.0774  115178724.069 7  89749697.39345
      1839.715        1433.552
  21311040.751    21311040.5534   21311042.9164  111990279.048 8  87265170.76946
     -1096.739        -854.604
  22726203.824    22726203.4554   22726205.8154  119427012.402 7  93060034.14045
      1227.811         956.731
  22764237.580    22764237.1384   22764238.0164  119626876.263 7  93215765.23245
     -3512.446       -2736.972
  22711183.863    22711183.6384   22711187.7594  119348060.930 7  92998527.96645
      2070.739        1613.558
  23092265.781    23092265.7134   23092268.5684  121350692.203 7  94558995.10145
      1517.536        1182.500
  24747409.350    24747408.7454   24747412.6744  130048521.118 6 101336530.46944
      2467.659        1922.847
  21630473.878    21630473.7714   21630476.0464  113668899.926 7  88573195.04746
      -759.752        -592.014
 08  5  2 12 56  0.0000000  0 11G 2G 4G 7G10G13G16G23G24G25G27G29
  21772649.035    21772648.5314   21772649.6684  114416043.156 7  89155378.14746
     -3147.039       -2452.243
  24504172.340    24504172.0564   24504176.0524  128770288.235 7 100340500.90144
     -4569.634       -3560.752
  24296872.278    24296872.2064   24296875.1854  127680935.792 7  99491658.21144
      2765.754        2155.128
  21907329.373    21907328.5664   21907332.2694  115123774.488 7  89706879.55245
      1823.723        1421.083
  21317365.675    21317365.6614   21317368.0484  112023517.799 8  87291071.07646
     -1119.038        -871.980
  22719244.858    22719244.3094   22719246.6634  119390442.056 7  93031537.79145
      1210.358         943.133
  22784330.985    22784330.8014   22784331.8564  119732469.747 7  93298045.85945
     -3526.979       -2748.300
  22699398.473    22699398.0454   22699402.1774  119286127.122 7  92950267.90145
      2058.288        1603.858
  23083645.164    23083644.7344   23083647.6974  121305389.795 7  94523694.55645
      1502.724        1170.955
  24733339.524    24733339.0534   24733343.6754  129974585.294 6 101278918.26144
      2461.540        1918.082
  21634869.419    21634869.4534   21634871.7244  113691999.346 8  88591194.57746
      -780.062        -607.840
 08  5  2 12 56 30.0000000  0 11G 2G 4G 7G10G13G16G23G24G25G27G29
  21790661.862    21790661.5454   21790662.6114  114510701.644 7  89229138.00046
     -3163.544       -2465.096
  24530271.625    24530271.6694   24530275.2914  128907441.651 7 100447373.63744
     -4573.898       -3564.080
  24281106.138    24281106.0524   24281108.9574  127598084.022 7  99427098.45144
      2757.673        2148.830
  21896964.287    21896963.2524   21896967.0994  115069305.078 7  89664435.87845
      1807.557        1408.484
  21323817.844    21323817.6454   21323820.0964  112057423.582 8  87317491.15646
     -1141.330        -889.349
  22712384.944    22712384.6184   22712387.1204  119354394.878 7  93003449.11945
      1192.795         929.444
  22804507.408    22804506.9144   22804507.8154  119838496.059 7  93380663.75545
     -3541.422       -2759.548
  22687683.823    22687683.4114   22687687.4434  119224566.415 7  92902298.58045
      2045.748        1594.086
  23075108.651    23075108.5514   23075111.6024  121260531.534 7  94488740.09145
      1487.808        1159.324
  24719305.016    24719304.1284   24719308.1814  129900830.970 6 101221447.44043
      2455.376        1913.272
  21639380.772    21639380.9224   21639383.1694  113715706.856 8  88609667.97646
      -800.427        -623.711
 08  5  2 12 57  0.0000000  0 11G 2G 4G 7G10G13G16G23G24G25G27G29
  21808769.396    21808768.9594   21808770.0694  114605856.839 7  89303284.88545
     -3180.179       -2478.062
  24556395.951    24556396.2624   24556400.0304  129044726.680 7 100554348.94044
     -4578.436       -3567.615
  24265387.388    24265387.1574   24265390.0244  127515480.973 7  99362732.42344
      2749.144        2142.194
  21886691.813    21886691.1894   21886694.7524  115015323.342 7  89622372.22645
      1791.160        1395.712
  21330397.515    21330397.5984   21330399.8524  112092000.949 8  87344434.54246
     -1163.854        -906.904
  22705626.520    22705625.8644   22705628.5084  119318878.135 7  92975773.76345
      1174.913         915.512
  22824766.284    22824765.9194   22824766.7314  119944957.470 7  93463620.68145
     -3556.015       -2770.917
  22676041.528    22676041.2504   22676045.5134  119163386.307 7  92854625.78045
      2032.857        1584.043
  23066658.579    23066658.1444   23066661.2264  121216124.845 7  94454137.50445
      1472.550        1147.440
  24705305.392    24705305.0874   24705309.0754  129827266.077 7 101164124.24744
      2448.865        1908.201
  21644008.968    21644008.9084   21644011.2534  113740027.684 8  88628619.26846
      -820.993        -639.738
 08  5  2 12 57 30.0000000  0 11G 2G 4G 7G10G13G16G23G24G25G27G29
  21826969.320    21826968.8544   21826969.8974  114701497.252 7  89377809.87546
     -3196.004       -2490.396
  24582543.513    24582543.3264   24582547.2574  129182132.254 7 100661418.28544
     -4582.097       -3570.461
  24249714.471    24249714.6934   24249717.3234  127433120.601 7  99298555.52244
      2741.297        2136.070
  21876511.063    21876510.0294   21876513.8724  114961822.444 7  89580683.24645
      1775.407        1383.427
  21337103.574    21337103.5364   21337105.7774  112127240.365 8  87371893.82546
     -1185.640        -923.879
  22698967.530    22698967.1214   22698969.2994  119283884.657 7  92948506.14345
      1157.803         902.179
  22845105.669    22845105.6234   22845106.4094  120051842.604 7  93546907.78645
     -3569.815       -2781.667
  22664470.474    22664470.0334   22664474.2824  119102580.330 7  92807244.53045
      2020.675        1574.555
  23058292.620    23058292.4664   23058295.5324  121172162.674 7  94419881.28145
      1458.039        1136.136
  24691341.095    24691340.6604   24691344.8134  129753883.583 6 101106943.15744
      2443.069        1903.687
  21648751.779    21648751.8694   21648754.1864  113764952.554 7  88648041.23746
      -840.829        -655.188
 08  5  2 12 58  0.0000000  0 11G 2G 4G 7G10G13G16G23G24G25G27G29
  21845259.587    21845259.3264   21845260.3594  114797614.500 7  89452706.45946
     -3211.999       -2502.851
  24608711.736    24608711.8914   24608715.7934  129319648.560 6 100768573.73044
     -4585.847       -3573.370
  24234087.304    24234087.4254   24234090.3764  127350999.468 7  99234565.07244
      2733.196        2129.761
  21866420.669    21866419.9134   21866423.7114  114908798.102 7  89539365.59745
      1759.371        1370.939
  21343934.008    21343934.0194   21343936.2924  112163134.559 8  87399863.32546
     -1207.547        -940.946
  22692407.112    22692406.6514   22692408.9484  119249409.856 7  92921642.68845
      1140.319         888.561
  22865524.231    22865523.8064   22865524.7184  120159142.230 7  93630517.87145
     -3583.688       -2792.477
  22652970.088    22652969.5684   22652973.6424  119042144.237 7  92760151.49145
      2008.186        1564.819
  23050010.715    23050010.4754   23050013.5164  121128640.586 7  94385967.97545
      1443.221        1124.589
  24677410.892    24677410.2354   24677414.7064  129680679.520 6 101049901.10743
      2436.983        1898.951
  21653608.738    21653608.7064   21653611.1044  113790475.428 8  88667929.16946
      -860.893        -670.822
 08  5  2 12 58 30.0000000  0 11G 2G 4G 7G10G13G16G23G24G25G27G29
  21863642.568    21863642.2614   21863643.3204  114894217.232 7  89527981.28246
     -3228.007       -2515.328
  24634903.215    24634903.5294   24634907.3044  129457284.786 7 100875822.67344
     -4589.725       -3576.400
  24218508.136    24218508.2974   24218511.2874  127269130.986 7  99170771.50144
      2724.802        2123.220
  21856423.680    21856422.8634   21856426.5934  114856263.481 7  89498429.53945
      1743.091        1358.251
  21350891.069    21350890.9594   21350893.1784  112199693.939 8  87428351.16146
     -1229.618        -958.145
  22685947.818    22685947.2364   22685949.7534  119215466.578 7  92895193.40145
      1122.697         874.827
  22886023.134    22886022.8364   22886023.9004  120266864.893 7  93714457.60645
     -3597.635       -2803.354
  22641541.887    22641541.7084   22641545.9614  118982090.824 7  92713356.62845
      1995.497        1554.932
  23041814.948    23041814.6144   23041817.8594  121085571.624 7  94352407.76045
      1428.197        1112.875
  24663516.994    24663516.6984   24663520.4064  129607667.116 6 100993008.42943
      2430.673        1894.019
  21658581.429    21658581.3134   21658583.6924  113816606.942 7  88688291.39546
      -881.074        -686.552
 08  5  2 12 59  0.0000000  0 11G 2G 4G 7G10G13G16G23G24G25G27G29
  21882114.915    21882114.5074   21882115.5444  114991289.684 7  89603622.13045
     -3243.667       -2527.532
  24661114.801    24661114.6694   24661118.7304  129595025.240 6 100983152.82844
     -4593.119       -3579.050
  24202975.312    24202975.2744   24202977.9774  127187504.708 7  99107166.65144
      2716.700        2116.910
  21846517.623    21846516.9504   21846520.7524  114804207.663 7  89457866.57745
      1727.078        1345.771
  21357972.077    21357972.0894   21357974.2104  112236904.912 8  87457346.73846
     -1251.306        -975.046
  22679587.812    22679587.0884   22679589.6094  119182043.597 7  92869149.53345
      1105.288         861.266
  22906599.771    22906599.5694   22906599.8794  120374994.533 7  93798714.44945
     -3611.189       -2813.916
  22630185.133    22630184.6274   22630188.8734  118922409.014 7  92666851.32745
      1983.077        1545.254
  23033703.220    23033703.1404   23033706.0444  121042944.365 7  94319191.74245
      1413.431        1101.372
  24649657.095    24649656.7914   24649661.4024  129534835.218 6 100936256.37443
      2424.570        1889.270
  21663667.246    21663667.2934   21663669.6844  113843333.530 8  88709117.28346
      -900.921        -702.022
 08  5  2 12 59 30.0000000  0 11G 2G 4G 7G10G13G16G23G24G25G27G29
  21900678.109    21900677.6744   21900678.6534  115088839.355 7  89679634.86346
     -3259.545       -2539.905
  24687346.819    24687346.7184   24687351.1434  129732877.252 6 101090569.94244
     -4596.849       -3581.969
  24187490.500    24187490.5664   24187493.6474  127106133.010 7  99043760.17644
      2708.207        2110.287
  21836705.353    21836704.5194   21836708.1674  114752642.444 7  89417685.87945
      1710.713        1333.025
  21365178.681    21365178.7144   21365180.8674  112274776.011 8  87486856.68346
     -1273.249        -992.143
  22673328.422    22673328.1074   22673330.7724  119149152.166 7  92843519.85945
      1087.569         847.460
  22927254.901    22927254.5984   22927255.4984  120483538.080 7  93883293.82245
     -3624.919       -2824.612
  22618900.933    22618900.4254   22618904.5144  118863110.619 7  92620644.81845
      1970.298        1535.301
  23025677.671    23025677.6684   23025680.7084  121000770.503 7  94286328.99945
      1398.283        1089.567
  24635834.649    24635834.1194   24635838.0564  129462195.951 6 100879654.37544
      2418.173        1884.290
  21668868.439    21668868.1974   21668870.7274  113870664.926 7  88730414.47146
      -921.010        -717.672
 08  5  2 13  0  0.0000000  0 11G 2G 4G 7G10G13G16G23G24G25G27G29
  21919330.650    21919330.2234   21919331.1934  115186858.851 7  89756013.69945
     -3275.168       -2552.083
  24713599.130    24713599.0354   24713603.1554  129870833.191 6 101198068.02843
     -4600.257       -3584.625
  24172054.027    24172054.2364   24172056.8604  127025013.698 7  98980550.40244
      2699.638        2103.615
  21826985.448    21826984.7474   21826988.3604  114701564.383 7  89377884.80245
      1694.397        1320.310
  21372510.053    21372509.9194   21372512.1114  112313301.611 8  87516876.62646
     -1295.186       -1009.234
  22667170.235    22667169.7114   22667172.0574  119116789.104 7  92818301.91045
      1069.856         833.651
  22947987.283    22947986.9204   22947987.6624  120592487.719 7  93968189.64245
     -3638.490       -2835.190
  22607689.237    22607688.6754   22607692.9954  118804192.684 7  92574734.75645
      1957.494        1525.317
  23017738.157    23017737.8594   23017740.9404  120959046.645 7  94253816.90645
      1383.175        1077.800
  24622047.658    24622047.4894   24622051.5694  129389746.366 6 100823200.17344
      2411.751        1879.287
  21674183.584    21674183.3344   21674185.6954  113898595.455 8  88752178.51146
      -941.066        -733.296
 08  5  2 13  0 30.0000000  0 11G 2G 4G 7G10G13G16G23G24G25G27G29
  21938072.720    21938072.4324   21938073.6494  115285350.218 7  89832760.20246
     -3291.165       -2564.543
  24739871.697    24739871.5254   24739875.4774  130008895.050 6 101305648.59744
     -4603.984       -3587.508
  24156666.949    24156666.7834   24156669.8544  126944153.886 7  98917542.81544
      2690.733        2096.676
  21817359.611    21817358.9394   21817362.5534  114650980.185 7  89338468.50245
      1677.688        1307.293
  21379966.291    21379966.3914   21379968.4434  112352485.425 8  87547409.46846
     -1317.305       -1026.467
  22661113.319    22661112.9564   22661115.4894  119084960.518 7  92793500.43045
      1051.724         819.521
  22968797.401    22968797.0524   22968797.9674  120701845.344 7  94053403.36645
     -3652.229       -2845.889
  22596551.025    22596550.7344   22596554.8714  118745661.768 7  92529126.25945
      1944.334        1515.072
  23009885.436    23009884.9104   23009887.9144  120917779.412 7  94221660.61945
      1367.744        1065.777
  24608298.484    24608298.0634   24608302.2014  129317493.306 6 100766899.17244
      2404.920        1873.968
  21679613.061    21679613.1904   21679615.5564  113927129.489 8  88774412.80846
      -961.393        -749.136
 08  5  2 13  1  0.0000000  0 11G 2G 4G 7G10G13G16G23G24G25G27G29
  21956905.832    21956905.5154   21956906.4334  115384318.247 7  89909878.12345
     -3306.815       -2576.740
  24766164.937    24766165.2304   24766168.6584  130147067.786 6 101413315.67643
     -4607.589       -3590.325
  24141330.965    24141331.2624   24141333.7744  126863563.267 7  98854744.96444
      2681.833        2089.738
  21807829.626    21807828.6034   21807832.5224  114600899.494 8  89299444.61545
      1660.952        1294.249
  21387549.227    21387549.2074   21387551.3114  112392333.559 8  87578459.96346
     -1339.289       -1043.602
  22655159.927    22655159.4724   22655161.8434  119053675.377 7  92769122.41645
      1033.783         805.546
  22989685.890    22989685.4484   22989686.3114  120811614.995 7  94138938.13445
     -3665.788       -2856.456
  22585488.218    22585487.9664   22585492.2664  118687527.129 7  92483826.55145
      1931.233        1504.858
  23002120.961    23002120.5824   23002123.5974  120876977.805 7  94189867.18245
      1352.333        1053.767
  24594588.296    24594588.0424   24594591.8014  129245445.793 7 100710758.26244
      2398.209        1868.725
  21685159.219    21685159.0994   21685161.5724  113956273.866 7  88797122.69846
      -981.617        -764.896
 08  5  2 13  1 30.0000000  0 11G 2G 4G 7G10G13G16G23G24G25G27G29
  21975829.102    21975828.6974   21975829.4854  115483760.286 7  89987365.41645
     -3322.766       -2589.169
  24792478.733    24792478.8864   24792482.9184  130285348.501 6 101521066.86643
     -4611.329       -3593.234
  24126046.920    24126046.8474   24126049.8914  126783244.496 7  98792158.90244
      2672.519        2082.479
  21798395.543    21798394.6874   21798398.5494  114551323.907 7  89260814.26645
      1643.882        1280.943
  21395258.256    21395258.3034   21395260.4724  112432845.198 8  87610027.46346
     -1361.596       -1060.985
  22649310.297    22649309.7374   22649312.3474  119022935.294 7  92745169.11745
      1015.401         791.219
  23010652.424    23010651.9064   23010652.7784  120921793.885 7  94224791.78945
     -3679.625       -2867.246
  22574501.254    22574501.0434   22574505.1814  118629790.180 7  92438836.73345
      1917.706        1494.315
  22994445.474    22994445.1204   22994448.1124  120836643.347 7  94158437.82745
      1336.517        1041.439
  24580917.660    24580917.1584   24580921.4714  129173605.898 6 100654779.16643
      2391.027        1863.128
  21690821.055    21690821.0784   21690823.6214  113986027.919 7  88820307.67246
     -1002.143        -780.897
 08  5  2 13  2  0.0000000  0 11G 2G 4G 7G10G13G16G23G24G25G27G29
  21994841.392    21994841.2544   21994841.8784  115583671.146 7  90065218.03445
     -3338.120       -2601.133
  24818812.246    24818812.5474   24818816.4064  130423732.282 6 101628898.44243
     -4614.446       -3595.669
  24110814.592    24110814.3854   24110817.2794  126703197.634 7  98729784.77244
      2663.709        2075.621
  21789057.550    21789056.8824   21789060.6104  114502252.832 7  89222577.06745
      1627.331        1268.055
  21403092.938    21403092.9654   21403095.1384  112474016.473 8  87642108.95046
     -1383.346       -1077.929
  22643564.247    22643563.6274   22643565.9404  118992739.279 7  92721639.76745
       997.472         777.251
  23031695.471    23031695.0894   23031695.7214  121032376.415 7  94310959.96545
     -3692.786       -2877.495
  22563589.852    22563589.4524   22563593.6864  118572450.554 7  92394156.59945
      1904.706        1484.192
  22986858.843    22986858.7194   22986861.6134  120796775.329 7  94127371.87945
      1321.164        1029.477
  24567286.235    24567285.4974   24567290.0024  129101973.280 6 100598961.65943
      2384.221        1857.837
  21696598.507    21696598.5134   21696601.0254  114016388.845 7  88843965.55646
     -1022.124        -796.456
 08  5  2 13  2 30.0000000  0 11G 2G 4G 7G10G13G16G23G24G25G27G29
  22013941.665    22013941.2984   22013942.1354  115684042.855 7  90143429.74345
     -3353.086       -2612.794
  24845164.119    24845164.1564   24845168.0174  130562210.704 6 101736803.62243
     -4617.190       -3597.810
  24095633.271    24095633.1864   24095636.0734  126623419.658 7  98667620.13944
      2655.042        2068.870
  21779815.024    21779814.2994   21779818.0534  114453682.215 7  89184729.75145
      1610.967        1255.302
  21411051.858    21411051.8094   21411054.1824  112515840.855 8  87674699.37346
     -1404.724       -1094.591
  22637920.822    22637920.3444   22637922.8014  118963083.097 7  92698531.07145
       979.837         763.504
  23052813.868    23052813.5944   23052814.3944  121143354.469 7  94397436.35645
     -3705.526       -2887.423
  22552753.188    22552752.8574   22552756.9944  118515504.194 7  92349782.82945
      1891.932        1474.235
  22979360.095    22979359.8274   22979362.9624  120757369.621 7  94096666.17845
      1306.117        1017.750
  24553693.814    24553693.4364   24553697.3224  129030544.336 6 100543302.78844
      2377.847        1852.868
  21702490.383    21702490.4364   21702492.9834  114047350.529 7  88868091.55046
     -1041.784        -811.781
 08  5  2 13  3  0.0000000  0 10G 2G 7G10G13G16G23G24G25G27G29
  22033127.573    22033127.0344   22033128.0264  115784865.095 7  90221992.51646
     -3368.344       -2624.685
  24080501.978    24080502.1454   24080504.7484  126543905.435 7  98605661.03344
      2645.917        2061.752
  21770666.644    21770665.8624   21770669.7744  114405606.912 8  89147268.41945
      1594.135        1242.187
  21419133.334    21419133.3784   21419135.6264  112558309.878 8  87707792.10646
     -1426.476       -1111.538
  22632379.119    22632378.6434   22632380.8634  118933960.746 7  92675838.34245
       961.716         749.377
  23074005.547    23074005.3454   23074005.9984  121254717.341 7  94484212.61145
     -3718.558       -2897.579
  22541990.777    22541990.2974   22541994.3014  118458945.863 7  92305711.39145
      1878.689        1463.914
  22971948.343    22971948.0924   22971951.2834  120718420.450 7  94066316.21345
      1290.525        1005.608
  24540138.902    24540138.6264   24540142.4514  128959313.560 7 100487798.35544
      2370.929        1847.463
  21708494.856    21708494.9914   21708497.4954  114078904.715 8  88892679.23646
     -1061.778        -827.358
 08  5  2 13  3 30.0000000  0 10G 2G 7G10G13G16G23G24G25G27G29
  22052401.060    22052400.6004   22052401.3594  115886148.473 7  90300914.65645
     -3383.913       -2636.823
  24065424.124    24065424.2404   24065427.0554  126464670.888 7  98543919.87544
      2636.288        2054.247
  21761615.344    21761614.6624   21761618.2574  114358041.869 7  89110204.77645
      1576.811        1228.679
  21427339.916    21427340.0514   21427342.1824  112601435.569 8  87741396.52346
     -1448.608       -1128.787
  22626941.523    22626941.1054   22626943.4474  118905386.860 7  92653572.98145
       943.182         734.946
  23095272.344    23095272.2254   23095272.7194  121366475.198 7  94571296.63045
     -3731.972       -2908.030
  22531304.697    22531304.2974   22531308.3154  118402790.359 7  92261953.81945
      1864.980        1453.226
  22964626.082    22964625.8364   22964628.9334  120679942.562 7  94036333.50345
      1274.575         993.176
  24526624.896    24526624.6254   24526628.3684  128888295.807 6 100432459.85344
      2363.526        1841.701
  21714614.792    21714614.7754   21714617.2144  114111063.998 7  88917738.39146
     -1082.215        -843.289
 08  5  2 13  4  0.0000000  0 10G 2G 7G10G13G16G23G24G25G27G29
  22071762.129    22071761.7064   22071762.5874  115987891.447 7  90380194.84645
     -3399.302       -2648.802
  24050400.197    24050400.2914   24050403.0044  126385719.572 7  98482399.36644
      2626.775        2046.835
  21752661.705    21752660.8424   21752664.5414  114310990.035 7  89073541.00445
      1559.611        1215.281
  21435671.507    21435671.4604   21435673.6524  112645218.066 8  87775512.75546
     -1470.550       -1145.881
  22621608.923    22621608.3934   22621611.0204  118877364.102 7  92631737.06945
       924.672         720.521
  23116613.928    23116613.6084   23116614.6074  121478626.289 7  94658687.07345
     -3745.112       -2918.270
  22520695.956    22520695.5154   22520699.6064  118347040.666 7  92218512.45145
      1851.347        1442.608
  22957394.504    22957394.0224   22957397.1704  120641938.852 7  94006720.25045
      1258.673         980.786
  24513151.747    24513151.2624   24513155.0874  128817494.780 6 100377290.24744
      2356.188        1835.987
  21720849.665    21720849.7374   21720852.1904  114143829.050 7  88943269.60046
     -1102.465        -859.064
 08  5  2 13  4 30.0000000  0 10G 2G 7G10G13G16G23G24G25G27G29
  22091210.478    22091209.9954   22091211.0274  116090093.549 7  90459832.86045
     -3414.144       -2660.370
  24035431.058    24035431.1814   24035434.0874  126307056.062 7  98421103.17444
      2617.481        2039.597
  21743806.236    21743805.5134   21743808.9234  114264454.658 7  89037279.67245
      1542.775        1202.164
  21444128.211    21444128.1154   21444130.2144  112689657.801 8  87810141.12946
     -1492.050       -1162.635
  22616381.969    22616381.3584   22616383.8804  118849896.141 7  92610333.46345
       906.565         706.417
  23138030.374    23138030.0174   23138030.8264  121591169.710 8  94746383.23745
     -3757.767       -2928.127
  22510165.061    22510164.7424   22510168.8564  118291700.569 7  92175390.26445
      1838.053        1432.253
  22950253.300    22950253.1564   22950256.1804  120604412.842 7  93977479.22745
      1243.095         968.646
  24499720.545    24499720.1454   24499724.1814  128746914.131 6 100322292.38844
      2349.212        1830.553
  21727200.350    21727200.3484   21727202.6844  114177201.213 7  88969273.86346
     -1122.300        -874.517
 08  5  2 13  5  0.0000000  0 10G 2G 7G10G13G16G23G24G25G27G29
  22110744.573    22110744.1534   22110745.1334  116192746.176 7  90539821.92745
     -3429.381       -2672.248
  24020515.954    24020515.8314   24020518.6544  126228676.848 7  98360028.48944
      2607.710        2031.980
  21735048.471    21735047.6204   21735051.2924  114218432.145 7  89001417.95045
      1525.333        1188.572
  21452708.430    21452708.4334   21452710.7754  112734747.808 8  87845276.20946
     -1514.002       -1179.741
  22611259.284    22611258.9784   22611261.4634  118822978.185 7  92589358.43145
       887.893         691.864
  23159519.619    23159519.2314   23159520.2884  121704096.561 7  94834378.18045
     -3770.766       -2938.259
  22499711.466    22499711.0334   22499715.4964  118236766.141 7  92132584.13645
      1824.220        1421.478
  22943202.390    22943202.0754   22943205.2154  120567360.013 7  93948606.89945
      1227.030         956.127
  24486330.575    24486330.1474   24486334.6074  128676550.160 6 100267463.42244
      2341.676        1824.677
  21733665.150    21733665.1284   21733667.4794  114211173.991 8  88995746.16846
     -1142.612        -890.349
 08  5  2 13  5 30.0000000  0 10G 2G 7G10G13G16G23G24G25G27G29
  22130365.042    22130364.5164   22130365.5014  116295851.818 7  90620163.95645
     -3444.286       -2683.854
  24005656.646    24005656.4674   24005659.1204  126150589.740 7  98299181.42444
      2598.105        2024.497
  21726389.796    21726388.9374   21726392.7344  114172929.884 7  88965961.53545
      1508.102        1175.140
  21461413.261    21461413.2394   21461415.6154  112780491.975 8  87880921.00646
     -1535.599       -1196.567
  22606243.124    22606242.5624   22606245.2064  118796616.913 7  92568817.18445
       869.495         677.526
  23181082.346    23181081.9364   23181082.8114  121817409.002 7  94922673.57645
     -3783.393       -2948.093
  22489336.086    22489335.8744   22489340.2424  118182244.577 7  92090099.77045
      1810.578        1410.840
  22936243.023    22936242.6564   22936245.7094  120530787.389 7  93920108.76645
      1211.160         943.763
  24472983.545    24472982.8944   24472986.7684  128606410.044 6 100212808.86044
      2334.346        1818.969
  21740245.078    21740245.0514   21740247.3964  114245751.476 7  89022689.67546
     -1162.581        -905.911
 08  5  2 13  6  0.0000000  0 10G 2G 7G10G13G16G23G24G25G27G29
  22150070.683    22150069.9964   22150071.1604  116399405.186 7  90700854.88045
     -3459.221       -2695.496
  23990852.662    23990852.5074   23990855.1024  126072794.514 7  98238561.76944
      2588.232        2016.801
  21717829.768    21717828.9314   21717832.6434  114127947.047 8  88930910.06745
      1490.729        1161.608
  21470241.893    21470241.8624   21470244.1554  112826886.674 8  87917072.72446
     -1557.345       -1213.515
  22601332.479    22601331.9494   22601334.3444  118770810.919 7  92548708.62245
       850.882         663.020
  23202717.221    23202716.9544   23202717.7474  121931101.429 7  95011265.05545
     -3796.096       -2957.993
  22479039.632    22479039.1684   22479043.6124  118128134.870 7  92047936.32545
      1796.724        1400.042
  22929374.669    22929374.4264   22929377.1474  120494693.854 7  93891983.92445
      1195.106         931.255
  24459678.752    24459677.9494   24459682.1574  128536493.212 6 100158328.23544
      2326.796        1813.093
  21746939.356    21746939.4134   21746941.8504  114280930.954 8  89050102.29446
     -1182.690        -921.572
 08  5  2 13  6 30.0000000  0 10G 2G 7G10G13G16G23G24G25G27G29
  22169860.960    22169860.6394   22169861.6934  116503405.188 7  90781893.84345
     -3474.229       -2707.188
  23976105.072    23976105.0184   23976107.5904  125995295.561 7  98178173.00944
      2578.195        2008.981
  21709369.064    21709368.2874   21709371.8284  114083486.282 7  88896265.42945
      1473.144        1147.903
  21479194.211    21479194.1774   21479196.4244  112873931.975 8  87953731.42646
     -1579.148       -1230.510
  22596528.197    22596527.5694   22596530.1864  118745563.561 7  92529035.36945
       832.133         648.412
  23224424.190    23224423.8654   23224424.6434  122045171.971 7  95100151.17845
     -3808.774       -2967.872
  22468821.911    22468821.5274   22468825.7254  118074440.329 7  92006096.46745
      1782.733        1389.139
  22922597.941    22922597.6644   22922600.6544  120459082.454 7  93864234.77645
      1178.836         918.572
  24446417.272    24446416.8224   24446420.6784  128466803.345 6 100104024.46244
      2319.055        1807.050
  21753748.588    21753748.5354   21753750.9124  114316713.241 8  89077984.66446
     -1202.933        -937.353
 08  5  2 13  7  0.0000000  0 10G 2G 7G10G13G16G23G24G25G27G29
  22189737.257    22189737.1534   22189738.3294  116607857.879 7  90863285.51845
     -3489.180       -2718.839
  23961415.904    23961415.8044   23961418.4014  125918103.998 7  98118023.77244
      2568.011        2001.050
  21701009.619    21701008.8134   21701012.5254  114039557.786 7  88862035.46245
      1455.463        1134.127
  21488272.120    21488272.0444   21488274.1084  112921635.499 8  87990903.02546
     -1600.964       -1247.505
  22591831.842    22591831.2064   22591834.0084  118720884.815 7  92509805.18845
       813.224         633.683
  23246204.118    23246203.8564   23246204.7654  122159626.853 7  95189336.78145
     -3821.440       -2977.745
  22458685.169    22458684.8014   22458688.9824  118021171.511 7  91964588.30845
      1768.592        1378.123
  22915914.958    22915914.7334   22915917.6294  120423963.466 7  93836869.34745
      1162.502         905.850
  24433200.583    24433200.0014   24433204.0314  128397350.695 6 100049905.53644
      2311.242        1800.964
  21760673.703    21760673.7944   21760676.1134  114353105.883 7  89106342.65146
     -1223.158        -953.108
 08  5  2 13  7 30.0000000  0 10G 2G 7G10G13G16G23G24G25G27G29
  22209697.409    22209696.9754   22209698.0784  116712747.356 7  90945017.57045
     -3503.634       -2730.103
  23946783.223    23946783.4474   23946786.1934  125841209.700 7  98058106.18644
      2558.083        1993.305
  21692749.716    21692748.6904   21692752.5374  113996150.669 7  88828211.76845
      1438.094        1120.590
  21497472.116    21497472.1824   21497474.3234  112969982.890 8  88028576.30646
     -1622.341       -1264.160
  22587241.665    22587241.1744   22587243.5414  118696762.884 7  92491008.90445
       794.702         619.249
  23268054.394    23268053.9454   23268055.2354  122274450.360 7  95278809.61445
     -3833.617       -2987.232
  22448627.346    22448627.0114   22448631.2524  117968317.686 7  91923403.61945
      1754.781        1367.359
  22909323.605    22909323.2944   22909326.2114  120389325.556 7  93809878.77545
      1146.513         893.381
  24420027.790    24420027.5194   24420030.9204  128328124.879 7  99995963.35844
      2303.649        1795.044
  21767712.557    21767712.5394   21767715.0784  114390095.318 8  89135165.57646
     -1243.011        -968.587
 08  5  2 13  8  0.0000000  0 10G 2G 7G10G13G16G23G24G25G27G29
  22229741.244    22229741.0174   22229742.1554  116818079.067 7  91027094.23945
     -3518.579       -2741.752
  23932209.084    23932209.3374   23932211.6764  125764622.396 7  97998427.82144
      2547.522        1985.080
  21684590.570    21684589.6874   21684593.2904  113953274.454 7  88794801.70645
      1420.137        1106.603
  21506796.053    21506796.1104   21506798.2904  113018980.487 8  88066756.25946
     -1644.271       -1281.249
  22582758.776    22582758.4504   22582760.8964  118673206.627 7  92472653.40045
       775.568         604.341
  23289975.642    23289975.1584   23289976.3474  122389646.987 7  95368573.19745
     -3846.268       -2997.095
  22438650.157    22438649.7954   22438653.8354  117915887.804 7  91882549.25445
      1740.373        1356.135
  22902825.510    22902825.1314   22902828.0984  120355177.835 7  93783270.16645
      1129.899         880.445
  24406899.014    24406898.4384   24406902.5694  128259135.368 6  99942205.32744
      2295.464        1788.677
  21774866.325    21774866.2804   21774868.7544  114427688.873 7  89164459.35546
     -1263.375        -984.446
 08  5  2 13  8 30.0000000  0 10G 2G 7G10G13G16G23G24G25G27G29
  22249868.831    22249868.3744   22249869.4804  116923849.674 7  91109512.88845
     -3532.869       -2752.881
  23917693.969    23917693.9504   23917696.3794  125688344.238 7  97938990.34244
      2537.519        1977.283
  21676532.692    21676531.9114   21676535.5014  113910930.447 7  88761806.37645
      1402.678        1092.996
  21516243.434    21516243.4424   21516245.6334  113068626.471 8  88105441.44946
     -1665.575       -1297.854
  22578384.188    22578383.7944   22578386.2474  118650217.139 7  92454739.52245
       756.887         589.785
  23311967.218    23311966.7734   23311967.7174  122505213.094 7  95458624.69345
     -3858.246       -3006.420
  22428753.773    22428753.5884   22428757.6974  117863882.907 7  91842025.96945
      1726.469        1345.301
  22896420.855    22896420.5304   22896423.4534  120321521.276 7  93757044.29345
      1113.788         867.887
  24393815.970    24393815.5714   24393819.7204  128190383.385 6  99888632.42844
      2287.803        1782.701
  21782134.674    21782134.7204   21782137.0834  114465884.473 7  89194222.13946
     -1283.118        -999.835
 08  5  2 13  9  0.0000000  0 10G 2G 7G10G13G16G23G24G25G27G29
  22270079.491    22270079.1764   22270080.2514  117030057.816 7  91192272.46145
     -3547.615       -2764.374
  23903238.350    23903238.3294   23903240.9044  125612379.304 7  97879796.93844
      2526.845        1968.965
  21668576.824    21668575.8384   21668579.7774  113869122.025 7  88729228.40945
      1384.600        1078.914
  21525814.110    21525814.1554   21525816.3744  113118920.879 8  88144631.92246
     -1687.357       -1314.825
  22574117.883    22574117.2004   22574119.7794  118627796.961 7  92437269.26545
       737.747         574.870
  23334028.704    23334028.1594   23334029.3434  122621147.218 7  95548962.95745
     -3870.660       -3016.097
  22418939.366    22418938.8964   22418942.9604  117812306.940 7  91801837.09945
      1711.998        1334.022
  22890110.174    22890109.9304   22890112.8454  120288358.911 7  93731203.50445
      1097.079         854.865
  24380778.988    24380778.4684   24380782.6554  128121872.643 7  99835247.46044
      2279.568        1776.290
  21789518.021    21789517.9384   21789520.1494  114504682.946 8  89224454.69646
     -1303.412       -1015.643
 08  5  2 13  9 30.0000000  0 10G 2G 7G10G13G16G23G24G25G27G29
  22290374.640    22290374.1934   22290375.5224  117136709.889 7  91275377.98645
     -3562.104       -2775.667
  23888844.377    23888844.6174   23888846.8204  125536739.098 7  97820856.57644
      2516.210        1960.685
  21660724.960    21660724.0624   21660727.5324  113827859.430 7  88697075.70445
      1366.602        1064.885
  21535509.719    21535509.8414   21535511.7784  113169871.322 8  88184333.55046
     -1708.938       -1331.636
  22569961.711    22569961.2154   22569963.8144  118605956.464 7  92420250.69645
       718.642         559.983
  23356161.332    23356161.0384   23356161.9344  122737455.326 7  95639592.62745
     -3882.825       -3025.579
  22409208.121    22409207.8394   22409211.8264  117761169.802 7  91761989.98545
      1697.543        1322.759
  22883895.649    22883895.3384   22883898.3034  120255701.118 7  93705755.88345
      1080.491         841.945
  24367789.505    24367789.0654   24367793.0194  128053614.323 6  99782059.17344
      2271.412        1769.934
  21797017.412    21797017.3664   21797019.7184  114544093.040 7  89255163.85546
     -1323.499       -1031.302
 08  5  2 13 10  0.0000000  0 10G 2G 7G10G13G16G23G24G25G27G29
  22310750.157    22310749.9294   22310750.9094  117243783.761 7  91358812.18145
     -3576.425       -2786.829
  23874509.091    23874509.0444   23874511.6684  125461406.716 7  97762156.04644
      2505.608        1952.425
  21652973.177    21652972.3744   21652976.1594  113787124.986 7  88665334.57345
      1348.688        1050.927
  21545326.018    21545326.0644   21545328.2644  113221457.250 8  88224530.45046
     -1730.395       -1348.362
  22565912.449    22565911.9554   22565914.5564  118584677.651 7  92403669.80945
       699.641         545.177
  23378360.819    23378360.5784   23378361.5134  122854114.895 7  95730496.15645
     -3894.743       -3034.863
  22399557.079    22399556.7894   22399560.9524  117710454.385 7  91722471.49445
      1683.173        1311.564
  22877773.718    22877773.4114   22877776.2454  120223529.987 7  93680687.45445
      1063.935         829.042
  24354845.550    24354845.0194   24354848.4744  127985591.090 6  99729054.09944
      2263.236        1763.556
  21804629.429    21804629.3854   21804631.7624  114584094.288 7  89286333.66346
     -1343.506       -1046.886
 08  5  2 13 10 30.0000000  0 10G 2G 7G10G13G16G23G24G25G27G29
  22331207.306    22331206.8304   22331208.0274  117351285.820 7  91442580.01245
     -3590.688       -2797.941
  23860234.359    23860234.8414   23860237.1824  125386393.844 7  97703704.49244
      2494.894        1944.072
  21645324.288    21645323.5454   21645327.2054  113746929.558 7  88634013.43845
      1330.656        1036.873
  21555264.881    21555264.8704   21555266.9644  113273685.962 8  88265228.20846
     -1751.846       -1365.079
  22561972.162    22561971.3494   22561973.9804  118563970.868 7  92387534.65845
       680.487         530.248
  23400628.481    23400628.3304   23400629.2484  122971132.468 7  95821678.66745
     -3906.693       -3044.171
  22389988.740    22389988.5034   22389992.5654  117660171.312 7  91683289.84345
      1668.704        1300.290
  22871746.231    22871746.0694   22871748.8824  120191856.152 7  93656006.54945
      1047.292         816.068
  24341947.670    24341947.2864   24341951.0404  127917813.752 6  99676240.58344
      2254.942        1757.093
  21812355.403    21812355.2804   21812357.6414  114624694.766 8  89317970.35546
     -1363.547       -1062.504
 08  5  2 13 11  0.0000000  0 10G 2G 7G10G13G16G23G24G25G27G29
  22351744.969    22351744.7014   22351745.8834  117459213.432 7  91526679.41945
     -3604.792       -2808.929
  23846021.317    23846021.4714   23846024.0694  125311703.165 7  97645503.96444
      2484.158        1935.707
  21637778.532    21637777.8324   21637781.5714  113707275.484 8  88603114.12645
      1312.634        1022.833
  21565325.692    21565325.6804   21565327.8254  113326556.291 8  88306425.91446
     -1773.160       -1381.685
  22558140.791    22558140.2214   22558142.7174  118543837.480 7  92371846.31445
       661.396         515.379
  23422963.684    23422963.4164   23422964.5274  123088504.952 7  95913137.73345
     -3918.449       -3053.339
  22380502.944    22380502.5834   22380506.6304  117610323.271 7  91644447.29245
      1654.198        1288.987
  22865813.798    22865813.6054   22865816.8544  120160681.400 7  93631714.54545
      1030.697         803.144
  24329097.318    24329096.8804   24329100.9274  127850284.671 6  99623620.56444
      2246.642        1750.635
  21820195.276    21820195.3744   21820197.6604  114665893.920 8  89350073.54446
     -1383.406       -1077.979
 08  5  2 13 11 30.0000000  0 10G 2G 7G10G13G16G23G24G25G27G29
  22372364.155    22372363.8744   22372365.0214  117567567.628 7  91611111.24745
     -3618.750       -2819.806
  23831870.660    23831870.8584   23831873.0904  125237340.698 7  97587559.18544
      2473.344        1927.268
  21630336.545    21630335.7744   21630339.3984  113668167.600 8  88572640.44845
      1294.587        1008.775
  21575509.008    21575508.9644   21575511.1464  113380070.268 8  88348125.10946
     -1794.404       -1398.232
  22554419.455    22554419.0064   22554421.4874  118524282.215 7  92356608.45245
       642.297         500.492
  23445366.812    23445366.3974   23445367.5204  123206233.046 7  96004873.89845
     -3930.027       -3062.357
  22371100.917    22371100.4314   22371104.6454  117560915.118 7  91605947.43845
      1639.698        1277.687
  22859977.453    22859977.2154   22859979.9504  120130010.582 7  93607815.22345
      1014.068         790.190
  24316295.748    24316295.0814   24316298.5664  127783009.349 7  99571198.22544
      2238.371        1744.187
  21828149.853    21828149.7954   21828152.1274  114707694.496 8  89382645.37646
     -1403.234       -1093.422
 08  5  2 13 12  0.0000000  0 10G 2G 7G10G13G16G23G24G25G27G29
  22393063.799    22393063.4444   22393064.3064  117676344.260 7  91695872.24745
     -3633.002       -2830.910
  23817782.675    23817782.7184   23817785.4234  125163307.908 7  97529871.29644
      2462.135        1918.552
  21622998.717    21622997.8984   21623001.4294  113629606.248 8  88542592.65345
      1276.117         994.376
  21585814.444    21585814.3514   21585816.5314  113434225.279 8  88390323.84146
     -1815.945       -1415.029
  22550808.371    22550807.9674   22550810.2554  118505305.096 7  92341821.09345
       622.818         485.317
  23467836.578    23467836.1234   23467837.2464  123324312.392 7  96096883.76245
     -3941.924       -3071.633
  22361782.785    22361782.2124   22361786.5104  117511947.200 7  91567790.58745
      1624.803        1266.085
  22854236.729    22854236.5324   22854239.6454  120099843.702 7  93584308.56345
       997.031         776.914
  24303541.651    24303541.0214   24303545.6284  127715988.615 6  99518974.26544
      2229.646        1737.382
  21836218.035    21836218.0744   21836220.5144  114750094.092 7  89415683.98746
     -1423.401       -1109.138
 08  5  2 13 12 30.0000000  0 10G 2G 7G10G13G16G23G24G25G27G29
  22413843.032    22413842.5724   22413843.8704  117785540.067 7  91780959.89545
     -3646.795       -2841.655
  23803757.847    23803757.8464   23803760.4614  125089606.461 7  97472441.60744
      2451.216        1910.031
  21615764.874    21615764.0744   21615767.6904  113591592.178 7  88512971.27746
      1258.042         980.284
  21596241.358    21596241.3294   21596243.4274  113489018.998 8  88433020.26746
     -1837.030       -1431.452
  22547307.129    22547306.7144   22547309.1204  118486906.376 7  92327484.44345
       603.690         470.402
  23490372.380    23490372.0424   23490372.9204  123442739.260 7  96189164.42545
     -3953.281       -3080.480
  22352548.461    22352547.8674   22352552.1584  117463420.408 7  91529977.48145
      1610.217        1254.713
  22848592.495    22848592.0924   22848594.9444  120070181.577 7  93561195.20645
       980.376         763.927
  24290836.722    24290836.4334   24290840.4324  127649223.832 7  99466949.77144
      2221.260        1730.842
  21844400.113    21844400.0824   21844402.6024  114793091.168 7  89449188.20846
     -1443.121       -1124.512
 08  5  2 13 13  0.0000000  0 10G 2G 7G10G13G16G23G24G25G27G29
  22434702.036    22434701.4994   22434702.6234  117895153.914 7  91866373.26145
     -3660.881       -2852.635
  23789796.616    23789796.4364   23789799.3414  125016240.772 6  97415273.56044
      2439.733        1901.093
  21608636.025    21608635.0484   21608638.6254  113554128.694 7  88483778.90746
      1239.411         965.773
  21606789.734    21606789.7624   21606791.8744  113544451.350 8  88476214.31346
     -1858.532       -1448.207
  22543916.572    22543915.9634   22543918.5974  118469089.052 7  92313600.82645
       584.050         455.106
  23512974.259    23512973.7424   23512974.8354  123561512.036 7  96281714.60745
     -3964.973       -3089.586
  22343398.581    22343398.2004   22343402.4164  117415338.172 7  91492510.80245
      1595.170        1242.992
  22843044.413    22843044.2324   22843047.1154  120041027.101 7  93538477.43345
       963.180         750.533
  24278181.491    24278180.9774   24278184.5804  127582718.774 7  99415127.63644
      2212.329        1723.896
  21852695.892    21852695.9834   21852698.5234  114836686.252 7  89483158.42046
     -1463.290       -1140.223
 08  5  2 13 13 30.0000000  0 10G 2G 7G10G13G16G23G24G25G27G29
  22455641.212    22455640.9134   22455641.9084  118005191.263 7  91952116.65145
     -3674.890       -2863.548
  23775901.744    23775901.6764   23775904.3994  124943221.533 7  97358375.50745
      2428.231        1892.123
  21601613.518    21601612.7614   21601616.4924  113517225.940 8  88455023.50146
      1220.798         951.271
  21617461.021    21617461.0224   21617463.1224  113600529.266 8  88519911.39846
     -1879.985       -1464.916
  22540638.466    22540638.0094   22540640.3514  118451862.377 7  92300177.44745
       564.421         439.812
  23535642.809    23535642.3174   23535643.3644  123680636.469 7  96374538.81745
     -3976.587       -3098.639
  22334335.285    22334334.9954   22334339.0964  117367710.749 7  91455398.52545
      1580.028        1231.197
  22837595.095    22837594.6684   22837597.7154  120012390.184 7  93516162.93545
       945.943         737.099
  24265576.818    24265576.5634   24265580.8794  127516483.384 6  99363515.65744
      2203.378        1716.915
  21861106.957    21861106.9524   21861109.5454  114880886.725 7  89517600.34346
     -1483.413       -1155.910
 08  5  2 13 14  0.0000000  0 10G 2G 7G10G13G16G23G24G25G27G29
  22476660.092    22476659.8674   22476661.0964  118115646.157 7  92038185.40945
     -3688.805       -2874.393
  23762072.136    23762072.0684   23762074.7244  124870548.097 6  97301746.89045
      2416.555        1883.025
  21594697.525    21594696.7114   21594700.4894  113480882.114 8  88426703.60445
      1202.084         936.694
  21628254.317    21628254.2574   21628256.3954  113657248.091 8  88564107.89746
     -1901.377       -1481.590
  22537472.490    22537471.9164   22537474.2884  118435224.566 7  92287212.93545
       544.686         424.424
  23558377.142    23558376.7924   23558377.7344  123800106.196 7  96467632.08645
     -3988.129       -3107.632
  22325358.618    22325358.1964   22325362.2174  117320536.855 7  91418639.63045
      1564.819        1219.340
  22832243.548    22832243.3364   22832246.5264  119984268.896 7  93494250.23545
       928.702         723.669
  24253024.706    24253023.8104   24253027.8124  127450516.950 7  99312113.26044
      2194.303        1709.848
  21869632.716    21869632.5334   21869635.1014  114925688.978 8  89552511.18346
     -1503.477       -1171.539
 08  5  2 13 14 30.0000000  0 11G 2G 6G 7G10G13G16G23G24G25G27G29
  22497758.578    22497758.1484   22497759.2474  118226518.774 7  92124579.65845
     -3702.793       -2885.293
  24862788.337    24862787.8484   24862792.5404  130654834.783 6 101808984.80643
      2697.437        2101.883
  23748309.929    23748309.8924   23748312.5094  124798225.904 7  97245391.94645
      2404.753        1873.828
  21587888.714    21587887.9604   21587891.6594  113445101.627 8  88398822.63046
      1183.179         921.956
  21639169.468    21639169.6714   21639171.9114  113714609.095 8  88608804.77646
     -1922.823       -1498.303
  22534419.154    22534418.6324   22534421.1134  118419179.311 7  92274710.14645
       524.858         408.974
  23581177.365    23581177.0084   23581178.0254  123919921.211 7  96560994.39445
     -3999.648       -3116.613
  22316468.708    22316468.3574   22316472.2434  117273820.825 7  91382237.56045
      1549.466        1207.376
  22826991.404    22826991.0984   22826994.0274  119956667.645 7  93472742.75445
       911.273         710.083
  24240523.127    24240522.6914   24240526.6324  127384824.187 6  99260924.08044
      2185.084        1702.664
  21878272.872    21878272.9364   21878275.4464  114971094.064 7  89587891.74846
     -1523.636       -1187.252
 08  5  2 13 15  0.0000000  0 11G 2G 6G 7G10G13G16G23G24G25G27G29
  22518936.239    22518936.0734   22518937.3104  118337808.741 7  92211299.09845
     -3716.435       -2895.921
  24847408.233    24847407.8604   24847413.1174  130574013.837 6 101746007.44943
      2690.731        2096.682
  23734615.144    23734615.1014   23734617.5924  124726259.779 7  97189314.47045
      2393.063        1864.737
  21581188.137    21581187.1634   21581191.0234  113409888.648 7  88371383.95746
      1164.450         907.357
  21650207.501    21650207.4214   21650209.6034  113772613.030 8  88654002.63346
     -1944.039       -1514.834
  22531479.325    22531478.8914   22531481.3394  118403730.523 7  92262672.13945
       505.151         393.634
  23604042.824    23604042.5014   23604043.5574  124040080.744 7  96654625.18845
     -4010.866       -3125.359
  22307666.855    22307666.5344   22307670.5844  117227566.696 7  91346195.40145
      1534.229        1195.507
  22821838.582    22821838.3604   22821841.4304  119929589.996 7  93451643.28445
       893.964         696.598
  24228075.260    24228074.7654   24228078.8824  127319409.305 7  99209951.43744
      2175.970        1695.565
  21887028.181    21887028.2224   21887030.7794  115017103.772 7  89623743.44846
     -1543.573       -1202.781
 08  5  2 13 15 30.0000000  0 11G 2G 6G 7G10G13G16G23G24G25G27G29
  22540192.947    22540192.4124   22540193.6184  118449511.743 7  92298340.38845
     -3730.342       -2906.754
  24832068.282    24832067.6604   24832072.4844  130493399.573 6 101683191.17143
      2683.619        2091.133
  23720988.233    23720988.4494   23720990.9814  124654650.683 7  97133515.16345
      2380.874        1855.230
  21574595.284    21574594.2614   21574598.0484  113375243.190 8  88344387.48946
      1145.317         892.459
  21661366.885    21661367.0724   21661369.2014  113831256.912 8  88699699.16546
     -1965.511       -1531.567
  22528652.893    22528652.3884   22528654.5504  118388877.487 7  92251098.35345
       485.059         377.970
  23626973.273    23626972.8764   23626973.8924  124160580.245 7  96748520.88445
     -4022.367       -3134.309
  22298953.265    22298952.5654   22298956.6554  117181774.613 7  91310513.25645
      1518.616        1183.338
  22816785.619    22816785.2384   22816788.3124  119903035.871 7  93430951.76045
       876.310         682.839
  24215680.367    24215679.5934   24215683.5674  127254272.893 7  99159195.76044
      2166.480        1688.165
  21895898.282    21895898.0784   21895900.6804  115063715.205 8  89660064.08446
     -1563.828       -1218.571
 08  5  2 13 16  0.0000000  0 11G 2G 6G 7G10G13G16G23G24G25G27G29
  22561526.767    22561526.3164   22561527.7024  118561622.194 7  92385699.16745
     -3743.944       -2917.361
  24816766.904    24816766.5704   24816771.0584  130412991.152 6 101620535.28643
      2676.700        2085.729
  23707429.413    23707429.6704   23707432.1044  124583397.883 7  97077993.51945
      2368.961        1845.938
  21568109.977    21568109.0994   21568112.9754  113341163.685 8  88317832.03046
      1126.396         877.710
  21672647.455    21672647.2504   21672649.3804  113890535.218 8  88745890.05146
     -1986.663       -1548.050
  22525939.405    22525938.8294   22525941.4164  118374617.884 7  92239986.99845
       465.281         362.559
  23649967.046    23649966.7684   23649967.6194  124281413.826 7  96842676.89045
     -4033.469       -3142.963
  22290326.715    22290326.3334   22290330.2754  117136443.423 7  91275190.24245
      1503.199        1171.322
  22811831.416    22811831.4264   22811834.5854  119877003.186 7  93410666.57245
       858.906         669.275
  24203337.759    24203337.1794   24203341.4144  127189414.042 6  99108656.37644
      2157.185        1680.915
  21904881.745    21904881.7284   21904884.3414  115110924.555 7  89696850.57546
     -1583.752       -1234.092
 08  5  2 13 16 30.0000000  0 11G 2G 6G 7G10G13G16G23G24G25G27G29
  22582939.176    22582938.8194   22582940.2744  118674145.691 7  92473379.80345
     -3757.584       -2927.988
  24801506.744    24801506.7144   24801510.7274  130332799.526 6 101558048.32543
      2669.399        2080.044
  23693940.583    23693940.6474   23693943.1714  124512513.172 7  97022758.66145
      2356.703        1836.393
  21561734.464    21561733.5624   21561737.4154  113307660.115 8  88291725.39046
      1107.212         862.765
  21684049.717    21684049.8644   21684051.9224  113950455.786 8  88792581.39746
     -2008.026       -1564.696
  22523340.759    22523340.2844   22523342.5794  118360962.011 7  92229346.08345
       445.164         346.882
  23673025.555    23673025.2034   23673026.5004  124402587.149 7  96937097.64845
     -4044.689       -3151.702
  22281790.254    22281789.8344   22281793.8274  117091583.398 7  91240234.37145
      1487.485        1159.079
  22806978.728    22806978.5704   22806981.8784  119851502.399 7  93390795.84745
       841.188         655.469
  24191050.815    24191050.2494   24191054.0344  127124843.494 7  99058341.67944
      2147.538        1673.406
  21913980.632    21913980.6804   21913983.2264  115158739.552 7  89734108.98146
     -1603.897       -1249.789
 08  5  2 13 17  0.0000000  0 11G 2G 6G 7G10G13G16G23G24G25G27G29
  22604429.385    22604428.9764   22604430.2774  118787076.709 7  92561377.97945
     -3771.055       -2938.487
  24786287.921    24786287.6844   24786291.7724  130252824.171 6 101495729.90243
      2662.325        2074.546
  23680521.692    23680521.7444   23680524.2124  124441996.030 7  96967810.23045
      2344.503        1826.884
  21555468.326    21555467.4614   21555471.1204  113274731.632 8  88266066.88446
      1088.115         847.878
  21695573.778    21695573.6574   21695575.7114  114011013.966 8  88839769.58946
     -2029.136       -1581.145
  22520856.488    22520856.0074   22520858.5944  118347908.050 7  92219174.18545
       425.170         331.300
  23696147.847    23696147.4544   23696148.4164  124524094.403 7  97031778.59945
     -4055.691       -3160.282
  22273342.945    22273342.4954   22273346.5794  117047193.367 7  91205644.78245
      1471.926        1146.957
  22802227.444    22802226.9134   22802230.1754  119826531.888 7  93371338.32145
       823.559         641.729
  24178817.876    24178817.4424   24178821.5074  127060560.474 7  99008251.01244
      2138.042        1666.004
  21923194.088    21923194.1304   21923196.5684  115207156.220 7  89771836.23446
     -1623.844       -1265.334
 08  5  2 13 17 30.0000000  0 11G 2G 6G 7G10G13G16G23G24G25G27G29
  22625995.848    22625995.4794   22625996.6534  118900408.931 7  92649688.79945
     -3784.378       -2948.867
  24771110.198    24771109.8514   24771114.0774  130173063.058 6 101433578.40743
      2655.155        2068.952
  23667172.131    23667172.2184   23667174.9644  124371844.657 7  96913146.83945
      2332.273        1817.357
  21549311.059    21549310.1974   21549313.9954  113242375.519 8  88240854.37446
      1069.027         833.007
  21707217.742    21707217.7134   21707219.7124  114072203.837 8  88887450.00845
     -2050.135       -1597.511
  22518486.503    22518485.9044   22518488.1864  118335452.543 7  92209468.61945
       405.247         315.773
  23719331.984    23719331.6324   23719332.7964  124645928.352 7  97126714.12045
     -4066.501       -3168.706
  22264984.696    22264984.3304   22264988.4894  117003271.036 7  91171419.62245
      1456.299        1134.781
  22797575.734    22797575.4444   22797578.8034  119802088.589 7  93352291.60845
       805.993         628.043
  24166639.628    24166639.1264   24166643.0974  126996562.842 7  98958382.75744
      2128.518        1658.574
  21932520.906    21932520.8584   21932523.4304  115256169.082 7  89810028.07346
     -1643.642       -1280.762
 08  5  2 13 18  0.0000000  0 11G 2G 6G 7G10G13G16G23G24G25G27G29
  22647638.983    22647638.7204   22647639.8544  119014144.281 7  92738313.72345
     -3797.796       -2959.325
  24755974.181    24755973.8054   24755977.8674  130093523.905 6 101371599.87543
      2647.616        2063.077
  23653893.800    23653893.9904   23653896.7674  124302067.360 7  96858774.92145
      2319.690        1807.549
  21543264.051    21543263.1734   21543266.9434  113210598.175 8  88216092.86446
      1049.652         817.910
  21718982.453    21718982.5674   21718984.7274  114134029.109 8  88935625.54146
     -2071.360       -1614.048
  22516231.482    22516230.8294   22516233.2114  118323601.941 7  92200234.40445
       384.980         299.984
  23742578.954    23742578.6214   23742579.6104  124768091.815 7  97221906.40045
     -4077.505       -3177.275
  22256716.729    22256716.5494   22256720.5474  116959823.609 7  91137564.50045
      1440.385        1122.373
  22793026.065    22793025.6964   22793029.0364  119778179.509 7  93333661.18445
       788.128         614.119
  24154516.888    24154516.4394   24154520.4304  126932857.748 6  98908742.38844
      2118.680        1650.913
  21941962.074    21941962.0144   21941964.6214  115305782.767 7  89848688.07046
     -1663.697       -1296.389
 08  5  2 13 18 30.0000000  0 11G 2G 6G 7G10G13G16G23G24G25G27G29
  22669358.083    22669357.6824   22669358.8384  119128278.561 7  92827249.49545
     -3811.201       -2969.771
  24740880.619    24740880.4864   24740884.5114  130014207.206 6 101309794.68943
      2640.012        2057.147
  23640686.954    23640686.9804   23640689.8234  124232664.176 7  96804694.50945
      2307.097        1797.750
  21537327.201    21537326.3084   21537330.0734  113179399.604 8  88191782.30646
      1030.196         802.750
  21730867.755    21730867.7164   21730869.9294  114196486.363 8  88984293.53845
     -2092.502       -1630.522
  22514091.166    22514090.6904   22514093.1874  118312355.732 7  92191471.14145
       364.711         284.186
  23765887.749    23765887.3114   23765888.2624  124890579.725 7  97317351.49345
     -4088.409       -3185.770
  22248539.470    22248539.0064   22248543.0004  116916850.559 7  91104079.00045
      1424.417        1109.936
  22788577.771    22788577.5314   22788580.7104  119754803.893 7  93315446.41345
       770.194         600.151
  24142449.996    24142449.4854   24142453.8114  126869445.728 6  98859330.42744
      2108.753        1643.180
  21951516.968    21951517.0344   21951519.5844  115355994.063 7  89887813.75146
     -1683.781       -1312.036
 08  5  2 13 19  0.0000000  0 11G 2G 6G 7G10G13G16G23G24G25G27G29
  22691153.584    22691153.1754   22691154.5124  119242815.383 7  92916498.95545
     -3824.764       -2980.334
  24725831.372    24725831.0024   24725835.3944  129935121.717 6 101248169.67343
      2632.120        2050.998
  23627553.031    23627553.2074   23627555.7164  124163644.973 7  96750913.29145
      2294.035        1787.575
  21531501.910    21531501.1574   21531504.9264  113148788.030 8  88167929.16246
      1010.389         787.313
  21742874.099    21742874.0374   21742876.3494  114259580.190 8  89033457.55145
     -2113.947       -1647.227
  22512067.604    22512066.9924   22512069.3734  118301721.523 7  92183184.76245
       344.046         268.089
  23789258.795    23789258.5184   23789259.4694  125013395.488 7  97413052.05745
     -4099.501       -3194.407
  22240453.967    22240453.4214   22240457.3484  116874360.212 7  91070969.62745
      1408.072        1097.203
  22784232.426    22784232.2964   22784235.4314  119731969.624 7  93297653.50045
       751.900         585.897
  24130440.675    24130440.1034   24130444.1674  126806335.264 6  98810153.41244
      2098.393        1635.117
  21961186.652    21961186.5474   21961189.1514  115406808.286 7  89927409.25146
     -1704.062       -1327.841
 08  5  2 13 19 30.0000000  0 11G 2G 6G 7G10G13G16G23G24G25G27G29
  22713024.985    22713024.6414   22713025.8084  119357750.293 7  93006058.60145
     -3837.917       -2990.582
  24710825.936    24710825.4074   24710829.3864  129856267.948 6 101186725.23343
      2624.418        2044.994
  23614492.408    23614492.5014   23614495.2364  124095010.222 7  96697431.61545
      2281.251        1777.608
  21525788.329    21525787.5024   21525791.2924  113118762.826 8  88144532.93446
       990.904         772.136
  21755000.988    21755000.9394   21755003.1294  114323307.165 8  89083114.93145
     -2134.909       -1663.563
  22510160.144    22510159.6694   22510161.8694  118291697.845 7  92175374.11745
       323.791         252.304
  23812691.262    23812690.7774   23812692.1144  125136534.828 7  97509004.76045
     -4110.131       -3202.692
  22232459.924    22232459.7544   22232463.5764  116832352.432 7  91038236.25745
      1392.059        1084.717
  22779990.319    22779989.9544   22779993.1674  119709676.070 7  93280281.91445
       733.936         571.903
  24118488.569    24118488.0864   24118491.9234  126743526.529 7  98761211.54744
      2088.437        1627.354
  21970970.246    21970970.3724   21970973.0784  115458222.513 7  89967472.22346
     -1723.982       -1343.363
 08  5  2 13 20  0.0000000  0 11G 2G 6G 7G10G13G16G23G24G25G27G29
  22734972.675    22734972.0774   22734973.3974  119473084.876 7  93095929.67245
     -3850.948       -3000.735
  24695865.798    24695865.4664   24695869.7714  129777652.063 6 101125466.14744
      2616.702        2038.995
  23601505.911    23601506.2104   23601508.7384  124026766.496 7  96644254.67945
      2268.431        1767.609
  21520187.340    21520186.4324   21520190.2484  113089329.371 8  88121597.84346
       971.380         756.918
  21767248.716    21767248.7014   21767250.8454  114387669.561 7  89133267.42145
     -2155.855       -1679.891
  22508369.918    22508369.2674   22508371.7694  118282290.152 7  92168043.45845
       303.483         236.477
  23836185.741    23836185.6604   23836186.5134  125259998.572 7  97605210.24945
     -4120.695       -3210.930
  22224559.173    22224558.8134   22224562.9774  116790833.453 7  91005883.79145
      1375.960        1072.176
  22775851.903    22775851.4574   22775854.5954  119687928.585 7  93263335.83445
       715.997         557.922
  24106594.762    24106594.2754   24106598.5334  126681025.397 7  98712509.36044
      2078.373        1619.507
  21980869.061    21980868.9914   21980871.4894  115510240.019 7  90008005.40646
     -1743.806       -1358.809
 08  5  2 13 20 30.0000000  0 11G 2G 6G 7G10G13G16G23G24G25G27G29
  22756994.579    22756994.1244   22756995.4564  119588811.727 7  93186106.43645
     -3863.932       -3010.854
  24680950.621    24680950.5004   24680954.4994  129699272.363 6 101064391.11144
      2608.836        2032.849
  23588593.922    23588593.8044   23588596.5804  123958912.272 7  96591381.24545
      2255.434        1757.476
  21514698.304    21514697.4134   21514701.2684  113060485.269 8  88099121.92646
       951.770         741.641
  21779616.276    21779616.2494   21779618.5214  114452661.528 8  89183910.50245
     -2176.731       -1696.157
  22506696.174    22506695.7114   22506698.1184  118273495.209 7  92161190.26245
       283.067         220.568
  23859740.648    23859740.2244   23859741.0424  125383779.685 7  97701663.04145
     -4131.193       -3219.106
  22216750.836    22216750.5814   22216754.6254  116749800.331 7  90973909.95745
      1359.755        1059.549
  22771816.750    22771816.5414   22771819.7674  119666724.412 7  93246813.11545
       697.883         543.803
  24094759.200    24094759.0154   24094763.0254  126618830.044 6  98664045.42744
      2068.167        1611.568
  21990881.242    21990881.3964   21990883.8394  115562855.242 7  90049004.31846
     -1763.675       -1374.295
 08  5  2 13 21  0.0000000  0 11G 2G 6G 7G10G13G16G23G24G25G27G29
  22779089.788    22779089.3694   22779090.5974  119704922.591 7  93276582.41445
     -3876.977       -3021.020
  24666079.435    24666079.1904   24666083.4744  129621125.184 6 101003497.23444
      2600.743        2026.554
  23575755.014    23575755.0204   23575757.8404  123891444.243 7  96538808.76845
      2242.251        1747.203
  21509320.723    21509319.8424   21509323.7454  113032225.743 8  88077101.51546
       931.975         726.214
  21792102.130    21792102.0884   21792104.4104  114518275.253 7  89235038.08545
     -2197.732       -1712.519
  22505138.236    22505137.7714   22505140.1974  118265307.911 7  92154810.55145
       262.538         204.571
  23883354.044    23883353.6774   23883354.7554  125507869.211 7  97798356.15945
     -4141.646       -3227.263
  22209034.141    22209033.7324   22209037.8094  116709248.635 7  90942311.19545
      1343.434        1046.832
  22767884.308    22767883.8304   22767887.1154  119646058.672 7  93230709.95545
       679.611         529.563
  24082981.642    24082981.1254   24082985.0754  126556936.697 6  98615816.81144
      2057.785        1603.472
  22001005.867    22001005.9774   22001008.7034  115616061.117 7  90090463.44246
     -1783.593       -1389.812
 08  5  2 13 21 30.0000000  0 11G 2G 6G 7G10G13G16G23G24G25G27G29
  22801258.414    22801257.9824   22801259.5344  119821419.928 7  93367359.54745
     -3889.828       -3031.033
  24651254.493    24651254.1224   24651258.4284  129543218.232 6 100942790.54644
      2592.697        2020.283
  23562991.345    23562991.2634   23562994.0884  123824370.444 6  96486543.49345
      2229.072        1736.939
  21504055.756    21504054.9464   21504058.7704  113004557.769 8  88055542.06846
       912.223         710.822
  21804707.002    21804706.9294   21804709.2934  114584514.330 7  89286652.95545
     -2218.557       -1728.747
  22503696.933    22503696.5964   22503699.1014  118257734.706 7  92148909.35445
       242.067         188.620
  23907026.646    23907026.3404   23907027.2754  125632269.491 7  97895291.41245
     -4151.975       -3235.306
  22201410.532    22201410.1334   22201414.0474  116669185.719 7  90911093.35145
      1327.130        1034.125
  22764055.255    22764055.0454   22764058.0974  119625937.900 7  93215031.44945
       661.458         515.417
  24071262.404    24071262.1274   24071266.0684  126495352.756 7  98567829.32544
      2047.471        1595.433
  22011244.012    22011243.9534   22011246.6064  115669861.656 7  90132385.90046
     -1803.392       -1405.240
 08  5  2 13 22  0.0000000  0 11G 2G 6G 7G10G13G16G23G24G25G27G29
  22823501.144    22823500.8234   22823501.9564  119938305.717 7  93458439.34345
     -3902.764       -3041.117
  24636476.039    24636475.7894   24636480.1014  129465558.550 6 100882276.55344
      2584.381        2013.795
  23550303.999    23550303.8654   23550306.7174  123757697.545 7  96434590.58745
      2215.583        1726.437
  21498904.525    21498903.6784   21498907.5244  112977487.466 7  88034448.34846
       892.216         695.237
  21817431.483    21817431.5254   21817433.6354  114651382.024 8  89338757.66445
     -2239.491       -1745.056
  22502373.686    22502373.3154   22502375.8424  118250781.182 7  92143491.01645
       221.299         172.442
  23930758.852    23930758.3984   23930759.7194  125756982.833 7  97992470.60945
     -4162.447       -3243.465
  22193880.881    22193880.5054   22193884.5624  116629618.055 7  90880261.43645
      1310.527        1021.188
  22760331.294    22760331.1494   22760334.0594  119606368.321 7  93199782.46145
       642.985         501.026
  24059603.587    24059603.0984   24059607.0944  126434084.988 6  98520088.21944
      2036.864        1587.162
  22021595.819    22021595.7554   22021598.3254  115724260.623 7  90174774.70546
     -1823.370       -1420.804
 08  5  2 13 22 30.0000000  0 11G 2G 6G 7G10G13G16G23G24G25G27G29
  22845816.939    22845816.5174   22845817.9864  120055575.815 7  93549818.60345
     -3915.514       -3051.051
  24621745.301    24621744.8634   24621749.1694  129388146.838 6 100821955.78244
      2576.087        2007.335
  23537693.366    23537693.1574   23537695.7234  123691426.893 7  96382951.12545
      2202.152        1715.964
  21493867.012    21493866.1704   21493869.8444  112951015.115 8  88013820.55346
       872.321         679.730
  21830274.861    21830274.9374   21830277.0884  114718874.338 8  89391349.07545
     -2260.264       -1761.241
  22501168.385    22501168.0374   22501170.4854  118244446.720 7  92138555.06445
       200.701         156.388
  23954549.541    23954549.3624   23954550.2304  125882004.308 7  98089889.91245
     -4172.612       -3251.385
  22186445.794    22186445.3004   22186449.2394  116590545.496 7  90849815.33345
      1294.009        1008.311
  22756712.486    22756712.0094   22756715.0264  119587349.370 7  93184962.51745
       624.677         486.757
  24048004.921    24048004.7634   24048008.6014  126373133.809 7  98472593.77544
      2026.246        1578.891
  22032060.887    22032060.8514   22032063.5294  115779255.371 7  90217627.77646
     -1843.238       -1436.297
 08  5  2 13 23  0.0000000  0 11G 2G 6G 7G10G13G16G23G24G25G27G29
  22868205.788    22868205.2964   22868206.6344  120173229.758 7  93641496.97845
     -3928.128       -3060.882
  24607062.510    24607061.8524   24607066.1834  129310987.770 6 100761831.87244
      2567.803        2000.875
  23525159.692    23525159.7814   23525162.2404  123625563.747 7  96331629.20745
      2188.671        1705.454
  21488943.977    21488943.0124   21488946.6974  112925143.941 7  87993661.20146
       852.392         664.199
  21843237.228    21843237.2054   21843239.3394  114786991.845 8  89444427.66745
     -2280.928       -1777.348
  22500081.586    22500081.0034   22500083.4784  118238734.295 7  92134103.82045
       180.080         140.323
  23978398.921    23978398.5984   23978399.6234  126007333.607 7  98187549.06945
     -4182.695       -3259.240
  22179105.549    22179105.0604   22179109.1234  116551972.026 7  90819758.10445
      1277.493         995.441
  22753198.361    22753198.2914   22753201.1714  119568884.582 7  93170574.38845
       606.294         472.441
  24036467.413    24036467.1254   24036471.1064  126312503.711 6  98425349.54344
      2015.685        1570.658
  22042639.396    22042639.5804   22042642.0784  115834846.269 7  90260945.32746
     -1862.923       -1451.629
 08  5  2 13 23 30.0000000  0 11G 2G 6G 7G10G13G16G23G24G25G27G29
  22890667.008    22890666.6774   22890668.1634  120291265.230 7  93733472.65545
     -3940.800       -3070.751
  24592427.821    24592427.6104   24592431.6324  129234084.025 6 100701906.90944
      2559.215        1994.200
  23512704.309    23512704.3694   23512707.0404  123560110.639 7  96280626.81045
      2174.958        1694.777
  21484135.510    21484134.5724   21484138.2954  112899875.777 8  87973971.76046
       832.239         648.497
  21856318.230    21856318.1644   21856320.3664  114855733.304 7  89497992.45045
     -2301.717       -1793.542
  22499112.921    22499112.4164   22499115.0684  118233644.938 7  92130138.08445
       159.321         124.146
  24002306.558    24002306.1694   24002307.1364  126132968.015 7  98285445.98045
     -4192.808       -3267.125
  22171860.570    22171860.1994   22171863.9694  116513899.618 7  90790091.29745
      1260.770         982.419
  22749790.765    22749790.3044   22749793.2084  119550975.338 7  93156619.15345
       587.744         457.983
  24024991.489    24024991.2624   24024994.9674  126252196.893 7  98378357.22344
      2004.869        1562.234
  22053331.471    22053331.4294   22053333.9334  115891032.626 7  90304726.92946
     -1882.741       -1467.071
 08  5  2 13 24  0.0000000  0 11G 2G 6G 7G10G13G16G23G24G25G27G29
  22913199.938    22913199.3604   22913200.7004  120409675.345 7  93825740.26245
     -3953.110       -3080.346
  24577842.049    24577841.5964   24577845.5994  129157434.134 6 100642179.78444
      2550.825        1987.651
  23500326.635    23500326.8704   23500329.4654  123495066.086 7  96229942.74645
      2161.418        1684.228
  21479441.330    21479440.4304   21479444.2974  112875208.049 8  87954750.17046
       812.331         632.987
  21869516.836    21869516.7914   21869519.0764  114925092.841 7  89552038.83645
     -2322.167       -1809.472
  22498262.502    22498262.1594   22498264.5864  118229176.061 7  92126655.83045
       138.732         108.105
  24026270.753    24026270.2764   24026271.6084  126258900.632 7  98383575.26744
     -4202.578       -3274.734
  22164710.489    22164710.1844   22164713.9874  116476326.072 7  90760813.22345
      1244.219         969.520
  22746487.826    22746487.5594   22746490.4134  119533619.254 7  93143094.95445
       569.405         443.695
  24013576.481    24013576.2734   24013580.3554  126192211.772 6  98331615.57044
      1994.222        1553.936
  22064136.030    22064135.8244   22064138.3384  115947809.775 7  90348968.85546
     -1902.323       -1482.328
 08  5  2 13 24 30.0000000  0 11G 2G 6G 7G10G13G16G23G24G25G27G29
  22636011.736    22636011.2564   22636012.4964  118953041.705 7  92690701.06345
     -3965.730       -3090.179
  24263511.798    24263511.2534   24263515.2484  127505617.842 6  99355050.23544
      2541.994        1980.786
  23188234.609    23188234.5084   23188237.4504  121855010.755 7  94951977.56745
      2147.384        1673.286
  21175068.938    21175068.0614   21175072.0554  111275721.488 8  86708397.02546
       791.976         617.124
  21583040.860    21583040.7694   21583043.0634  113419650.833 7  88378967.13845
     -2342.928       -1825.660
  22197737.954    22197737.5244   22197739.9634  116649908.405 7  90896057.64945
       117.752          91.755
  23750499.503    23750499.1954   23750500.1744  124809713.325 7  97254338.38545
     -4212.628       -3282.561
  21857863.215    21857862.7844   21857866.5524  114863831.939 7  89504324.27545
      1227.243         956.295
  22443498.027    22443497.7234   22443500.6554  117941396.759 7  91902402.10145
       550.679         429.100
  23702430.867    23702430.3944   23702434.1834  124557128.780 7  97057524.91944
      1983.178        1545.327
  21775260.111    21775260.2554   21775262.8174  114429758.080 7  89166071.37946
     -1922.183       -1497.802
 08  5  2 13 25  0.0000000  0 12G 2G 6G 7G10G13G16G21G23G24G25G27G29
  22658686.039    22658685.7014   22658687.2304  119072197.257 7  92783549.56145
     -3978.126       -3099.837
  24249024.665    24249024.1254   24249028.2204  127429486.322 6  99295727.03044
      2533.244        1973.953
  23176014.785    23176014.8074   23176017.4434  121790795.256 7  94901939.52345
      2133.442        1662.427
  21170604.952    21170604.1864   21170608.0484  111252263.184 8  86690117.83846
       771.703         601.331
  21596474.387    21596474.4674   21596476.5874  113490244.834 8  88433975.43545
     -2363.514       -1841.701
  22197124.849    22197124.3494   22197127.0074  116646686.484 7  90893547.06645
        96.876          75.486
  24903334.224    24903333.7374   24903336.0804  130867891.534 6 101975003.22642
      2932.894        2285.380
  23774576.316    23774576.0664   23774577.0994  124936237.999 7  97352929.02044
     -4222.484       -3290.249
  21850904.593    21850904.3184   21850908.0044  114827264.937 7  89475830.49345
      1210.357         943.136
  22440407.030    22440406.6964   22440409.6974  117925153.844 7  91889745.30445
       532.000         414.544
  23691140.385    23691139.6824   23691144.1174  124497797.274 6  97011292.58644
      1972.114        1536.712
  21786289.477    21786289.4844   21786291.8504  114487716.111 7  89211233.45146
     -1941.824       -1513.111
 08  5  2 13 25 30.0000000  0 12G 2G 6G 7G10G13G16G21G23G24G25G27G29
  22681431.799    22681431.4004   22681432.7124  119191726.222 7  92876689.02545
     -3990.537       -3109.510
  24234588.067    24234587.5644   24234591.5704  127353622.627 6  99236612.52444
      2524.262        1966.955
  23163875.641    23163875.6784   23163878.2344  121727003.306 7  94852231.52245
      2119.287        1651.392
  21166257.219    21166256.3604   21166260.3944  111229415.664 8  86672314.54846
       751.375         585.486
  21610025.898    21610025.8644   21610028.2024  113561458.375 7  88489466.50445
     -2384.112       -1857.743
  22196631.593    22196631.0974   22196633.3314  116644094.103 7  90891527.02445
        75.890          59.137
  24886602.353    24886601.8744   24886604.6664  130779965.016 6 101906489.18142
      2928.787        2282.179
  23798709.551    23798709.3574   23798710.3514  125063059.295 7  97451750.77044
     -4232.331       -3297.913
  21844043.530    21844043.1074   21844046.8194  114791208.637 7  89447734.68145
      1193.318         929.853
  22437423.250    22437422.8974   22437425.9234  117909474.281 7  91877527.48345
       513.253         399.938
  23679913.949    23679913.3664   23679917.2544  124438800.409 7  96965321.02544
      1960.959        1528.020
  21797431.414    21797431.3184   21797433.8584  114546267.626 7  89256857.98046
     -1961.628       -1528.541
 08  5  2 13 26  0.0000000  0 12G 2G 6G 7G10G13G16G21G23G24G25G27G29
  22704248.460    22704248.0744   22704249.4564  119311628.995 7  92970119.72845
     -4003.026       -3119.239
  24220203.517    24220202.9944   24220207.4274  127278031.902 6  99177710.69444
      2515.032        1959.763
  23151817.861    23151818.0154   23151820.6014  121663639.856 7  94802857.42545
      2104.849        1640.139
  21162026.574    21162025.8324   21162029.8084  111207183.848 8  86654991.04446
       730.722         569.396
  21623695.435    21623695.3854   21623697.6334  113633292.249 8  88545440.95445
     -2404.844       -1873.905
  22196258.788    22196258.2234   22196260.6874  116642135.041 7  90890000.50045
        54.659          42.589
  24869894.935    24869894.3694   24869897.5134  130692167.052 6 101838075.25242
      2924.375        2278.751
  23822899.494    23822899.0974   23822899.9644  125190177.226 7  97550803.68444
     -4242.261       -3305.657
  21837280.012    21837280.0074   21837283.7214  114755667.778 7  89420040.52345
      1176.028         916.386
  22434547.485    22434547.1694   22434550.0954  117894362.025 7  91865751.73545
       494.186         385.078
  23668751.638    23668751.0674   23668755.2114  124380143.206 7  96919614.12844
      1949.463        1519.056
  21808686.691    21808686.7414   21808689.1214  114605414.569 7  89302946.55146
     -1981.538       -1544.055
 08  5  2 13 26 30.0000000  0 12G 2G 6G 7G10G13G16G21G23G24G25G27G29
  22727135.274    22727134.6664   22727136.1034  119431899.608 7  93063837.08645
     -4014.875       -3128.479
  24205870.791    24205870.4364   24205874.5864  127202713.339 6  99119020.93444
      2506.282        1952.947
  23139841.679    23139841.7504   23139844.4224  121600705.038 7  94753817.36645
      2090.876        1629.252
  21157912.834    21157911.9864   21157916.0834  111185565.955 8  86638145.94146
       710.538         553.666
  21637482.130    21637481.9884   21637484.0964  113705741.239 7  88601894.70745
     -2425.015       -1889.620
  22196006.197    22196005.5674   22196007.9014  116640806.665 7  90888965.40245
        33.957          26.461
  24853211.734    24853210.9054   24853213.4644  130604496.798 6 101769760.82642
      2920.350        2275.585
  23847144.488    23847144.1594   23847145.2804  125317585.829 7  97650083.08444
     -4251.577       -3312.923
  21830614.761    21830614.3754   21830618.0224  114720640.273 7  89392746.32245
      1159.213         903.283
  22431779.295    22431778.9394   22431781.9794  117879815.071 7  91854416.48145
       475.643         370.626
  23657653.971    23657653.4464   23657657.4174  124321824.530 7  96874171.01744
      1938.519        1510.529
  21820054.457    21820054.4224   21820056.8084  114665152.056 7  89349495.18946
     -2000.860       -1559.108
 08  5  2 13 27  0.0000000  0 12G 2G 6G 7G10G13G16G21G23G24G25G27G29
  22750091.328    22750090.9754   22750092.3834  119552534.544 7  93157838.32845
     -4027.153       -3138.043
  24191590.241    24191590.1484   24191594.2564  127127668.541 6  99060544.50044
      2496.923        1945.647
  23127947.435    23127947.3704   23127950.1764  121538199.800 7  94705112.01145
      2076.310        1617.905
  21153915.983    21153915.2424   21153919.1564  111164562.585 8  86621779.66646
       689.864         537.558
  21651385.315    21651385.2384   21651387.3054  113778802.682 7  88658825.70045
     -2445.546       -1905.621
  22195873.238    22195872.7944   22195874.9674  116640108.928 7  90888421.71245
        12.741           9.928
  24836553.121    24836552.8924   24836554.4874  130516954.957 6 101701546.40443
      2915.876        2272.103
  23871444.261    23871443.7574   23871444.9764  125445281.513 7  97749586.18444
     -4261.255       -3320.460
  21824047.214    21824046.7204   21824050.5864  114686127.106 8  89365852.94845
      1141.857         889.760
  22429118.639    22429118.1244   22429121.3084  117865833.670 7  91843521.90945
       456.613         355.801
  23646620.681    23646620.5504   23646624.3234  124263845.699 7  96828992.73444
      1926.947        1501.513
  21831534.069    21831534.0804   21831536.6584  114725477.473 7  89396501.84046
     -2020.637       -1574.516
 08  5  2 13 27 30.0000000  0 12G 2G 6G 7G10G13G16G21G23G24G25G27G29
  22773115.865    22773115.5534   22773116.8724  119673529.516 7  93252120.09845
     -4039.003       -3147.276
  24177361.941    24177361.6664   24177365.8304  127052898.069 6  99002281.81544
      2487.871        1938.606
  23116135.080    23116135.0344   23116137.7274  121476125.303 7  94656742.31345
      2062.091        1606.830
  21150036.164    21150035.2554   21150039.1234  111144173.045 8  86605891.72346
       669.544         521.724
  21665404.022    21665404.1904   21665406.2744  113852472.538 8  88716230.78745
     -2465.625       -1921.266
  22195860.382    22195859.8254   22195862.2034  116640041.254 7  90888368.97545
        -8.090          -6.299
  24819918.573    24819918.6854   24819920.5144  130429542.091 6 101633432.48643
      2911.703        2268.853
  23895797.651    23895797.2594   23895798.4264  125573259.572 7  97849309.31744
     -4270.471       -3327.634
  21817577.320    21817576.9084   21817580.7484  114652128.248 7  89339360.33145
      1124.859         876.519
  22426565.180    22426565.0664   22426568.0274  117852417.101 7  91833067.50545
       437.945         341.257
  23635652.336    23635652.0074   23635655.9854  124206207.125 7  96784079.58344
      1915.750        1492.795
  21843125.138    21843125.0484   21843127.5804  114786388.671 8  89443965.13446
     -2039.960       -1589.577
 08  5  2 13 28  0.0000000  0 12G 2G 6G 7G10G13G16G21G23G24G25G27G29
  22796208.203    22796207.9364   22796209.4164  119794881.682 7  93346680.24645
     -4051.118       -3156.716
  24163186.029    24163185.8784   24163189.8944  126978404.434 6  98944234.83144
      2478.360        1931.177
  23104405.059    23104405.0124   23104407.5694  121414484.082 7  94608710.25245
      2047.328        1595.317
  21146272.973    21146272.1414   21146276.2514  111124398.382 8  86590482.89446
       648.780         505.543
  21679538.503    21679538.4014   21679540.5534  113926749.295 7  88774108.77745
     -2486.093       -1937.215
  22195967.425    22195966.9384   22195969.1564  116640603.835 7  90888807.36145
       -29.392         -22.908
  24803309.872    24803309.3814   24803312.3334  130342260.441 6 101565420.83943
      2907.071        2265.241
  23920204.283    23920203.6614   23920205.2314  125701516.999 7  97949250.15144
     -4279.967       -3335.038
  21811205.614    21811205.2794   21811209.1434  114618645.099 7  89313269.55945
      1107.384         862.896
  22424119.904    22424119.6684   22424122.6634  117839566.451 7  91823054.04945
       418.814         326.348
  23624749.338    23624749.1664   23624752.8424  124148910.575 7  96739432.94844
      1904.010        1483.649
  21854827.249    21854827.2094   21854829.6814  114847883.968 7  89491883.57346
     -2059.693       -1604.960
 08  5  2 13 28 30.0000000  0 12G 2G 6G 7G10G13G16G21G23G24G25G27G29
  22819369.127    22819368.7714   22819369.9464  119916591.848 7  93441519.30145
     -4063.059       -3166.020
  24149064.324    24149064.0914   24149068.0174  126904193.604 6  98886408.28544
      2468.838        1923.774
  23092758.621    23092758.6784   23092761.3034  121353282.194 7  94561020.52745
      2032.607        1583.853
  21142628.162    21142627.1504   21142631.2244  111105243.382 8  86575556.91446
       628.056         489.392
  21693788.754    21693788.6654   21693790.8514  114001634.530 7  88832460.88245
     -2506.401       -1953.041
  22196195.360    22196194.8064   22196197.0324  116641801.186 7  90889740.37845
       -50.616         -39.445
  24786726.918    24786726.2304   24786728.2994  130255115.594 6 101497515.76743
      2902.432        2261.642
  23944664.166    23944663.8104   23944664.8064  125830054.764 7  98049409.41944
     -4289.321       -3342.324
  21804933.205    21804932.7884   21804936.8194  114585683.064 7  89287584.86145
      1089.934         849.303
  22421783.425    22421782.8054   22421785.6874  117827286.367 7  91813485.19345
       399.727         311.472
  23613912.225    23613911.5004   23613915.8334  124091962.084 6  96695057.58144
      1892.328        1474.540
  21866640.907    21866640.9114   21866643.3814  114909965.341 7  89540258.68146
     -2079.195       -1620.160
 08  5  2 13 29  0.0000000  0 12G 2G 6G 7G10G13G16G21G23G24G25G27G29
  22842597.799    22842597.3984   22842598.8284  120038659.248 7  93536636.77245
     -4074.844       -3175.203
  24134997.190    24134996.6714   24135000.8174  126830269.737 6  98828805.29944
      2459.298        1916.340
  23081196.700    23081196.7604   23081199.3784  121292524.214 7  94513676.70045
      2017.832        1572.336
  21139101.456    21139100.6644   21139104.7264  111086711.607 8  86561116.56746
       607.307         473.224
  21708154.645    21708154.5534   21708156.8784  114077128.035 7  88891286.94545
     -2526.565       -1968.754
  22196544.355    22196543.8314   22196546.2934  116643635.751 7  90891169.89645
       -71.795         -55.942
  24770170.143    24770169.7034   24770172.3734  130168111.699 6 101429720.55143
      2897.755        2257.971
  23969177.009    23969176.6234   23969178.3024  125958871.906 7  98149786.38644
     -4298.542       -3349.515
  21798760.678    21798760.0224   21798764.1954  114553245.219 8  89262308.50745
      1072.501         835.721
  22419555.504    22419555.2064   22419558.0614  117815579.861 7  91804363.30145
       380.664         296.619
  23603142.474    23603141.8634   23603145.6734  124035365.464 6  96650956.38944
      1880.675        1465.456
  21878566.135    21878566.2134   21878568.6984  114972633.147 7  89589090.76846
     -2098.662       -1635.318
 08  5  2 13 29 30.0000000  0 12G 2G 6G 7G10G13G16G21G23G24G25G27G29
  22865895.614    22865894.8194   22865896.0014  120161088.597 7  93632036.22945
     -4086.874       -3184.569
  24120986.187    24120986.1964   24120989.9784  126756642.721 6  98771433.61644
      2449.351        1908.583
  23069721.379    23069721.2654   23069723.9894  121232220.016 7  94466686.47245
      2002.587        1560.455
  21135695.251    21135694.4074   21135698.3424  111068811.531 8  86547168.48846
       586.184         456.761
  21722637.421    21722637.2924   21722639.5764  114153235.138 8  88950591.17545
     -2547.087       -1984.743
  22197016.061    22197015.8524   22197018.1854  116646115.678 7  90893102.29045
       -93.377         -72.765
  24753642.718    24753642.1964   24753644.2974  130081257.416 6 101362041.89343
      2892.628        2254.005
  23993744.236    23993743.9214   23993745.3034  126087972.798 7  98250384.46344
     -4308.038       -3356.915
  21792689.273    21792688.8484   21792692.8694  114521341.138 8  89237448.25745
      1054.616         821.777
  22417438.496    22417438.1964   22417441.1054  117804455.206 7  91795694.77745
       361.183         281.441
  23592440.904    23592440.3784   23592444.6504  123979130.065 7  96607136.65744
      1868.514        1455.979
  21890604.142    21890604.2094   21890606.6554  115035893.804 7  89638384.83546
     -2118.531       -1650.802
 08  5  2 13 30  0.0000000  0 12G 2G 6G 7G10G13G16G21G23G24G25G27G29
  22889260.910    22889260.4974   22889261.6954  120283875.050 7  93727713.92845
     -4098.661       -3193.766
  24107032.174    24107031.7154   24107035.6954  126683312.689 6  98714293.33944
      2439.479        1900.888
  23058332.176    23058332.1434   23058334.7954  121172369.938 7  94420050.11445
      1987.575        1548.751
  21132408.908    21132408.1124   21132412.0394  111051541.915 8  86533711.65546
       565.295         440.490
  21737235.979    21737235.9744   21737238.1914  114229951.702 7  89010370.31145
     -2567.210       -2000.422
  22197610.726    22197610.2354   22197612.6924  116649239.370 7  90895536.32245
      -114.705         -89.383
  24737142.835    24737143.1824   24737145.2734  129994553.217 6 101294480.20943
      2887.771        2250.205
  24018364.379    24018363.9804   24018365.4924  126217352.327 7  98351199.65744
     -4317.114       -3363.991
  21786719.349    21786718.9874   21786723.1584  114489969.708 7  89213002.96545
      1036.976         808.036
  22415432.022    22415431.7154   22415434.5944  117793911.271 7  91787478.74845
       341.928         266.435
  23581808.484    23581807.7334   23581811.9584  123923255.985 6  96563598.50044
      1856.529        1446.637
  21902754.140    21902754.2664   21902756.8454  115099743.498 7  89688137.88046
     -2137.945       -1665.934
 08  5  2 13 30 30.0000000  0 12G 2G 6G 7G10G13G16G21G23G24G25G27G29
  22912692.863    22912692.3474   22912693.5144  120407010.603 7  93823663.67645
     -4110.287       -3202.828
  24093133.668    24093133.5594   24093137.3064  126610276.839 6  98657382.32544
      2429.628        1893.207
  23047028.635    23047028.7634   23047031.3044  121112971.009 7  94373765.30745
      1972.416        1536.941
  21129242.007    21129241.0934   21129245.0314  111034898.904 8  86520743.05746
       544.292         424.124
  21751949.239    21751949.2214   21751951.5024  114307270.184 7  89070618.47145
     -2587.289       -2016.070
  22198326.845    22198326.2914   22198328.6944  116653002.334 7  90898468.52245
      -136.071        -106.034
  24720672.281    24720671.5194   24720673.8824  129907996.385 6 101227033.42643
      2882.713        2246.280
  24043035.746    24043035.4394   24043037.1224  126347002.596 7  98452225.80044
     -4326.143       -3371.022
  21780850.288    21780849.9664   21780853.9944  114459127.552 7  89188970.10845
      1019.265         794.234
  22413535.174    22413534.9404   22413537.9014  117783943.742 7  91779711.84845
       322.633         251.402
  23571243.928    23571243.3964   23571247.6224  123867739.847 7  96520339.25444
      1844.571        1437.325
  21915014.954    21915015.3114   21915017.9814  115164175.262 7  89738344.42646
     -2157.441       -1681.122
 08  5  2 13 31  0.0000000  0 12G 2G 6G 7G10G13G16G21G23G24G25G27G29
  22936190.388    22936189.9624   22936191.3504  120530492.424 7  93919883.22645
     -4121.761       -3211.768
  24079291.766    24079291.4984   24079295.3774  126537537.495 6  98600702.33544
      2419.733        1885.502
  23035811.653    23035811.8294   23035814.5874  121054025.801 7  94327834.01445
      1957.296        1525.160
  21126194.265    21126193.4234   21126197.3904  111018883.453 8  86508263.48546
       523.429         407.865
  21766776.534    21766776.7034   21766778.9204  114385188.736 7  89131334.23645
     -2607.228       -2031.610
  22199164.607    22199164.3124   22199166.3014  116657404.829 7  90901899.02445
      -157.394        -122.647
  24704229.187    24704228.3874   24704230.9334  129821588.633 6 101159702.75443
      2877.788        2242.444
  24067758.658    24067758.2024   24067759.6294  126476921.044 7  98553460.92344
     -4334.966       -3377.894
  21775082.331    21775081.9154   21775086.0024  114428816.015 7  89165350.72845
      1001.573         780.438
  22411748.313    22411747.9994   22411751.0324  117774553.612 7  91772394.87245
       303.414         236.423
  23560748.121    23560747.4524   23560751.4504  123812583.848 7  96477360.62844
      1832.570        1427.972
  21927386.677    21927386.6124   21927389.4004  115229187.845 7  89789003.57646
     -2176.680       -1696.111
 08  5  2 13 31 30.0000000  0 12G 2G 6G 7G10G13G16G21G23G24G25G27G29
  22959752.629    22959752.2444   22959753.5114  120654312.574 7  94016366.39845
     -4132.874       -3220.412
  24065505.803    24065505.7764   24065509.6514  126465091.777 6  98544251.13744
      2410.008        1877.929
  23024680.812    23024680.7844   23024683.3124  120995531.742 7  94282254.26745
      1942.336        1513.507
  21123265.502    21123264.5134   21123268.3914  111003491.645 8  86496269.84946
       502.723         391.737
  21781716.989    21781716.9534   21781719.0554  114463699.969 7  89192511.83045
     -2626.807       -2046.862
  22200123.268    22200122.6494   22200124.9904  116662442.257 7  90905824.29745
      -178.430        -139.034
  24687813.900    24687813.6654   24687816.1214  129735326.903 6 101092485.83043
      2873.044        2238.750
  24092530.821    24092530.5574   24092531.7064  126607099.156 7  98654898.38944
     -4343.488       -3384.535
  21769414.447    21769413.9874   21769418.0984  114399031.211 7  89142141.84945
       984.115         766.841
  22410070.486    22410070.3094   22410073.1274  117765736.561 7  91765524.44245
       284.447         221.646
  23550320.479    23550319.6524   23550323.5934  123757784.433 7  96434659.84944
      1820.748        1418.762
  21939867.486    21939867.5544   21939870.2234  115294774.333 7  89840109.89846
     -2195.664       -1710.906
 08  5  2 13 32  0.0000000  0 12G 2G 6G 7G10G13G16G21G23G24G25G27G29
  22983379.649    22983379.1594   22983380.5464  120778471.657 7  94113113.72545
     -4144.475       -3229.463
  24051777.035    24051776.4834   24051780.5644  126392945.432 6  98488033.22244
      2399.645        1869.848
  23013636.788    23013636.5814   23013639.2264  120937494.433 7  94237030.42245
      1926.712        1501.328
  21120455.956    21120455.0354   21120458.9304  110988727.836 8  86484765.55246
       481.438         375.146
  21796769.931    21796770.0174   21796772.1504  114542805.152 7  89254152.25645
     -2646.952       -2062.563
  22201203.348    22201202.8524   22201205.0984  116668118.169 7  90910247.07545
      -200.109        -155.932
  24671427.705    24671427.2024   24671429.7144  129649216.148 6 101025386.57343
      2867.585        2234.492
  24117352.503    24117352.2684   24117353.6514  126737537.856 7  98756538.90444
     -4352.505       -3391.563
  21763847.676    21763847.3624   21763851.1594  114369777.889 7  89119347.10345
       966.010         752.735
  22408502.542    22408502.1814   22408505.0404  117757496.793 7  91759103.84945
       264.806         206.339
  23539961.195    23539960.4724   23539964.4204  123703347.111 6  96392241.21744
      1808.269        1409.036
  21952457.926    21952457.8804   21952460.4384  115360936.468 7  89891664.68646
     -2215.189       -1726.122
 08  5  2 13 32 30.0000000  0 12G 2G 6G 7G10G13G16G21G23G24G25G27G29
  23007070.913    23007070.3044   23007071.5404  120902969.448 7  94210124.96645
     -4155.667       -3238.186
  24038105.791    24038105.4754   24038109.2784  126321103.193 6  98432052.28344
      2389.565        1861.999
  23002680.259    23002680.3384   23002682.8264  120879918.927 7  94192166.43045
      1911.373        1489.379
  21117766.505    21117765.8224   21117769.6094  110974595.377 8  86473753.25746
       460.455         358.794
  21811936.341    21811936.3414   21811938.5784  114622504.639 7  89316255.74945
     -2666.577       -2077.849
  22202405.399    22202404.9754   22202407.2724  116674435.900 7  90915169.99345
      -221.367        -172.494
  24655071.025    24655070.7014   24655073.2464  129563261.360 6 100958408.86943
      2862.465        2230.499
  24142223.885    24142223.4204   24142224.5684  126868236.453 7  98858381.94244
     -4361.010       -3398.188
  21758382.710    21758382.3244   21758386.3934  114341060.064 7  89096969.62845
       948.214         738.867
  22407045.131    22407044.9154   22407047.4924  117749837.789 7  91753135.80645
       245.501         191.298
  23529671.884    23529671.1594   23529675.2564  123649276.298 7  96350108.15144
      1796.136        1399.589
  21965157.948    21965157.8724   21965160.4954  115427675.508 7  89943669.02246
     -2234.322       -1741.026
 08  5  2 13 33  0.0000000  0 12G 2G 6G 7G10G13G16G21G23G24G25G27G29
  23030827.576    23030827.1734   23030828.4644  121027811.625 7  94307404.55445
     -4167.050       -3247.051
  24024494.546    24024494.2264   24024498.0904  126249575.998 6  98376316.84444
      2379.017        1853.776
  22991813.881    22991814.0504   22991816.4704  120822816.161 7  94147670.81245
      1895.577        1477.079
  21115199.397    21115198.4924   21115202.3554  110961103.982 8  86463240.48146
       439.059         342.123
  21827216.958    21827216.8204   21827219.0374  114702804.470 7  89378827.06245
     -2686.576       -2093.435
  22203731.559    22203731.0594   22203733.1744  116681404.361 8  90920599.95445
      -243.107        -189.431
  24638745.721    24638745.1834   24638747.2164  129477472.758 6 100891560.66143
      2856.838        2226.113
  24167145.253    24167145.0554   24167146.1644  126999200.482 7  98960431.81444
     -4369.793       -3405.033
  21753021.612    21753021.2774   21753025.4614  114312887.716 7  89075017.16845
       930.022         724.694
  22405700.004    22405699.7714   22405702.3434  117742768.782 7  91747627.52145
       225.861         175.998
  23519454.033    23519453.7004   23519457.2224  123595582.593 7  96308268.94744
      1783.566        1389.790
  21977969.120    21977969.0014   21977971.7164  115494998.097 7  89996128.11346
     -2253.725       -1756.142
 08  5  2 13 33 30.0000000  0 12G 2G 6G 7G10G13G16G21G23G24G25G27G29
  23054648.347    23054647.7334   23054649.1744  121152990.373 7  94404946.35845
     -4178.176       -3255.716
  24010942.639    24010942.2474   24010946.1244  126178361.094 6  98320824.76444
      2368.590        1845.653
  22981037.176    22981037.1824   22981039.4974  120766183.334 7  94103541.35745
      1879.889        1464.845
  21112753.083    21112752.3574   21112756.1624  110948249.677 8  86453224.16546
       417.856         325.604
  21842610.403    21842610.3424   21842612.7404  114783697.625 7  89441860.70445
     -2706.295       -2108.796
  22205180.538    22205180.1034   22205182.2724  116689018.659 7  90926533.18445
      -264.558        -206.150
  24622452.047    24622451.6274   24622453.9804  129391848.276 6 100824840.36243
      2851.453        2221.906
  24192115.944    24192115.7304   24192116.6924  127130422.158 7  99062682.43544
     -4378.323       -3411.670
  21747763.811    21747763.4664   21747767.4004  114285257.166 8  89053486.85045
       911.983         710.641
  22404466.438    22404465.8874   22404468.6434  117736285.583 7  91742575.70645
       206.337         160.782
  23509307.461    23509307.2484   23509311.0284  123542262.893 7  96266721.19044
      1771.111        1380.089
  21990890.094    21990889.9464   21990892.6274  115562897.652 7  90049036.73046
     -2272.918       -1771.105
 08  5  2 13 34  0.0000000  0 12G 2G 6G 7G10G13G16G21G23G24G25G27G29
  23078532.233    23078531.7234   23078533.2374  121278501.204 7  94502746.99445
     -4189.166       -3264.284
  23997450.683    23997450.2164   23997454.0914  126107458.903 6  98265576.33444
      2358.160        1837.534
  22970349.718    22970349.6944   22970352.1724  120710021.035 7  94059778.57145
      1864.254        1452.669
  21110428.147    21110427.3004   21110431.1574  110936031.411 8  86443703.43446
       396.706         309.123
  21858115.924    21858115.8314   21858118.2014  114865179.987 7  89505353.44645
     -2725.834       -2124.029
  22206752.160    22206751.7374   22206754.1974  116697277.783 7  90932968.88645
      -286.025        -222.874
  24606189.296    24606188.6434   24606191.4034  129306387.387 6 100758247.53243
      2845.973        2217.649
  24217134.700    24217134.5404   24217135.9554  127261896.580 7  99165130.00544
     -4386.617       -3418.138
  21742609.111    21742608.6674   21742612.5834  114258167.940 7  89032378.32145
       893.955         696.594
  22403343.976    22403343.4874   22403346.1464  117730387.008 7  91737979.42045
       186.886         145.631
  23499232.501    23499231.7574   23499235.9784  123489317.486 7  96225465.09544
      1758.618        1370.346
  22003919.933    22003919.7994   22003922.6734  115631371.006 7  90102392.61446
     -2291.948       -1785.933
 08  5  2 13 34 30.0000000  0 12G 2G 6G 7G10G13G16G21G23G24G25G27G29
  23102477.478    23102477.0994   23102478.5294  121404335.163 7  94600799.39745
     -4199.712       -3272.502
  23984016.873    23984016.7144   23984020.4894  126036865.732 6  98210568.71344
      2348.053        1829.647
  22959751.324    22959751.3934   22959753.6404  120654325.696 7  94016379.65345
      1848.849        1440.637
  21108223.165    21108222.3654   21108226.1604  110924444.182 8  86434674.42546
       375.805         292.834
  21873731.889    21873731.8994   21873734.2134  114947243.243 7  89569298.84445
     -2745.019       -2138.978
  22208445.379    22208444.7744   22208447.1114  116706175.523 7  90939902.19445
      -307.157        -239.351
  24589957.127    24589956.5284   24589958.9224  129221085.940 6 100691778.85943
      2840.824        2213.648
  24242199.898    24242199.7444   24242201.1244  127393615.131 7  99267767.80844
     -4394.579       -3424.350
  21737556.152    21737555.6984   21737559.8814  114231615.313 7  89011687.91345
       876.197         682.753
  22402331.508    22402331.2184   22402333.8634  117725067.827 7  91733834.63245
       167.728         130.694
  23489227.708    23489227.2164   23489231.0484  123436741.931 7  96184497.17945
      1746.422        1360.851
  22017057.529    22017057.5264   22017060.3034  115700410.302 7  90156189.54746
     -2310.639       -1800.504
 08  5  2 13 35  0.0000000  0 12G 2G 6G 7G10G13G16G21G23G24G25G27G29
  23126483.893    23126483.6454   23126484.8834  121530489.435 7  94699101.45145
     -4210.558       -3280.955
  23970642.711    23970642.6524   23970646.2164  125966583.874 6  98155803.65644
      2337.344        1821.309
  22949241.956    22949242.2034   22949244.5674  120599099.842 7  93973346.54345
      1832.906        1428.236
  21106138.417    21106137.5734   21106141.3654  110913488.875 8  86426137.83446
       354.492         276.230
  21889458.164    21889458.2994   21889460.4344  115029885.117 8  89633695.10045
     -2764.487       -2154.148
  22210260.104    22210259.7314   22210261.9494  116715712.411 7  90947333.52945
      -328.659        -256.099
  24573755.430    24573755.0454   24573757.3944  129135946.350 6 100625436.31443
      2835.101        2209.179
  24267311.135    24267310.9224   24267312.4224  127525574.915 7  99370593.57544
     -4402.746       -3430.712
  21732605.645    21732605.4384   21732609.5854  114205600.413 7  88991416.39245
       858.060         668.619
  22401429.948    22401429.4774   22401432.0344  117720328.872 7  91730141.94545
       148.143         115.441
  23479293.294    23479292.9574   23479296.8754  123384538.101 7  96143818.89744
      1733.765        1350.986
  22030302.562    22030302.5714   22030305.4114  115770013.744 7  90210426.14545
     -2329.672       -1815.329
 08  5  2 13 35 30.0000000  0 12G 2G 6G 7G10G13G16G21G23G24G25G27G29
  23150551.125    23150550.9354   23150552.7894  121656964.311 7  94797653.29845
     -4221.169       -3289.217
  23957328.961    23957328.3334   23957332.3224  125896618.639 6  98101285.31344
      2326.826        1813.110
  22938823.218    22938823.2814   22938825.5874  120544348.501 7  93930683.14645
      1817.065        1415.888
  21104174.862    21104173.9064   21104177.7554  110903169.573 8  86418096.82146
       333.332         259.738
  21905294.670    21905294.6044   21905296.8214  115113106.102 7  89698542.60445
     -2783.719       -2169.127
  22212197.383    22212196.6474   22212199.0204  116725891.621 7  90955265.38945
      -350.047        -272.761
  24557585.873    24557585.3384   24557587.1664  129050973.798 6 100559223.91843
      2829.557        2204.852
  24292468.140    24292467.8914   24292468.8524  127657775.898 7  99473607.29644
     -4410.752       -3436.945
  21727758.615    21727758.1714   21727762.4374  114180127.871 7  88971567.53045
       839.985         654.535
  22400639.000    22400638.7784   22400641.3734  117716173.838 7  91726904.27545
       128.728         100.303
  23469431.204    23469430.6134   23469434.4444  123332711.106 7  96103434.23144
      1721.222        1341.213
  22043655.091    22043655.3734   22043658.0104  115840182.259 7  90265102.80446
     -2348.422       -1829.938
 08  5  2 13 36  0.0000000  0 12G 2G 6G 7G10G13G16G21G23G24G25G27G29
  23174677.544    23174677.2374   23174678.2904  121783748.709 7  94896446.30045
     -4231.428       -3297.213
  23944074.144    23944073.6134   23944077.5604  125826964.166 6  98047009.09644
      2316.407        1804.995
  22928493.431    22928493.5034   22928496.0294  120490065.700 7  93888384.87845
      1801.394        1403.681
  21102330.696    21102329.8874   21102333.6484  110893478.839 8  86410545.61646
       312.367         243.400
  21921239.306    21921239.4714   21921241.6114  115196896.256 7  89763833.62345
     -2802.653       -2183.884
  22214254.987    22214254.4674   22214256.5274  116736705.384 7  90963691.69845
      -371.216        -289.258
  24541446.745    24541446.7064   24541448.6984  128966162.237 6 100493137.02743
      2824.149        2200.629
  24317668.861    24317668.6454   24317670.0684  127790206.847 7  99576800.21444
     -4418.353       -3442.878
  21723013.352    21723012.9404   21723017.1814  114155190.993 7  88952136.15945
       822.088         640.583
  22399957.988    22399957.7284   22399960.4314  117712595.228 7  91724115.74945
       109.490          85.318
  23459639.554    23459638.9344   23459642.3454  123281254.713 7  96063338.38344
      1708.810        1331.536
  22057113.660    22057113.6614   22057116.4484  115910906.376 7  90320212.54545
     -2366.893       -1844.338
 08  5  2 13 36 30.0000000  0 12G 2G 6G 7G10G13G16G21G23G24G25G27G29
  23198864.732    23198864.2804   23198865.6264  121910852.635 7  94995488.24445
     -4242.201       -3305.609
  23930881.163    23930881.0834   23930884.8724  125757635.731 6  97992986.96044
      2305.358        1796.393
  22918255.809    22918255.8254   22918258.5074  120436267.197 7  93846464.01945
      1785.064        1390.959
  21100608.892    21100607.8764   21100611.7484  110884430.251 8  86403494.75746
       290.791         226.591
  21937294.402    21937294.4874   21937296.5464  115281266.023 7  89829576.29945
     -2822.081       -2199.022
  22216435.989    22216435.5214   22216437.5734  116748166.814 7  90972622.68345
      -392.965        -306.204
  24525341.049    24525340.2724   24525342.6814  128881526.073 6 100427186.83543
      2818.108        2195.927
  24342915.684    24342915.1134   24342916.2904  127922878.012 7  99680180.29444
     -4426.485       -3449.204
  21718372.408    21718372.0964   21718376.4094  114130803.890 8  88933133.30645
       803.627         626.207
  22399389.328    22399389.0714   22399391.8744  117709606.659 7  91721787.00245
        89.647          69.854
  23449920.823    23449920.2324   23449923.9584  123230183.512 7  96023542.65344
      1695.814        1321.417
  22070679.941    22070679.7164   22070682.5654  115982197.298 7  90375764.00946
     -2385.941       -1859.177
 08  5  2 13 37  0.0000000  0 12G 2G 6G 7G10G13G16G21G23G24G25G27G29
  23223112.394    23223112.0854   23223113.3744  122038275.707 7  95094778.95545
     -4252.830       -3313.888
  23917751.580    23917750.9294   23917755.0984  125688637.624 6  97939222.21544
      2294.326        1787.784
  22908111.392    22908111.4544   22908113.7574  120382957.271 7  93804923.81845
      1768.782        1378.271
  21099009.749    21099008.8244   21099012.7134  110876027.050 8  86396946.82146
       269.285         209.833
  21953459.863    21953459.6624   21953461.9034  115366214.824 7  89895770.17345
     -2841.302       -2213.998
  22218740.664    22218740.1954   22218742.6884  116760278.462 7  90982060.34045
      -414.602        -323.059
  24509269.237    24509268.7664   24509271.3654  128797069.700 6 100361376.73243
      2812.143        2191.285
  24368207.492    24368207.2824   24368208.9734  128055788.580 6  99783746.92944
     -4434.391       -3455.363
  21713837.063    21713836.5824   21713840.7624  114106969.715 7  88914561.30245
       785.206         611.845
  22398933.561    22398933.1504   22398935.9064  117707210.849 7  91719920.14545
        69.930          54.494
  23440276.373    23440276.1284   23440279.5394  123179501.802 7  95984050.40444
      1682.829        1311.297
  22084353.935    22084353.7454   22084356.5204  116054055.023 7  90431757.04145
     -2404.707       -1873.788
 08  5  2 13 37 30.0000000  0 12G 2G 6G 7G10G13G16G21G23G24G25G27G29
  23247421.074    23247420.5584   23247421.9004  122166016.537 7  95194317.21045
     -4263.083       -3321.880
  23904685.108    23904684.6824   23904688.3574  125619974.031 6  97885718.13244
      2283.430        1779.288
  22898060.505    22898060.6054   22898063.0534  120330139.718 7  93763767.27445
      1752.625        1365.688
  21097533.731    21097532.9094   21097536.8744  110868271.466 8  86390903.51846
       247.951         193.208
  21969735.038    21969735.0244   21969736.9344  115451742.325 7  89962414.98145
     -2860.317       -2228.818
  22221169.507    22221168.9914   22221171.4954  116773042.005 7  90992005.94845
      -436.088        -339.812
  24493233.197    24493232.1874   24493234.6914  128712797.427 6 100295710.05143
      2806.232        2186.673
  24393544.939    24393544.7284   24393546.0344  128188937.577 6  99887499.34844
     -4442.002       -3461.302
  21709407.235    21709406.9344   21709411.1934  114083691.236 7  88896422.20546
       766.907         597.587
  22398590.675    22398590.4724   22398593.2094  117705410.316 7  91718517.13545
        50.309          39.202
  23430706.938    23430706.3734   23430709.9944  123129213.100 7  95944864.43045
      1669.958        1301.264
  22098136.129    22098136.0074   22098138.6464  116126479.952 7  90488192.03746
     -2423.368       -1888.336
 08  5  2 13 38  0.0000000  0 12G 2G 6G 7G10G13G16G21G23G24G25G27G29
  23271787.357    23271787.3214   23271788.8424  122294065.483 7  95294095.55245
     -4273.536       -3330.017
  23891681.583    23891681.1484   23891684.9044  125551639.915 6  97832470.77644
      2272.171        1770.517
  22888102.349    22888102.5034   22888105.0194  120277809.746 7  93722990.68045
      1736.080        1352.793
  21096180.059    21096179.1984   21096183.1134  110861157.285 8  86385360.03246
       226.336         176.366
  21986118.733    21986118.7344   21986120.8504  115537838.806 7  90029503.14245
     -2879.440       -2243.716
  22223721.086    22223720.6364   22223722.9854  116786450.422 7  91002454.04145
      -457.819        -356.740
  24477230.630    24477229.7954   24477231.8014  128628703.820 6 100230182.57743
      2799.983        2181.806
  24418925.988    24418925.4314   24418926.8844  128322314.653 7  99991429.50544
     -4449.807       -3467.393
  21705082.265    21705081.9244   21705085.9594  114060962.828 8  88878711.84645
       748.310         583.100
  22398360.064    22398359.8204   22398362.7804  117704198.409 7  91717572.78645
        30.440          23.723
  23421210.985    23421210.3124   23421214.2444  123079311.776 7  95905980.28745
      1656.762        1290.987
  22112024.055    22112024.1624   22112026.8294  116199462.841 7  90545061.79745
     -2442.150       -1902.973
 08  5  2 13 38 30.0000000  0 11G 2G 6G 7G10G13G16G21G24G25G27G29
  23296214.813    23296214.2784   23296215.4824  122422429.518 7  95394119.42545
     -4283.645       -3337.903
  23878743.072    23878742.6994   23878746.5324  125483647.630 6  97779489.78944
      2261.037        1761.836
  22878239.433    22878239.4014   22878241.9974  120225979.783 7  93682603.73845
      1719.664        1339.996
  21094950.339    21094949.5424   21094953.4034  110854695.317 8  86380324.75346
       204.840         159.616
  22002611.955    22002611.9784   22002614.2424  115624512.034 7  90097040.71145
     -2898.376       -2258.477
  22226397.549    22226397.0954   22226399.2324  116800514.051 7  91013412.68345
      -479.370        -373.533
  24461264.135    24461263.8914   24461265.9174  128544801.124 6 100164803.86943
      2793.866        2177.046
  21700863.891    21700863.5744   21700867.6464  114038795.865 7  88861438.96645
       729.835         568.694
  22398243.523    22398243.3464   22398246.0804  117703585.612 7  91717095.27445
        10.790           8.410
  23411791.045    23411790.5554   23411794.3144  123029810.036 7  95867407.51045
      1643.698        1280.810
  22126020.036    22126020.0054   22126022.8854  116273012.014 7  90602372.81946
     -2460.707       -1917.431
 08  5  2 13 39  0.0000000  0 11G 2G 6G 7G10G13G16G21G24G25G27G29
  23320699.284    23320698.8174   23320700.2854  122551096.101 7  95494379.04245
     -4294.039       -3346.003
  23865868.348    23865868.1784   23865871.8244  125415989.920 6  97726769.47844
      2249.530        1752.881
  22868470.183    22868470.4364   22868472.8824  120174642.672 7  93642600.81945
      1702.868        1326.906
  21093843.110    21093842.3434   21093846.1944  110848876.720 8  86375790.79046
       183.081         142.656
  22019212.947    22019212.8204   22019215.1534  115711750.076 7  90165018.39345
     -2917.433       -2273.331
  22229196.549    22229196.1104   22229198.1584  116815223.243 7  91024874.37145
      -501.215        -390.562
  24445333.099    24445332.5124   24445334.5594  128461081.525 7 100099567.88343
      2787.436        2172.022
  21696750.997    21696750.5024   21696754.5314  114017181.984 7  88844597.03045
       711.084         554.088
  22398239.306    22398239.0544   22398241.9144  117703563.177 7  91717077.80045
        -9.249          -7.209
  23402445.968    23402445.4384   23402448.7914  122980700.272 7  95829140.16345
      1630.282        1270.349
  22140121.648    22140121.5054   22140124.2394  116347115.919 7  90660116.07846
     -2479.513       -1932.086
 08  5  2 13 39 30.0000000  0 11G 2G 6G 7G10G13G16G21G24G25G27G29
  23345242.692    23345242.3874   23345243.5014  122680073.819 7  95594881.13145
     -4304.316       -3354.010
  23853059.898    23853059.2894   23853062.8114  125348680.150 6  97674320.30744
      2237.940        1743.850
  22858797.586    22858797.5274   22858799.9924  120123811.603 7  93602992.20545
      1686.024        1313.779
  21092860.469    21092859.6314   21092863.6594  110843713.458 8  86371767.48346
       161.282         125.671
  22035922.840    22035922.8954   22035925.0354  115799561.593 7  90233442.95245
     -2936.471       -2288.162
  22232120.489    22232120.1004   22232122.2674  116830589.343 7  91036847.94645
      -523.042        -407.567
  24429439.239    24429438.4194   24429440.9204  128377558.318 6 100034484.89143
      2780.922        2166.943
  21692745.454    21692745.0704   21692749.1634  113996133.556 8  88828195.68346
       692.302         539.458
  22398349.611    22398349.3434   22398352.1854  117704142.762 7  91717529.42545
       -29.247         -22.792
  23393177.626    23393177.0784   23393180.6094  122931995.270 7  95791188.21145
      1616.818        1259.859
  22154330.710    22154330.5184   22154333.2364  116421784.111 7  90718299.04746
     -2498.236       -1946.677
 08  5  2 13 40  0.0000000  0 11G 2G 6G 7G10G13G16G21G24G25G27G29
  23369842.879    23369842.4904   23369843.8424  122809347.200 7  95695613.58044
     -4313.759       -3361.370
  23840315.218    23840314.7554   23840318.4664  125281708.068 6  97622134.33044
      2227.028        1735.348
  22849218.943    22849218.9864   22849221.4524  120073476.242 7  93563769.85545
      1669.831        1301.156
  21092000.316    21091999.4634   21092003.4584  110839193.290 8  86368245.28346
       140.169         109.223
  22052738.841    22052739.0524   22052741.2574  115887931.751 7  90302302.82345
     -2954.679       -2302.344
  22235167.196    22235166.8134   22235169.0514  116846599.934 7  91049323.73345
      -544.156        -424.016
  24413580.325    24413579.9134   24413582.0164  128294221.469 6  99969547.12343
      2775.075        2162.385
  21688845.549    21688845.0664   21688849.1314  113975638.989 8  88812225.90846
       674.197         525.348
  22398572.048    22398571.8624   22398574.6694  117705312.188 7  91718440.66945
       -48.553         -37.837
  23383984.221    23383983.7014   23383987.1424  122883684.270 7  95753543.29045
      1604.065        1249.927
  22168643.773    22168644.0084   22168646.7084  116497001.887 7  90776910.29446
     -2516.146       -1960.632
 08  5  2 13 40 30.0000000  0 11G 2G 6G 7G10G13G16G21G24G25G27G29
  23394497.132    23394496.8524   23394497.9384  122938906.512 7  95796568.82445
     -4323.594       -3369.038
  23827634.352    23827634.1114   23827637.8814  125215069.038 6  97570207.85944
      2215.494        1726.357
  22839733.763    22839733.9234   22839736.5224  120023632.006 7  93524930.18745
      1653.034        1288.078
  21091261.737    21091260.8104   21091264.6104  110835310.604 7  86365219.82746
       118.568          92.394
  22069659.746    22069660.0054   22069662.1084  115976851.212 7  90371590.70745
     -2973.342       -2316.893
  22238335.214    22238334.7654   22238337.2214  116863247.979 7  91062296.19945
      -565.776        -440.863
  24397756.687    24397756.0954   24397757.9674  128211065.891 6  99904750.60843
      2768.601        2157.352
  21685049.840    21685049.4424   21685053.5374  113955692.526 7  88796683.18345
       655.529         510.802
  22398905.560    22398905.2784   22398908.1764  117707064.910 7  91719806.42845
       -68.368         -53.276
  23374864.930    23374864.4404   23374868.0874  122835762.252 7  95716201.46544
      1590.705        1239.507
  22183060.258    22183060.4044   22183063.0514  116572760.680 7  90835943.14746
     -2534.503       -1974.934
 08  5  2 13 41  0.0000000  0 11G 2G 6G 7G10G13G16G21G24G25G27G29
  23419207.516    23419206.9434   23419208.6234  123068760.343 7  95897753.61745
     -4333.184       -3376.515
  23815019.402    23815019.0254   23815022.9634  125148776.785 6  97518551.59244
      2204.092        1717.481
  22830344.843    22830344.8364   22830347.3784  119974292.375 7  93486483.75245
      1636.352        1275.080
  21090646.304    21090645.4314   21090649.3814  110832077.096 8  86362700.21246
        97.097          75.661
  22086686.922    22086686.7794   22086689.2464  116066328.747 7  90441313.45745
     -2991.706       -2331.203
  22241626.939    22241626.3034   22241628.6704  116880544.990 7  91075774.35145
      -587.249        -457.599
  24381969.565    24381968.8804   24381970.8654  128128105.062 6  99840105.80543
      2762.207        2152.360
  21681360.787    21681360.4594   21681364.4754  113936306.945 7  88781577.55146
       636.954         496.334
  22399352.597    22399352.2214   22399355.0554  117709413.224 7  91721636.28045
       -88.076         -68.630
  23365822.328    23365821.8434   23365825.2844  122788242.408 7  95679173.01745
      1577.423        1229.160
  22197581.720    22197581.6124   22197584.2104  116649069.747 7  90895404.72646
     -2552.636       -1989.065
 08  5  2 13 41 30.0000000  0 11G 2G 6G 7G10G13G16G21G24G25G27G29
  23443971.394    23443970.9494   23443972.5344  123198895.392 7  95999157.55045
     -4342.845       -3384.031
  23802468.515    23802468.4124   23802471.7854  125082822.779 6  97467158.86244
      2192.429        1708.386
  22821050.285    22821050.3724   22821052.9524  119925449.083 7  93448424.06145
      1619.448        1261.905
  21090152.645    21090151.8114   21090155.6184  110829482.827 8  86360678.70546
        75.479          58.814
  22103817.578    22103817.6254   22103820.0404  116156351.205 7  90511460.81345
     -3010.155       -2345.576
  22245039.758    22245039.4804   22245041.7434  116898480.357 7  91089749.95445
      -608.843        -474.422
  24366217.993    24366217.3204   24366219.6044  128045330.527 6  99775606.21843
      2755.627        2147.248
  21677776.785    21677776.3044   21677780.3724  113917472.503 7  88766901.34946
       618.260         481.759
  22399910.634    22399910.4534   22399913.3134  117712347.007 7  91723922.35445
      -107.902         -84.080
  23356854.353    23356853.9284   23356857.4374  122741115.999 7  95642451.13645
      1563.949        1218.664
  22212205.180    22212205.1854   22212207.7864  116725916.828 7  90955285.58046
     -2570.871       -2003.274
 08  5  2 13 42  0.0000000  0 11G 2G 6G 7G10G13G16G21G24G25G27G29
  23468791.401    23468790.8104   23468792.2584  123329324.372 7  96100790.49645
     -4352.574       -3391.614
  23789985.706    23789985.4084   23789989.2044  125017225.088 6  97416043.80444
      2180.580        1699.152
  22811853.799    22811853.6504   22811856.2764  119877120.002 7  93410765.00645
      1602.308        1248.549
  21089783.609    21089782.8144   21089786.5594  110827543.828 8  86359167.82146
        53.637          41.790
  22121054.628    22121054.4334   22121056.9144  116246932.013 7  90582043.28045
     -3028.725       -2360.049
  22248577.375    22248576.7364   22248579.2194  116917069.866 7  91104235.29345
      -630.627        -491.398
  24350505.186    24350504.5564   24350507.0194  127962759.906 6  99711265.43744
      2748.863        2141.971
  21674300.782    21674300.5714   21674304.5174  113899206.058 7  88752667.72245
       599.335         467.016
  22400583.066    22400583.0054   22400585.9244  117715882.141 7  91726676.99345
      -127.944         -99.698
  23347964.724    23347964.2374   23347967.8184  122694400.675 7  95606049.55644
      1550.216        1207.955
  22226933.623    22226933.5744   22226936.1574  116803315.660 7  91015596.31446
     -2589.220       -2017.571
 08  5  2 13 42 30.0000000  0 11G 2G 6G 7G10G13G16G21G24G25G27G29
  23493666.021    23493665.7194   23493667.1424  123460041.983 7  96202648.34345
     -4361.864       -3398.851
  23777570.692    23777570.3394   23777573.9164  124951983.274 7  97365206.05744
      2168.964        1690.101
  22802754.510    22802754.6294   22802757.3114  119829304.426 7  93373506.14345
      1585.459        1235.421
  21089538.979    21089538.1114   21089541.8724  110826257.976 8  86358165.86146
        32.152          25.055
  22138396.618    22138396.6924   22138399.1574  116338065.692 7  90653056.52245
     -3046.786       -2374.122
  22252238.627    22252238.1764   22252240.4944  116936310.696 7  91119228.16845
      -652.013        -508.059
  24334831.426    24334830.9864   24334832.8754  127880392.600 6  99647083.09943
      2742.303        2136.859
  21670932.738    21670932.3334   21670936.1774  113881506.329 8  88738875.73945
       580.728         452.514
  22401370.147    22401369.8574   22401372.6844  117720016.440 7  91729898.51545
      -147.643        -115.048
  23339153.111    23339152.5844   23339156.1774  122648095.312 7  95569967.42044
      1536.771        1197.488
  22241766.438    22241766.3674   22241768.8874  116881261.664 7  91076333.41545
     -2607.120       -2031.528
 08  5  2 13 43  0.0000000  0 11G 2G 6G 7G10G13G16G21G24G25G27G29
  23518594.139    23518593.7884   23518595.1814  123591039.952 7  96304724.62745
     -4371.081       -3406.033
  23765222.669    23765222.3624   23765226.0304  124887094.450 6  97314643.34444
      2157.221        1680.948
  22793752.649    22793752.7544   22793755.4504  119781999.507 7  93336645.16345
      1568.434        1222.157
  21089417.826    21089416.9314   21089420.5664  110825621.092 8  86357669.60646
        10.569           8.232
  22155842.526    22155842.5364   22155844.9694  116429744.702 7  90724494.69945
     -3064.861       -2388.204
  22256022.880    22256022.4364   22256024.7864  116956197.650 7  91134724.53145
      -673.504        -524.809
  24319195.479    24319194.8934   24319197.1114  127798226.125 7  99583057.42143
      2735.645        2131.672
  21667671.458    21667671.1494   21667675.0644  113864368.901 7  88725521.90946
       561.994         437.913
  22402269.841    22402269.5684   22402272.5844  117724745.041 7  91733583.17746
      -167.375        -130.420
  23330418.906    23330418.4394   23330422.1354  122602196.539 7  95534202.13745
      1523.318        1187.003
  22256701.945    22256701.6904   22256704.3814  116959747.672 7  91137491.40145
     -2625.048       -2045.499
 08  5  2 13 43 30.0000000  0 11G 2G 6G 7G10G13G16G21G24G25G27G29
  23543574.446    23543574.1474   23543575.5054  123722312.231 7  96407014.66845
     -4380.305       -3413.219
  23752941.633    23752941.6364   23752945.0054  124822557.403 6  97264354.73344
      2145.346        1671.709
  22784848.069    22784847.9214   22784850.7084  119735204.005 7  93300181.12445
      1551.312        1208.816
  21089419.624    21089418.6304   21089422.2984  110825630.280 8  86357676.76046
       -11.080          -8.628
  22173391.116    22173391.1324   22173393.5324  116521963.076 7  90796353.15445
     -3082.907       -2402.264
  22259929.664    22259928.9334   22259931.3464  116976726.888 7  91150721.33345
      -695.023        -541.572
  24303597.543    24303596.7684   24303599.1674  127716258.460 6  99519186.60944
      2728.906        2126.417
  21664517.000    21664516.6384   21664520.5744  113847791.425 8  88712604.35946
       543.256         423.326
  22403282.298    22403282.0164   22403284.9774  117730065.139 7  91737728.69045
      -187.208        -145.879
  23321761.774    23321761.3754   23321764.6844  122556702.839 7  95498752.48845
      1509.704        1176.391
  22271738.951    22271738.8774   22271741.2804  117038768.232 7  91199065.92746
     -2642.905       -2059.400
 08  5  2 13 44  0.0000000  0 11G 2G 6G 7G10G13G16G21G24G25G27G29
  23568608.532    23568608.0134   23568609.5054  123853866.289 7  96509524.28645
     -4389.733       -3420.566
  23740729.845    23740729.8394   23740733.4034  124758384.706 6  97214350.05344
      2133.019        1662.089
  22776042.562    22776042.3764   22776044.9224  119688930.553 7  93264123.87445
      1533.779        1195.147
  21089546.466    21089545.4584   21089549.1114  110826296.627 8  86358196.01046
       -33.110         -25.806
  22191044.285    22191044.1914   22191046.3944  116614729.164 7  90868638.39545
     -3101.243       -2416.552
  22263960.308    22263959.8974   22263962.1554  116997909.133 7  91167226.98545
      -716.901        -558.619
  24288039.820    24288038.8614   24288041.3054  127634502.412 6  99455480.65644
      2721.721        2120.819
  21661471.375    21661470.9124   21661474.7374  113831785.443 8  88700132.15746
       524.039         408.342
  22404409.128    22404409.0204   22404411.7484  117735987.381 7  91742343.41545
      -207.386        -161.600
  23313184.141    23313183.5924   23313187.1724  122511626.211 7  95463627.80745
      1495.607        1165.408
  22286879.319    22286879.2944   22286881.8044  117118331.609 7  91261063.30145
     -2661.159       -2073.640
 08  5  2 13 44 30.0000000  0 11G 2G 6G 7G10G13G16G21G24G25G27G29
  23593694.376    23593694.0744   23593695.4794  123985693.485 7  96612246.67745
     -4398.914       -3427.721
  23728587.128    23728586.9044   23728590.4274  124694573.299 7  97164626.92444
      2120.868        1652.614
  22767335.579    22767335.4924   22767337.9864  119643175.566 7  93228470.67745
      1516.375        1181.588
  21089797.141    21089796.2904   21089799.8724  110827614.689 8  86359223.08646
       -54.958         -42.827
  22208799.640    22208799.5074   22208801.8664  116708034.660 7  90941343.95845
     -3119.273       -2430.605
  22268114.378    22268113.8284   22268116.3174  117019738.376 7  91184236.77845
      -738.588        -575.522
  24272521.556    24272520.8394   24272523.1114  127552954.405 6  99391936.79044
      2714.611        2115.281
  21658533.389    21658533.0424   21658536.8424  113816346.559 8  88688101.79646
       504.992         393.499
  22405649.978    22405649.5424   22405652.3924  117742506.574 8  91747423.33345
      -227.407        -177.206
  23304684.840    23304684.3204   23304687.7164  122466962.806 7  95428825.12544
      1481.749        1154.612
  22302121.611    22302121.6364   22302124.0254  117198430.868 7  91323478.43845
     -2678.983       -2087.521
 08  5  2 13 45  0.0000000  0 11G 2G 6G 7G10G13G16G21G24G25G27G29
  23618833.546    23618833.1964   23618834.6844  124117800.088 7  96715186.79745
     -4408.005       -3434.803
  23716514.857    23716514.7274   23716518.1914  124631133.596 7  97115193.42644
      2108.580        1643.044
  22758729.366    22758729.4944   22758731.9114  119597949.884 7  93193229.90845
      1498.844        1167.932
  21090173.522    21090172.7614   21090176.2874  110829593.299 8  86360764.86846
       -76.800         -59.842
  22226658.654    22226658.6594   22226661.0034  116801885.135 7  91014474.20545
     -3137.240       -2444.600
  22272393.060    22272392.7164   22272394.8564  117042223.166 7  91201757.36045
      -760.242        -592.398
  24257045.178    24257044.6214   24257046.7904  127471625.184 6  99328563.37544
      2707.462        2109.715
  21655705.174    21655704.7964   21655708.6354  113801484.136 7  88676520.68046
       485.937         378.648
  22407005.587    22407005.4154   22407008.1754  117749631.655 7  91752975.32745
      -247.442        -192.811
  23296266.345    23296265.9144   23296269.4324  122422723.114 7  95394352.60545
      1467.765        1143.711
  22317466.796    22317466.9174   22317469.5134  117279071.545 7  91386315.28645
     -2696.885       -2101.471
 08  5  2 13 45 30.0000000  0 11G 2G 6G 7G10G13G16G21G24G25G27G29
  23644024.663    23644024.1314   23644025.5694  124250179.471 7  96818339.49145
     -4417.188       -3441.967
  23704513.417    23704512.6974   23704516.5704  124568064.545 6  97066048.74044
      2096.134        1633.345
  22750223.799    22750223.7854   22750226.1384  119553252.094 7  93158400.49145
      1481.101        1154.101
  21090675.148    21090674.3644   21090678.0834  110832229.590 8  86362819.14146
       -98.886         -77.053
  22244620.187    22244620.1714   22244622.5954  116896274.463 7  91088024.32345
     -3155.265       -2458.647
  22276795.813    22276795.3914   22276797.8394  117065359.491 7  91219785.65145
      -782.107        -609.434
  24241610.282    24241609.6814   24241611.5284  127390513.120 7  99265359.05344
      2700.047        2103.940
  21652986.161    21652985.7344   21652989.5784  113787195.585 8  88665386.80446
       466.687         363.645
  22408476.209    22408475.9034   22408478.9154  117757359.153 8  91758996.73645
      -267.666        -208.573
  23287927.982    23287927.6724   23287931.1824  122378905.155 7  95360208.71045
      1453.495        1132.598
  22332914.301    22332914.4744   22332916.8394  117360248.631 7  91449570.18945
     -2714.826       -2115.443
 08  5  2 13 46  0.0000000  0 11G 2G 6G 7G10G13G16G21G24G25G27G29
  23669266.305    23669265.9434   23669267.5664  124382826.543 7  96921700.76245
     -4425.966       -3448.802
  23692581.831    23692581.8004   23692585.3784  124505365.870 6  97017192.63344
      2083.719        1623.680
  22741818.479    22741818.4614   22741820.8894  119509081.523 7  93123981.87045
      1463.518        1140.404
  21091301.727    21091300.9054   21091304.7104  110835522.222 8  86365384.85046
      -120.674         -94.036
  22262683.748    22262683.9304   22262686.1304  116991197.947 7  91161990.67245
     -3173.001       -2472.471
  22281322.015    22281321.4804   22281323.7754  117089144.943 7  91238319.74945
      -803.661        -626.230
  24226216.512    24226216.0934   24226217.9784  127309618.133 7  99202323.89144
      2692.844        2098.328
  21650376.092    21650375.6974   21650379.6064  113773479.762 8  88654699.19146
       447.607         348.783
  22410060.968    22410060.7204   22410063.4624  117765687.207 7  91765486.12745
      -287.642        -224.135
  23279669.949    23279669.4724   23279672.9374  122335508.503 7  95326393.15845
      1439.494        1121.681
  22348463.358    22348463.1634   22348465.5754  117441957.778 7  91513239.65945
     -2732.490       -2129.215
 08  5  2 13 46 30.0000000  0 11G 2G 6G 7G10G13G16G21G24G25G27G29
  23694558.697    23694558.1344   23694559.7764  124515737.706 7  97025267.85144
     -4434.664       -3455.574
  23680721.795    23680721.3294   23680724.8944  124443039.189 7  96968626.42944
      2071.399        1614.082
  22733513.968    22733513.7284   22733515.9654  119465439.887 7  93089975.38845
      1445.953        1126.719
  21092053.025    21092052.1604   21092055.8814  110839470.076 8  86368461.11446
      -142.454        -111.003
  22280848.239    22280848.3174   22280850.6684  117086652.199 7  91236370.58845
     -3190.569       -2486.156
  22285971.609    22285971.0484   22285973.3364  117113578.621 7  91257359.00545
      -825.167        -642.987
  24210864.311    24210863.7344   24210865.7544  127228941.606 7  99139458.97344
      2685.628        2092.693
  21647874.927    21647874.6344   21647878.3354  113760336.823 8  88644458.04746
       428.615         333.986
  22411759.851    22411759.6904   22411762.6094  117774615.098 8  91772442.92146
      -307.531        -239.636
  23271492.196    23271491.6974   23271495.1894  122292533.930 7  95292906.48845
      1425.500        1110.781
  22364112.617    22364112.5184   22364115.1184  117524195.913 7  91577321.32845
     -2749.980       -2142.841
 08  5  2 13 47  0.0000000  0 11G 2G 6G 7G10G13G16G21G24G25G27G29
  23719900.124    23719899.5044   23719901.0894  124648906.938 7  97129036.09545
     -4443.308       -3462.320
  23668931.739    23668931.4564   23668935.1024  124381083.412 7  96920349.22444
      2058.928        1604.359
  22725309.533    22725309.4614   22725311.5994  119422325.924 7  93056380.06945
      1428.236        1112.912
  21092928.354    21092927.5894   21092931.2664  110844070.468 8  86372045.85746
      -164.295        -128.021
  22299112.381    22299112.3884   22299114.8844  117182631.546 7  91311159.66545
     -3208.108       -2499.826
  22290743.756    22290743.4484   22290745.8434  117138657.189 7  91276900.74945
      -846.759        -659.817
  24195553.645    24195552.9444   24195555.3954  127148482.833 7  99076763.83444
      2678.194        2086.893
  21645482.590    21645482.1504   21645486.0024  113747764.285 8  88634661.19346
       409.505         319.099
  22413572.543    22413572.1954   22413575.0864  117784140.284 7  91779865.13845
      -327.502        -255.201
  23263394.599    23263394.0134   23263397.3714  122249980.333 7  95259747.86345
      1411.381        1099.776
  22379861.694    22379861.7304   22379864.2024  117606958.085 7  91641811.32045
     -2767.510       -2156.505
 08  5  2 13 47 30.0000000  0 11G 2G 6G 7G10G13G16G21G24G25G27G29
  23745289.652    23745289.4864   23745291.1344  124782331.990 7  97233003.66744
     -4451.802       -3468.948
  23657213.227    23657212.7344   23657216.4544  124319501.223 6  96872363.09844
      2046.392        1594.590
  22717206.011    22717206.0514   22717208.2444  119379741.970 7  93023197.73445
      1410.513        1099.100
  21093928.248    21093927.3814   21093930.9954  110849324.288 8  86376139.73046
      -186.085        -145.002
  22317476.224    22317476.2614   22317478.5534  117279133.888 7  91386356.26345
     -3225.518       -2513.388
  22295639.081    22295638.4274   22295640.8244  117164380.559 7  91296944.94445
      -868.268        -676.574
  24180284.378    24180283.9374   24180286.4274  127068244.231 7  99014240.34544
      2670.873        2081.201
  21643199.057    21643198.5924   21643202.3214  113735763.932 7  88625310.33246
       390.426         304.226
  22415498.781    22415498.5684   22415501.5694  117794263.215 7  91787753.13945
      -347.471        -270.756
  23255377.278    23255376.6144   23255380.2464  122207849.607 7  95226918.77245
      1397.257        1088.765
  22395710.240    22395710.0764   22395712.6284  117690242.630 7  91706708.37445
     -2784.929       -2170.074
 08  5  2 13 48  0.0000000  0 11G 2G 6G 7G10G13G16G21G24G25G27G29
  23770728.450    23770728.1104   23770729.7144  124916012.996 7  97337170.66944
     -4460.088       -3475.393
  23645566.509    23645566.2984   23645569.9844  124258298.013 6  96824672.29044
      2033.961        1584.899
  22709204.602    22709204.5874   22709206.7164  119337693.822 7  92990432.92645
      1392.883        1085.360
  21095053.084    21095052.2244   21095055.8854  110855235.289 8  86380745.68646
      -207.767        -161.896
  22335939.598    22335939.5424   22335941.9054  117376159.754 7  91461960.83545
     -3242.682       -2526.765
  22300657.197    22300656.7044   22300659.2194  117190752.010 7  91317494.11945
      -889.613        -693.203
  24165058.553    24165057.8154   24165060.4364  126988230.873 6  98951892.27344
      2663.521        2075.470
  21641024.856    21641024.4984   21641028.4414  113724339.811 8  88616408.48246
       371.407         289.413
  22417539.633    22417539.2784   22417542.2294  117804987.517 7  91796109.74045
      -367.286        -286.194
  23247441.339    23247440.8194   23247444.2904  122166146.751 7  95194423.04345
      1383.154        1077.781
  22411658.148    22411658.3224   22411660.8134  117774050.617 7  91772013.34145
     -2802.075       -2183.435
 08  5  2 13 48 30.0000000  0 11G 2G 6G 7G10G13G16G21G24G25G27G29
  23796213.554    23796213.3894   23796214.6454  125049938.422 7  97441528.17144
     -4468.184       -3481.700
  23633990.764    23633990.6024   23633994.0394  124197467.208 6  96777271.66744
      2021.479        1575.186
  22701303.457    22701303.5514   22701305.8034  119296174.252 7  92958080.01945
      1375.172        1071.567
  21096301.378    21096300.4764   21096304.1124  110861794.754 8  86385856.94546
      -229.466        -178.801
  22354500.411    22354500.3774   22354502.7614  117473697.323 7  91537964.11845
     -3259.740       -2540.054
  22305797.049    22305796.4224   22305798.8164  117217761.507 7  91338540.48145
      -910.979        -709.851
  24149874.366    24149873.5994   24149875.7484  126908436.240 7  98889714.70044
      2656.146        2069.724
  21638959.199    21638958.6764   21638962.5284  113713483.613 8  88607949.11346
       352.400         274.598
  22419693.211    22419692.8324   22419695.7044  117816304.161 7  91804927.91045
      -387.093        -301.631
  23239585.438    23239584.9844   23239588.7184  122124864.422 7  95162255.02545
      1369.066        1066.804
  22427703.915    22427703.9274   22427706.4144  117858370.657 7  91837717.25945
     -2819.164       -2196.748
 08  5  2 13 49  0.0000000  0 11G 2G 6G 7G10G13G16G21G24G25G27G29
  23821745.858    23821745.3474   23821746.9154  125184110.007 7  97546077.39644
     -4476.424       -3488.122
  23622487.311    23622486.8584   23622490.6664  124137015.420 6  96730166.36644
      2008.740        1565.254
  22693504.426    22693504.4564   22693506.6874  119255189.705 7  92926143.99645
      1357.181        1057.545
  21097673.929    21097673.0174   21097676.6684  110869007.428 8  86391477.19146
      -251.271        -195.794
  22373159.095    22373159.0204   22373161.2594  117571748.726 7  91614367.79445
     -3276.898       -2553.427
  22311059.221    22311058.6004   22311060.8484  117245413.685 7  91360087.61245
      -932.451        -726.581
  24134732.545    24134731.9094   24134733.9054  126828866.849 7  98827712.65144
      2648.562        2063.824
  21637002.295    21637001.8924   21637005.8024  113703200.920 8  88599936.64246
       333.237         259.662
  22421960.380    22421959.8334   22421962.8914  117828218.003 7  91814211.43945
      -407.039        -317.169
  23231810.925    23231810.3634   23231814.0914  122084008.829 7  95130419.56345
      1354.766        1055.659
  22443847.508    22443847.4934   22443849.9554  117943205.508 7  91903822.32145
     -2836.362       -2210.153
 08  5  2 13 49 30.0000000  0 11G 2G 6G 7G10G13G16G21G24G25G27G29
  23847322.686    23847322.1914   23847324.0004  125318517.977 7  97650810.82344
     -4484.123       -3494.123
  23611054.935    23611054.7494   23611058.2834  124076937.826 7  96683352.66544
      1996.312        1555.574
  22685806.358    22685806.2454   22685808.5634  119214735.171 7  92894620.96145
      1339.620        1043.858
  21099169.303    21099168.4374   21099172.0604  110876866.208 7  86397600.92646
      -272.744        -212.528
  22391913.484    22391913.4304   22391915.8114  117670304.184 7  91691164.23445
     -3293.505       -2566.369
  22316442.160    22316441.5844   22316443.7954  117273701.211 7  91382129.82245
      -953.485        -742.974
  24119632.998    24119632.4794   24119634.5324  126749517.856 7  98765882.30244
      2641.276        2058.133
  21635153.453    21635153.1834   21635156.9634  113693485.691 8  88592366.34446
       314.393         244.984
  22424339.779    22424339.3984   22424342.3424  117840722.213 7  91823954.98045
      -426.658        -332.457
  23224116.615    23224116.0964   23224119.6394  122043574.687 7  95098912.48345
      1340.766        1044.750
  22460087.280    22460087.1824   22460089.7304  118028545.914 7  91970321.29145
     -2853.088       -2223.191
 08  5  2 13 50  0.0000000  0 11G 2G 6G 7G10G13G16G21G24G25G27G29
  23872944.882    23872944.4984   23872946.2854  125453163.252 7  97755729.21844
     -4492.175       -3500.399
  23599694.860    23599694.7744   23599698.0964  124017240.709 7  96636835.42444
      1983.525        1545.601
  22678210.185    22678210.1714   22678212.4194  119174816.923 7  92863515.81445
      1321.663        1029.868
  21100788.714    21100787.7944   21100791.4924  110885375.797 8  86404231.75746
      -294.496        -229.478
  22410764.180    22410764.3134   22410766.4364  117769365.280 7  91768354.67445
     -3310.445       -2579.573
  22321946.645    22321945.9764   22321948.2944  117302627.764 7  91404669.99345
      -974.846        -759.616
  24104576.032    24104575.8724   24104577.4844  126670395.009 7  98704228.21244
      2633.638        2052.182
  21633413.763    21633413.3004   21633417.2504  113684342.624 8  88585241.88646
       295.220         230.040
  22426832.088    22426831.8704   22426834.9344  117853820.667 7  91834161.57145
      -446.520        -347.941
  23216503.588    23216503.1284   23216506.4424  122003567.697 7  95067738.24045
      1326.434        1033.575
  22476423.667    22476423.5404   22476426.0894  118114393.935 7  92037215.88745
     -2870.024       -2236.385
 08  5  2 13 50 30.0000000  0 11G 2G 6G 7G10G13G16G21G24G25G27G29
  23898612.433    23898611.8644   23898613.5444  125588047.118 7  97860833.57344
     -4500.085       -3506.562
  23588408.602    23588408.0084   23588411.9494  123957929.996 7  96590619.32044
      1970.526        1535.469
  22670716.743    22670716.9134   22670719.3724  119135440.279 7  92832832.68345
      1303.448        1015.677
  21102532.372    21102531.5534   21102535.4624  110894540.103 7  86411372.77246
      -316.427        -246.568
  22429711.271    22429711.4984   22429713.4904  117868932.654 7  91845939.62845
     -3327.378       -2592.762
  22327573.374    22327572.9644   22327574.9584  117332196.656 7  91427710.70145
      -996.353        -776.379
  24089563.895    24089563.5644   24089565.3464  126591504.676 7  98642755.26844
      2625.756        2046.040
  21631783.514    21631783.1764   21631787.2114  113675776.447 8  88578566.95546
       275.875         214.969
  22429438.656    22429438.3024   22429441.2804  117867517.623 8  91844834.53645
      -466.574        -363.564
  23208972.703    23208972.4204   23208975.7084  121963993.134 7  95036900.93045
      1311.887        1022.250
  22492857.024    22492856.9074   22492859.3404  118200751.277 7  92104507.34645
     -2887.078       -2249.674
 08  5  2 13 51  0.0000000  0 11G 2G 6G 7G10G13G16G21G24G25G27G29
  23924324.675    23924324.1044   23924325.9714  125723166.314 7  97966121.26544
     -4507.881       -3512.630
  23577195.749    23577195.3264   23577198.9844  123899007.751 7  96544705.90844
      1957.560        1525.371
  22663327.268    22663327.2554   22663329.6064  119096607.133 7  92802573.09745
      1285.307        1001.541
  21104401.031    21104400.1064   21104403.9664  110904359.224 8  86419024.05646
      -338.247        -263.567
  22448754.284    22448754.1474   22448756.3954  117969003.597 7  91923916.97945
     -3344.088       -2605.782
  22333322.234    22333321.6924   22333324.1294  117362407.059 7  91451251.27845
     -1017.734        -793.040
  24074596.327    24074595.5234   24074597.7914  126512849.031 7  98581465.19944
      2617.917        2039.943
  21630263.381    21630263.0064   21630266.7694  113667787.715 8  88572341.94546
       256.655         199.994
  22432158.927    22432158.7404   22432161.4564  117881812.590 7  91855973.48045
      -486.509        -379.096
  23201524.557    23201524.0894   23201527.4234  121924852.556 7  95006401.80245
      1297.410        1010.969
  22509386.493    22509386.3644   22509388.9284  118287615.221 7  92172193.55345
     -2903.920       -2262.794
 08  5  2 13 51 30.0000000  0 11G 2G 6G 7G10G13G16G21G24G25G27G29
  23950082.503    23950082.0644   23950083.6424  125858524.466 7  98071595.17744
     -4515.941       -3518.911
  23566058.804    23566058.6144   23566062.2884  123840482.224 7  96499101.60144
      1944.180        1514.943
  22656042.644    22656042.5404   22656044.8704  119058325.990 7  92772743.62345
      1266.771         987.094
  21106395.294    21106394.4294   21106398.2694  110914839.574 8  86427190.58746
      -360.427        -280.854
  22467893.489    22467893.4164   22467895.8504  118069581.890 7  92002289.66845
     -3361.063       -2619.014
  22339194.274    22339193.6574   22339196.1054  117393264.903 7  91475296.33645
     -1039.419        -809.938
  24059674.650    24059674.1354   24059676.2444  126434436.018 7  98520364.13744
      2609.622        2033.465
  21628854.549    21628854.0724   21628857.9004  113660383.694 8  88566572.55946
       237.012         184.680
  22434994.356    22434994.0524   22434996.7344  117896712.268 7  91867583.63945
      -506.734        -394.857
  23194160.184    23194159.8654   23194163.4474  121886154.073 7  94976247.19745
      1282.505         999.357
  22526013.295    22526013.2324   22526015.7404  118374989.803 7  92240277.63845
     -2920.970       -2276.081
 08  5  2 13 52  0.0000000  0 11G 2G 6G 7G10G13G16G21G24G25G27G29
  23975884.538    23975883.9304   23975885.4374  125994114.425 7  98177249.65044
     -4523.420       -3524.742
  23554996.741    23554996.6764   23555000.3824  123782351.412 6  96453804.87444
      1931.164        1504.798
  22648862.440    22648862.5064   22648864.7904  119020594.538 7  92743342.48445
      1248.627         972.956
  21108514.716    21108513.7944   21108517.4894  110925976.543 8  86435868.73646
      -382.125        -297.758
  22487128.015    22487128.1894   22487130.4694  118170660.459 7  92081052.16745
     -3377.501       -2631.822
  22345188.588    22345188.0524   22345190.3644  117424765.154 7  91499841.95545
     -1060.645        -826.478
  24044799.276    24044798.3644   24044800.3554  126356263.880 7  98459450.81944
      2601.756        2027.332
  21627556.125    21627555.7854   21627559.6564  113653560.781 8  88561255.97046
       217.826         169.738
  22437943.723    22437943.5274   22437946.3324  117912212.270 8  91879661.59845
      -526.599        -410.344
  23186879.877    23186879.3474   23186882.8374  121847894.426 7  94946434.50445
      1268.050         988.092
  22542735.803    22542735.9864   22542738.4764  118462868.195 7  92308754.25745
     -2937.602       -2289.041
 08  5  2 13 52 30.0000000  0 12G 2G 6G 7G 8G10G13G16G21G24G25G27G29
  24001729.486    24001728.9654   24001730.5044  126129930.449 6  98283080.26644
     -4530.956       -3530.612
  23544009.542    23544009.5164   23544013.3324  123724614.701 6  96408815.24344
      1917.996        1494.549
  22641786.653    22641786.7894   22641789.0504  118983411.669 7  92714368.91645
      1230.301         958.685
  25036770.895    25036770.1674   25036774.0194  131569126.769 6 102521416.29043
      3089.582        2407.481
  21110758.390    21110757.6564   21110761.4094  110937768.159 8  86445057.00646
      -403.933        -314.752
  22506456.919    22506456.9484   22506459.2504  118272233.664 7  92160200.11745
     -3393.971       -2644.650
  22351304.584    22351304.0564   22351306.4104  117456904.516 7  91524885.60245
     -1081.919        -843.052
  24029968.971    24029968.4424   24029970.2534  126278331.776 7  98398724.55144
      2593.731        2021.078
  21626367.969    21626367.6034   21626371.4484  113647317.121 8  88556390.85646
       198.474         154.652
  22441007.031    22441006.7264   22441009.4484  117928309.629 7  91892205.00045
      -546.492        -425.835
  23179682.640    23179682.1324   23179685.5114  121810072.776 7  94916963.11645
      1253.425         976.697
  22559553.842    22559553.9224   22559556.3774  118551246.277 7  92377620.24645
     -2954.223       -2301.989
 08  5  2 13 53  0.0000000  0 12G 2G 6G 7G 8G10G13G16G21G24G25G27G29
  24027617.652    24027617.1464   24027618.8344  126265974.484 7  98389088.63944
     -4538.628       -3536.599
  23533099.312    23533098.9934   23533102.7554  123667278.653 6  96364137.78644
      1904.397        1483.947
  22634816.638    22634816.6564   22634819.1344  118946783.883 7  92685827.84945
      1211.572         944.082
  25019149.407    25019148.7904   25019153.0524  131476525.747 7 102449259.72143
      3083.809        2402.966
  21113127.713    21113127.0454   21113130.6854  110950218.770 8  86454758.76846
      -426.096        -332.023
  22525880.221    22525880.2034   22525882.5504  118374303.600 7  92239735.11445
     -3410.665       -2657.664
  22357542.717    22357542.3214   22357544.6634  117489687.282 7  91550430.58745
     -1103.571        -859.923
  24015185.934    24015185.4254   24015187.4144  126200646.350 7  98338190.50644
      2585.292        2014.511
  21625290.902    21625290.6284   21625294.4674  113641657.716 8  88551980.96646
       178.815         139.331
  22444184.797    22444184.5234   22444187.2224  117945008.958 7  91905217.45745
      -566.780        -441.650
  23172569.791    23172569.4214   23172572.8944  121772695.307 7  94887837.83845
      1238.402         964.990
  22576467.247    22576467.1334   22576469.6664  118640126.109 7  92446877.17945
     -2971.063       -2315.114
 08  5  2 13 53 30.0000000  0 12G 2G 6G 7G 8G10G13G16G21G24G25G27G29
  24053549.004    24053548.4664   24053550.4794  126402244.911 7  98495273.32944
     -4546.041       -3542.368
  23522265.438    23522265.2994   23522268.9664  123610346.881 7  96319775.34044
      1891.021        1473.524
  22627952.728    22627952.7104   22627955.3144  118910713.960 7  92657721.43545
      1193.058         929.653
  25001560.432    25001559.8984   25001564.1524  131384094.813 7 102377235.66343
      3078.225        2398.619
  21115622.798    21115621.9524   21115625.6064  110963329.880 8  86464975.20646
      -447.985        -349.074
  22545397.747    22545397.6804   22545400.0014  118476868.777 7  92319656.05745
     -3426.962       -2670.359
  22363903.800    22363903.2834   22363905.5554  117523114.072 7  91576477.41545
     -1124.883        -876.529
  24000450.302    24000449.9274   24000451.6874  126123210.767 7  98277851.07544
      2577.056        2008.099
  21624325.474    21624325.2164   21624329.0474  113636584.554 8  88548027.91846
       159.377         124.191
  22447477.507    22447477.1494   22447479.8544  117962311.706 7  91918700.09145
      -586.760        -457.213
  23165542.242    23165541.8774   23165545.3124  121735764.863 7  94859060.90245
      1223.633         953.481
  22593475.826    22593475.7364   22593478.3014  118729506.245 7  92516523.97645
     -2987.597       -2327.992
 08  5  2 13 54  0.0000000  0 12G 2G 6G 7G 8G10G13G16G21G24G25G27G29
  24079521.648    24079521.1664   24079522.9074  126538730.857 7  98601625.93444
     -4553.272       -3548.000
  23511507.432    23511507.2754   23511510.9974  123553813.461 6  96275723.34444
      1877.632        1463.089
  22621193.633    22621193.8284   22621196.2864  118875195.842 7  92630044.99645
      1174.563         915.248
  24984002.357    24984001.7604   24984006.5464  131291828.364 6 102305339.73043
      3072.633        2394.259
  21118241.914    21118241.0424   21118244.6534  110977093.157 8  86475699.85146
      -469.826        -366.100
  22565007.480    22565007.3514   22565009.5254  118579918.184 7  92399954.28444
     -3443.194       -2683.005
  22370385.461    22370384.9154   22370387.3794  117557176.041 7  91603019.19945
     -1146.142        -893.100
  23985761.313    23985761.0134   23985762.6184  126046019.453 7  98217701.99344
      2568.818        2001.677
  21623470.358    21623469.9074   21623473.6024  113632090.084 8  88544525.74946
       139.996         109.087
  22450883.359    22450882.9934   22450885.5564  117980209.561 7  91932646.46745
      -606.681        -472.738
  23158598.572    23158598.0484   23158601.6444  121699274.689 7  94830627.00045
      1208.820         941.940
  22610577.514    22610577.7294   22610580.0714  118819376.614 7  92586552.77245
     -3004.004       -2340.779
 08  5  2 13 54 30.0000000  0 12G 2G 6G 7G 8G10G13G16G21G24G25G27G29
  24105534.116    24105534.0364   24105535.5234  126675428.201 7  98708143.26344
     -4560.109       -3553.332
  23500825.600    23500825.1884   23500828.7924  123497679.015 6  96231982.23144
      1864.423        1452.801
  22614540.304    22614540.1894   22614542.3934  118840230.211 7  92602799.07745
      1156.261         900.976
  24966475.900    24966475.7524   24966480.0744  131199727.416 6 102233572.77043
      3067.201        2390.029
  21120985.024    21120984.1594   21120987.7014  110991507.865 8  86486932.06246
      -491.385        -382.898
  22584708.364    22584708.2824   22584710.6004  118683447.534 7  92480626.49445
     -3459.008       -2695.337
  22376987.901    22376987.4584   22376989.5704  117591871.415 7  91630054.53545
     -1167.104        -909.432
  23971119.112    23971118.3294   23971120.3224  125969072.863 7  98157743.58644
      2560.742        1995.385
  21622725.089    21622724.6824   21622728.6044  113628173.921 8  88541474.14946
       120.856          94.172
  22454402.138    22454401.8784   22454404.5524  117998701.225 7  91947055.53845
      -626.325        -488.044
  23151738.653    23151738.0124   23151741.3614  121663225.272 7  94802536.54645
      1194.259         930.587
  22627771.986    22627771.9374   22627774.4364  118909733.988 7  92656961.11745
     -3020.059       -2353.291
 08  5  2 13 55  0.0000000  0 12G 2G 6G 7G 8G10G13G16G21G24G25G27G29
  24131586.995    24131586.5674   24131588.2154  126812336.044 7  98814824.74544
     -4567.237       -3558.886
  23490220.000    23490219.8874   23490223.5024  123441947.443 6  96188555.05144
      1850.845        1442.217
  22607992.137    22607992.2034   22607994.5694  118805820.324 7  92575986.21345
      1137.539         886.397
  24948982.260    24948981.9004   24948986.0694  131107796.314 6 102161938.18143
      3061.343        2385.456
  21123852.309    21123851.4844   21123855.0634  111006575.256 8  86498672.82746
      -513.289        -399.965
  22604500.660    22604500.6564   22604502.8164  118787455.861 7  92561671.92145
     -3475.036       -2707.820
  22383710.830    22383710.3744   22383712.8454  117627200.874 7  91657584.00245
     -1188.372        -926.001
  23956523.800    23956523.3624   23956525.5124  125892375.223 7  98097979.12544
      2552.273        1988.790
  21622090.273    21622090.0024   21622093.8054  113624838.256 8  88538874.93746
       101.364          78.987
  22458034.157    22458033.9364   22458036.8314  118017788.004 7  91961928.33345
      -646.307        -503.618
  23144962.997    23144962.7064   23144965.9814  121627619.891 7  94774792.08445
      1179.305         918.940
  22645058.785    22645058.8984   22645061.5534  119000577.196 7  92727748.02445
     -3036.308       -2365.952
 08  5  2 13 55 30.0000000  0 12G 2G 6G 7G 8G10G13G16G21G24G25G27G29
  24157679.514    24157679.1084   24157680.5944  126949452.641 7  98921668.83244
     -4573.676       -3563.903
  23479691.824    23479691.5954   23479695.5354  123386622.144 6  96145444.47044
      1837.732        1431.996
  22601550.633    22601550.6594   22601552.6864  118771969.640 7  92549609.09545
      1119.382         872.244
  24931521.567    24931520.8644   24931525.5814  131016039.322 6 102090439.27243
      3055.952        2381.267
  21126844.111    21126843.2574   21126846.7554  111022297.005 8  86510923.51846
      -534.617        -416.588
  22624383.743    22624383.7734   22624385.8174  118891942.005 7  92643089.66845
     -3490.451       -2719.833
  22390554.612    22390554.3034   22390556.6124  117663165.610 7  91685608.49045
     -1209.036        -942.103
  23941976.876    23941976.5244   23941978.4214  125815930.071 7  98038411.37744
      2544.268        1982.547
  21621566.511    21621566.0814   21621569.9074  113622085.296 8  88536729.75446
        82.390          64.200
  22461779.946    22461779.6034   22461782.3354  118037471.656 7  91977266.23545
      -665.740        -518.759
  23138272.540    23138272.1954   23138275.6254  121592461.418 7  94747395.85445
      1164.827         907.658
  22662438.211    22662438.1924   22662440.8364  119091905.800 7  92798913.16445
     -3052.019       -2378.197
 08  5  2 13 56  0.0000000  0 12G 2G 6G 7G 8G10G13G16G21G24G25G27G29
  24183811.504    24183811.1344   24183812.9014  127086778.190 6  99028675.74044
     -4580.992       -3569.605
  23469242.044    23469241.8184   23469245.7424  123331708.356 6  96102654.56544
      1823.538        1420.938
  22595216.249    22595216.2824   22595218.5714  118738682.717 7  92523671.24145
      1100.105         857.224
  24914094.727    24914094.3314   24914098.9804  130924461.878 6 102019080.27744
      3049.456        2376.190
  21129960.843    21129959.9144   21129963.5144  111038675.714 8  86523686.14246
      -556.942        -433.981
  22644357.652    22644357.6094   22644360.0104  118996905.912 7  92724879.69445
     -3506.768       -2732.545
  22397519.835    22397519.3864   22397521.6644  117699767.673 7  91714129.58745
     -1230.702        -958.988
  23927479.194    23927478.5074   23927480.4764  125739742.502 7  97979044.40544
      2535.234        1975.516
  21621153.976    21621153.7964   21621157.5324  113619918.521 8  88535041.30746
        62.423          48.640
  22465639.592    22465639.3564   22465642.0894  118057754.691 7  91993071.19845
      -686.140        -534.655
  23131668.081    23131667.5614   23131670.9524  121557754.287 7  94720351.34045
      1149.336         895.590
  22679909.830    22679909.7624   22679912.3914  119183720.033 7  92870456.66445
     -3068.574       -2391.093
 08  5  2 13 56 30.0000000  0 12G 2G 6G 7G 8G10G13G16G21G24G25G27G29
  24209982.540    24209981.9924   24209983.6514  127224306.729 6  99135840.75844
     -4587.558       -3574.713
  23458870.454    23458870.0764   23458873.8194  123277204.823 7  96060184.29744
      1809.985        1410.380
  22588989.002    22588989.0744   22588991.3044  118705958.336 7  92498171.73045
      1081.468         842.705
  24896702.154    24896701.5074   24896706.2224  130833063.480 6 101947860.79844
      3043.712        2371.723
  21133202.035    21133201.1494   21133204.7864  111055708.418 8  86536958.38546
      -578.562        -450.826
  22664421.144    22664421.4434   22664423.8564  119102341.703 7  92807037.43645
     -3522.280       -2744.633
  22404605.448    22404604.9274   22404607.3534  117737003.088 7  91743144.21745
     -1251.625        -975.286
  23913029.754    23913029.3744   23913031.2394  125663811.470 7  97919877.38644
      2526.814        1968.947
  21620852.807    21620852.5454   21620856.4614  113618335.687 8  88533807.93046
        43.130          33.608
  22469612.736    22469612.4014   22469615.3214  118078633.889 8  92009340.72245
      -705.808        -549.980
  23125149.025    23125148.6384   23125152.0004  121523496.827 7  94693657.23045
      1134.495         884.024
  22697472.846    22697472.9484   22697475.5224  119276014.618 7  92942374.47645
     -3084.343       -2403.376
 08  5  2 13 57  0.0000000  0 12G 2G 6G 7G 8G10G13G16G21G24G25G27G29
  24236191.073    24236190.2714   24236192.3634  127362033.240 6  99243160.10144
     -4594.057       -3579.791
  23448576.979    23448576.5904   23448580.5354  123223111.313 6  96018033.51544
      1796.320        1399.724
  22582868.521    22582868.7194   22582870.9734  118673795.519 7  92473109.83545
      1062.758         828.120
  24879343.637    24879343.3744   24879347.5594  130741844.322 7 101876780.99244
      3037.691        2367.043
  21136567.096    21136566.2214   21136569.9444  111073392.353 8  86550738.07246
      -600.243        -467.726
  22684573.897    22684574.0664   22684576.4134  119208244.061 7  92889558.73445
     -3537.771       -2756.708
  22411810.996    22411810.5544   22411812.8684  117774868.583 7  91772649.79645
     -1272.623        -991.659
  23898629.390    23898628.8334   23898630.6744  125588136.349 7  97860909.80044
      2518.262        1962.278
  21620662.291    21620661.9874   21620665.9264  113617334.640 8  88533027.89046
        23.753          18.509
  22473698.756    22473698.5324   22473701.3014  118100106.580 7  92026072.70645
      -725.594        -565.398
  23118715.292    23118715.0084   23118718.1044  121489687.964 7  94667312.71045
      1119.532         872.359
  22715126.398    22715126.5204   22715129.1074  119368784.637 7  93014662.76945
     -3100.172       -2415.717
 08  5  2 13 57 30.0000000  0 12G 2G 6G 7G 8G10G13G16G21G24G25G27G29
  24262436.689    24262436.2884   24262437.9494  127499955.579 7  99350632.02244
     -4600.602       -3584.881
  23438361.902    23438361.5834   23438365.1684  123169430.569 6  95976204.38244
      1782.476        1388.943
  22576855.582    22576855.6154   22576857.8204  118642197.070 7  92448487.70245
      1043.884         813.417
  24862020.171    24862019.7984   24862024.0374  130650807.848 7 101805843.52944
      3031.481        2362.181
  21140056.230    21140055.3834   21140059.1684  111091728.109 8  86565025.66546
      -622.054        -484.718
  22704814.909    22704814.6934   22704817.4154  119314611.038 7  92972442.09645
     -3553.273       -2768.784
  22419136.402    22419136.0554   22419138.4244  117813364.415 7  91802646.54345
     -1293.694       -1008.068
  23884278.038    23884277.4464   23884279.4974  125512720.488 7  97802144.26144
      2509.507        1955.459
  21620582.912    21620582.4004   21620586.4614  113616916.796 8  88532702.27146
         4.232           3.301
  22477897.881    22477897.7044   22477900.5254  118122173.217 7  92043267.50245
      -745.444        -580.864
  23112367.724    23112367.1724   23112370.5364  121456330.104 7  94641319.58945
      1104.391         860.569
  22732870.295    22732870.2934   22732872.8934  119462028.791 7  93087320.56645
     -3116.014       -2428.066
 08  5  2 13 58  0.0000000  0 12G 2G 6G 7G 8G10G13G16G21G24G25G27G29
  24288721.430    24288720.6124   24288722.8094  127638081.790 7  99458262.80044
     -4607.490       -3590.249
  23428227.793    23428227.4904   23428231.0974  123116175.629 6  95934707.01544
      1768.154        1377.776
  22570952.385    22570952.3814   22570954.5664  118611175.276 7  92424314.89445
      1024.531         798.336
  24844733.646    24844733.3894   24844737.6834  130559967.344 6 101735058.78044
      3024.854        2357.026
  21143671.524    21143670.6724   21143674.2844  111110726.298 8  86579829.42146
      -644.190        -501.964
  22725145.943    22725145.7514   22725148.1504  119421450.599 7  93055693.69845
     -3569.013       -2781.045
  22426583.979    22426583.3134   22426585.7664  117852500.497 7  91833142.18845
     -1315.068       -1024.729
  23869978.647    23869978.1914   23869979.8404  125437576.726 7  97743590.70744
      2500.349        1948.325
  21620616.260    21620616.0734   21620620.0994  113617093.291 7  88532839.77946
       -15.662         -12.202
  22482212.366    22482212.0644   22482214.7954  118144844.762 7  92060933.65145
      -765.648        -596.609
  23106107.975    23106107.5974   23106110.6544  121423435.468 7  94615687.43945
      1088.874         848.471
  22750705.701    22750705.7174   22750708.5664  119555755.210 7  93160354.12445
     -3132.100       -2440.597
 08  5  2 13 58 30.0000000  0 12G 2G 6G 7G 8G10G13G16G21G24G25G27G29
  24315043.020    24315042.7194   24315044.4064  127776403.663 6  99566046.04144
     -4614.044       -3595.358
  23418174.150    23418173.8534   23418177.4094  123063343.228 6  95893538.90944
      1753.915        1366.685
  22565158.207    22565158.2284   22565160.4204  118580726.817 7  92400588.80545
      1005.295         783.346
  24827483.855    24827483.7294   24827487.2624  130469319.932 7 101664424.48544
      3018.248        2351.885
  21147411.980    21147411.0864   21147414.7114  111130382.229 8  86595145.70646
      -666.237        -519.146
  22745564.982    22745565.0484   22745567.4944  119528754.564 7  93139307.16945
     -3584.608       -2793.200
  22434151.829    22434151.4784   22434153.7674  117892270.763 7  91864131.99345
     -1336.322       -1041.294
  23855730.494    23855729.8014   23855732.0294  125362701.714 7  97685246.54144
      2491.240        1941.223
  21620762.312    21620762.0194   21620765.9244  113617859.790 8  88533437.08346
       -35.480         -27.651
  22486640.611    22486640.3894   22486642.8184  118168115.450 8  92079066.67045
      -785.756        -612.277
  23099935.872    23099935.2294   23099938.4684  121391000.544 7  94590413.54845
      1073.415         836.426
  22768631.917    22768631.6534   22768634.4274  119649956.381 7  93233757.58545
     -3148.012       -2452.994
 08  5  2 13 59  0.0000000  0 12G 2G 6G 7G 8G10G13G16G21G24G25G27G29
  24341402.672    24341402.2744   24341404.0174  127914923.592 7  99673983.58444
     -4620.670       -3600.522
  23408201.935    23408201.8404   23408205.5224  123010940.406 6  95852705.54244
      1739.504        1355.444
  22559474.088    22559474.2664   22559476.6334  118550858.159 7  92377314.50645
       985.859         768.202
  24810272.681    24810272.1324   24810276.0664  130378873.510 7 101593946.77044
      3011.412        2346.562
  21151278.291    21151277.4964   21151281.1334  111150700.311 8  86610977.96846
      -688.412        -536.431
  22766073.260    22766073.0984   22766075.6984  119636525.291 7  93223284.34945
     -3600.157       -2805.323
  22441841.216    22441840.7174   22441843.1844  117932679.065 7  91895618.96045
     -1357.620       -1057.890
  23841534.953    23841534.2124   23841536.2154  125288102.760 7  97627117.49044
      2481.893        1933.936
  21621021.695    21621021.1664   21621025.1034  113619221.797 7  88534498.37846
       -55.392         -43.164
  22491183.695    22491183.5164   22491186.1764  118191989.969 8  92097670.20145
      -805.950        -628.017
  23093852.107    23093851.6684   23093855.1024  121359031.174 7  94565502.34245
      1057.785         824.245
  22786648.575    22786648.4594   22786651.1424  119744635.007 7  93307533.12345
     -3164.003       -2465.462
 08  5  2 13 59 30.0000000  0 12G 2G 6G 7G 8G10G13G16G21G24G25G27G29
  24367797.971    24367797.6774   24367799.3254  128053632.758 6  99782068.56144
     -4626.763       -3605.260
  23398311.224    23398310.9274   23398314.7944  122958963.425 7  95812204.01144
      1725.454        1344.509
  22553900.140    22553900.2084   22553902.3804  118521565.086 7  92354488.68845
       966.822         753.372
  24793098.703    24793098.1804   24793102.5364  130288624.799 7 101523623.11244
      3005.028        2341.572
  21155269.685    21155268.7334   21155272.3624  111171674.403 8  86627321.38446
      -710.021        -553.259
  22786668.476    22786668.4744   22786670.8784  119744754.017 7  93307618.39445
     -3615.200       -2817.044
  22449650.948    22449650.4684   22449652.9854  117973719.184 7  91927598.27245
     -1378.468       -1074.129
  23827391.078    23827390.4604   23827392.5904  125213776.648 7  97569201.02344
      2472.985        1926.998
  21621392.937    21621392.6674   21621396.6724  113621173.904 8  88536019.49246
       -74.889         -58.355
  22495840.639    22495840.3934   22495843.2324  118216462.310 7  92116739.56145
      -825.678        -643.386
  23087856.281    23087855.9244   23087859.1494  121327523.142 7  94540950.63045
      1042.565         812.391
  22804754.579    22804754.4534   22804757.1324  119839782.825 7  93381674.27745
     -3179.345       -2477.407
 08  5  2 14  0  0.0000000  0 12G 2G 6G 7G 8G10G13G16G21G24G25G27G29
  24094438.204    24094437.5684   24094439.5944  126617116.832 6  98662705.43044
     -4632.953       -3610.092
  23088709.540    23088709.2974   23088712.7584  121331995.738 6  94544436.96344
      1711.141        1333.353
  22248643.795    22248643.8334   22248645.9684  116917431.880 7  91104514.77645
       947.565         738.360
  24476170.734    24476170.2344   24476174.5214  128623157.073 7 100225856.06144
      2998.268        2336.311
  20859593.914    20859593.1444   20859596.7334  109617888.190 8  85416578.87846
      -731.909        -570.322
  22507558.976    22507559.0654   22507561.6574  118278024.786 7  92164712.49344
     -3630.326       -2828.825
  22157789.084    22157788.6174   22157791.2214  116439974.473 7  90732472.49645
     -1399.494       -1090.519
  23513507.159    23513506.5294   23513508.6894  123564306.170 7  96283899.42444
      2463.788        1919.829
  21322084.989    21322084.7304   21322088.5594  112048299.868 8  87310403.36846
       -94.589         -73.705
  22200819.685    22200819.1634   22200822.0114  116666116.027 7  90908677.52045
      -845.599        -658.912
  22782156.587    22782156.1424   22782159.4454  119721060.301 7  93289161.41445
      1027.105         800.341
  22523158.222    22523158.1144   22523160.8534  118359983.690 7  92228583.98345
     -3194.887       -2489.521
 08  5  2 14  0 30.0000000  0 12G 2G 6G 7G 8G10G13G16G21G24G25G27G29
  24120904.581    24120903.9244   24120905.8564  126756196.874 6  98771079.42044
     -4638.926       -3614.753
  23078981.996    23078981.7764   23078985.2854  121280876.747 7  94504603.99244
      1696.876        1322.240
  22243289.654    22243289.4854   22243291.8464  116889295.477 7  91082590.33645
       928.345         723.383
  24459073.616    24459073.3654   24459077.4524  128533312.490 7 100155847.38644
      2991.501        2331.030
  20863834.855    20863833.8864   20863837.4904  109640173.793 8  85433944.28246
      -753.651        -587.261
  22528327.082    22528327.0444   22528329.4524  118387160.943 7  92249753.61945
     -3645.261       -2840.462
  22165838.754    22165838.2074   22165840.8434  116482275.219 7  90765434.11745
     -1420.389       -1106.798
  23499468.090    23499467.7394   23499469.7654  123490531.482 7  96226412.71144
      2454.635        1912.708
  21322681.364    21322681.0074   21322684.9444  112051433.437 8  87312845.10046
      -114.183         -88.976
  22205703.783    22205703.6054   22205706.4724  116691783.133 7  90928677.86545
      -865.390        -674.335
  22776337.274    22776336.9414   22776340.2324  119690479.929 7  93265332.57745
      1011.691         788.324
  22541441.375    22541441.5084   22541444.2564  118456062.656 7  92303450.66545
     -3210.263       -2501.502
 08  5  2 14  1  0.0000000  0 12G 2G 6G 7G 8G10G13G16G21G24G25G27G29
  24147406.217    24147405.5574   24147407.5444  126895463.259 7  98879598.58844
     -4645.124       -3619.576
  23069337.742    23069337.4414   23069340.9624  121230195.180 7  94465111.85144
      1682.256        1310.847
  22238046.866    22238046.7974   22238049.1274  116861745.153 7  91061122.58145
       908.784         708.143
  24442017.158    24442016.6994   24442020.6564  128443679.068 7 100086003.22844
      2984.441        2325.534
  20868201.307    20868200.3844   20868204.1534  109663120.048 8  85451824.45346
      -775.667        -604.416
  22549181.731    22549181.7414   22549184.0184  118496752.196 7  92335149.37344
     -3660.385       -2852.248
  22174008.917    22174008.6204   22174011.0234  116525210.323 7  90798890.03745
     -1441.488       -1123.232
  23485483.399    23485482.5634   23485484.8244  123417040.747 7  96169147.22844
      2445.135        1905.300
  21323391.230    21323390.9104   21323394.8304  112055164.126 8  87315752.14046
      -134.110        -104.500
  22210702.803    22210702.4964   22210705.1944  116718052.602 7  90949147.60145
      -885.474        -689.982
  22770607.761    22770607.2164   22770610.6074  119660370.755 7  93241870.90545
       995.972         776.076
  22559813.687    22559813.7224   22559816.2904  118552609.116 7  92378681.63245
     -3225.766       -2513.580
 08  5  2 14  1 30.0000000  0 12G 2G 6G 7G 8G10G13G16G21G24G25G27G29
  24173940.463    24173940.1284   24173941.7164  127034902.768 6  98988252.73944
     -4650.792       -3623.987
  23059774.847    23059774.5594   23059778.0684  121179942.057 6  94425953.58044
      1667.946        1299.699
  22232913.750    22232913.7464   22232916.1114  116834771.319 7  91040104.03645
       889.488         693.109
  24424999.083    24424998.6914   24425002.7614  128354248.506 7 100016317.10444
      2977.614        2320.224
  20872691.490    20872690.6654   20872694.3234  109686716.028 8  85470210.90246
      -797.346        -621.306
  22570119.976    22570120.1414   22570122.5064  118606784.272 7  92420888.61744
     -3675.045       -2863.670
  22182297.743    22182297.1314   22182299.7514  116568767.772 7  90832830.91445
     -1462.276       -1139.440
  23471551.149    23471550.3964   23471552.6184  123343825.755 7  96112096.57444
      2435.894        1898.101
  21324212.644    21324212.2804   21324216.4434  112059481.129 7  87319116.02846
      -153.648        -119.728
  22215813.999    22215813.7794   22215816.5424  116744912.767 7  90970077.60545
      -905.181        -705.333
  22764965.995    22764965.4554   22764968.7754  119630723.154 7  93218768.91545
       980.540         764.055
  22578272.252    22578272.2104   22578275.0294  118649609.769 7  92454266.57445
     -3240.897       -2525.374
 08  5  2 14  2  0.0000000  0 12G 2G 6G 7G 8G10G13G16G21G24G25G27G29
  24200508.333    24200507.9664   24200509.8794  127174518.203 6  99097043.96344
     -4656.592       -3628.507
  23050295.048    23050294.6364   23050298.4764  121130125.551 7  94387135.51345
      1653.423        1288.382
  22227891.999    22227892.0714   22227894.2844  116808382.031 7  91019540.99545
       870.033         677.947
  24408020.927    24408020.5374   24408024.7404  128265029.519 7  99946795.84044
      2970.552        2314.721
  20877306.467    20877305.5714   20877309.1954  109710967.579 8  85489108.18946
      -819.134        -638.283
  22591142.999    22591142.9054   22591145.6084  118717260.672 7  92506974.08645
     -3689.778       -2875.146
  22190705.826    22190705.3124   22190707.6504  116612952.658 7  90867260.69245
     -1483.118       -1155.680
  23457672.896    23457672.1324   23457674.1294  123270894.365 7  96055266.88044
      2426.420        1890.716
  21325146.910    21325146.6884   21325150.7684  112064391.195 8  87322942.07346
      -173.400        -135.118
  22221039.038    22221038.6814   22221041.3904  116772369.685 7  90991472.58845
      -925.009        -720.789
  22759413.518    22759412.8804   22759416.2774  119601544.523 7  93196032.36945
       964.946         751.906
  22596817.905    22596817.8684   22596820.6474  118747067.579 7  92530207.68345
     -3256.021       -2537.155
 08  5  2 14  2 30.0000000  0 12G 2G 6G 7G 8G10G13G16G21G24G25G27G29
  24227108.475    24227108.3484   24227110.4934  127314303.339 6  99205967.29744
     -4662.366       -3633.013
  23040898.120    23040897.8804   23040901.4244  121080744.191 7  94348656.55945
      1638.683        1276.892
  22222981.185    22222981.1354   22222983.5264  116782575.202 7  90999431.77445
       850.394         662.645
  24391083.671    24391083.0944   24391087.3724  128176021.346 6  99877438.86744
      2963.298        2309.062
  20882045.127    20882044.3224   20882048.0274  109735870.381 8  85508512.98746
      -841.032        -655.349
  22612249.566    22612249.4134   22612251.9714  118828175.350 7  92593401.09444
     -3704.509       -2886.623
  22199232.295    22199231.9954   22199234.4564  116657760.619 7  90902176.00245
     -1504.096       -1172.025
  23443848.155    23443847.7294   23443849.5534  123198245.804 7  95998657.55344
      2416.783        1883.217
  21326193.558    21326193.1324   21326197.3364  112069890.770 8  87327227.44846
      -193.244        -150.573
  22226376.558    22226376.4314   22226379.1254  116800419.415 8  91013329.50945
      -944.968        -736.341
  22753949.602    22753949.3194   22753952.5074  119572832.849 7  93173659.62545
       949.131         739.587
  22615449.640    22615449.4834   22615452.2084  118844977.197 7  92606500.83245
     -3271.237       -2549.009
 08  5  2 14  3  0.0000000  0 12G 2G 6G 7G 8G10G13G16G21G24G25G27G29
  24253739.463    24253739.0734   24253741.0014  127454249.010 6  99315015.83144
     -4667.636       -3637.099
  23031582.789    23031582.7054   23031586.3024  121031793.201 7  94310512.94344
      1624.370        1265.742
  22218179.957    22218180.0164   22218182.3644  116757345.257 7  90979772.08145
       831.215         647.702
  24374185.148    24374184.5364   24374188.6004  128087219.648 6  99808242.76144
      2956.454        2303.729
  20886906.466    20886905.7584   20886909.4394  109761417.119 8  85528419.52546
      -862.420        -672.019
  22633437.297    22633437.4714   22633439.6774  118939518.053 7  92680161.62444
     -3718.652       -2897.652
  22207876.292    22207875.7374   22207878.0554  116703184.013 7  90937570.87045
     -1524.494       -1187.918
  23430076.321    23430076.1964   23430078.0864  123125875.076 7  95942264.74344
      2407.598        1876.054
  21327351.087    21327350.6974   21327354.9094  112075973.681 8  87331967.37846
      -212.619        -165.679
  22231825.698    22231825.4374   22231828.3454  116829054.772 7  91035642.79345
      -964.420        -751.497
  22748573.800    22748573.3904   22748576.7834  119544582.934 7  93151646.69645
       933.855         727.680
  22634165.190    22634165.3254   22634168.2824  118943329.621 7  92683139.06245
     -3285.888       -2560.431
 08  5  2 14  3 30.0000000  0 12G 2G 6G 7G 8G10G13G16G21G24G25G27G29
  24280401.092    24280400.6304   24280402.4354  127594355.151 6  99424189.30744
     -4672.856       -3641.177
  23022350.677    23022350.5034   23022354.1554  120983277.664 7  94272708.66545
      1609.946        1254.495
  22213489.597    22213489.6234   22213492.1844  116732697.319 7  90960565.90945
       811.943         632.685
  24357327.169    24357326.6124   24357330.5824  127998630.370 7  99739212.21544
      2949.421        2298.250
  20891891.226    20891890.2924   20891894.0134  109787610.992 8  85548830.31246
      -883.859        -688.719
  22654706.806    22654706.5474   22654709.0034  119051289.096 7  92767255.91644
     -3732.738       -2908.623
  22216637.405    22216637.0834   22216639.3404  116749224.549 7  90973446.62745
     -1544.908       -1203.824
  23416358.528    23416358.1394   23416360.2974  123053787.252 7  95886092.42944
      2398.210        1868.740
  21328620.403    21328619.9314   21328624.0964  112082643.346 8  87337164.49946
      -232.051        -180.819
  22237386.962    22237386.4734   22237389.3574  116858278.310 7  91058414.38645
      -983.880        -766.662
  22743286.861    22743286.3204   22743289.7074  119516798.971 7  93129996.85045
       918.388         715.635
  22652965.512    22652965.4474   22652968.2444  119042124.926 7  92760122.35845
     -3300.490       -2571.803
 08  5  2 14  4  0.0000000  0 11G 6G 7G 8G10G13G16G21G24G25G27G29
  23013202.281    23013202.0754   23013205.5484  120935202.403 7  94235247.45445
      1595.081        1242.919
  22208910.654    22208910.6784   22208913.2874  116708635.418 7  90941816.40345
       792.196         617.297
  24340510.513    24340509.9214   24340514.4154  127910259.039 7  99670351.46344
      2942.015        2292.484
  20896999.267    20896998.4294   20897002.2684  109814454.577 8  85569747.35546
      -905.670        -705.711
  22676057.607    22676057.5854   22676059.8074  119163488.512 7  92854684.01944
     -3747.175       -2919.875
  22225516.580    22225516.0644   22225518.2914  116795884.259 7  91009804.85945
     -1565.702       -1220.025
  23402695.584    23402694.9344   23402697.0244  122981987.677 7  95830144.77344
      2388.455        1861.132
  21330001.760    21330001.4304   21330005.5724  112089903.126 8  87342821.43946
      -251.889        -196.276
  22243060.196    22243059.9304   22243062.9274  116888092.525 7  91081646.24045
     -1003.701        -782.104
  22738089.144    22738088.6274   22738092.1654  119489485.400 7  93108713.55845
       902.523         703.266
  22671850.087    22671850.0774   22671852.9354  119141363.698 7  92837451.27745
     -3315.389       -2583.419
 08  5  2 14  4 30.0000000  0 11G 6G 7G 8G10G13G16G21G24G25G27G29
  23004137.918    23004137.7424   23004141.4254  120887569.671 7  94198131.07745
      1580.180        1231.307
  22204443.916    22204443.8254   22204446.3214  116685161.736 7  90923525.23245
       772.516         601.961
  24323735.840    24323735.5734   24323739.6874  127822108.859 7  99601663.00644
      2934.459        2286.588
  20902231.121    20902230.2934   20902233.9384  109841947.681 8  85591170.52046
      -927.415        -722.660
  22697489.517    22697489.3994   22697491.7594  119276113.992 7  92942444.12244
     -3761.420       -2930.984
  22234513.514    22234512.8364   22234515.3564  116843162.456 7  91046645.01045
     -1586.374       -1236.135
  23389087.890    23389087.3284   23389089.5754  122910479.177 7  95774423.95244
      2378.562        1853.426
  21331495.718    21331495.3174   21331499.5154  112097753.352 8  87348938.46846
      -271.665        -211.688
  22248846.127    22248845.8494   22248848.5474  116918497.293 7  91105338.28245
     -1023.479        -797.516
  22732981.353    22732980.9324   22732984.2804  119462643.822 7  93087798.07545
       886.683         690.923
  22690818.431    22690818.4884   22690821.4324  119241044.165 7  92915124.33745
     -3330.186       -2594.952
 08  5  2 14  5  0.0000000  0 11G 6G 7G 8G10G13G16G21G24G25G27G29
  22995159.460    22995159.0344   22995162.7434  120840386.375 7  94161364.86745
      1565.198        1219.632
  22200089.987    22200090.2054   22200092.5254  116662282.360 7  90905697.14545
       752.687         586.511
  24307005.285    24307004.6684   24307008.7694  127734187.303 7  99533152.74944
      2926.831        2280.652
  20907587.187    20907586.5084   20907590.2424  109870094.663 8  85613103.25146
      -949.174        -739.614
  22719002.820    22719002.7204   22719005.1024  119389167.347 7  93030537.62844
     -3775.607       -2942.035
  22243628.313    22243627.7864   22243630.3714  116891062.631 7  91083969.81545
     -1607.059       -1252.253
  23375536.810    23375536.2344   23375538.4114  122839268.413 7  95718935.09944
      2368.691        1845.732
  21333103.256    21333102.6524   21333106.8054  112106199.534 7  87355519.89546
      -291.527        -227.167
  22254745.295    22254744.9934   22254747.7864  116949496.993 7  91129493.90045
     -1043.260        -812.934
  22727964.678    22727964.0664   22727967.4144  119436280.198 7  93067255.02145
       870.754         678.503
  22709871.511    22709871.5964   22709874.4974  119341168.384 7  92993143.21145
     -3344.924       -2606.438
 08  5  2 14  5 30.0000000  0 11G 6G 7G 8G10G13G16G21G24G25G27G29
  22986268.920    22986268.5124   22986272.0654  120793664.982 7  94124958.58445
      1549.361        1207.285
  22195851.583    22195851.6824   22195854.0244  116640009.101 7  90888341.34545
       732.021         570.402
  24290320.041    24290319.5624   24290324.1424  127646507.366 6  99464830.76444
      2918.253        2273.965
  20913069.650    20913068.8504   20913072.6584  109898905.660 8  85635553.40546
      -971.722        -757.184
  22740598.909    22740599.0574   22740601.2924  119502655.947 7  93118970.28644
     -3790.499       -2953.631
  22252863.752    22252863.1054   22252865.5274  116939594.300 7  91121786.72545
     -1628.528       -1268.985
  23362044.727    23362044.1664   23362046.3224  122768366.760 7  95663687.06744
      2357.861        1837.295
  21334825.733    21334825.3834   21334829.5564  112115252.550 7  87362574.17346
      -312.176        -243.254
  22260759.325    22260759.0934   22260761.7434  116981101.327 7  91154120.66646
     -1063.842        -828.972
  22723040.966    22723040.3964   22723043.7584  119410406.376 7  93047093.62545
       853.996         665.453
  22729010.757    22729010.6674   22729013.4244  119441744.415 7  93071514.17445
     -3360.345       -2618.458
 08  5  2 14  6  0.0000000  0 11G 6G 7G 8G10G13G16G21G24G25G27G29
  22977468.291    22977468.1994   22977471.8334  120747419.479 7  94088923.16645
      1533.537        1194.962
  22191731.132    22191731.0054   22191733.5404  116618355.391 7  90871468.32045
       711.430         554.358
  24273683.903    24273683.2594   24273688.0674  127559083.829 6  99396708.58344
      2909.819        2267.391
  20918680.989    20918679.9664   20918683.8994  109928392.161 8  85658529.92546
      -994.143        -774.661
  22762279.649    22762279.6964   22762282.2254  119616588.963 7  93207749.24744
     -3805.133       -2965.041
  22262221.090    22262220.5824   22262222.9354  116988768.146 7  91160104.00445
     -1649.847       -1285.596
  23348614.513    23348613.8784   23348616.0804  122697789.848 7  95608692.06244
      2347.151        1828.942
  21336666.028    21336665.8564   21336670.0474  112124924.363 8  87370110.66946
      -332.667        -259.226
  22266890.797    22266890.4334   22266893.0884  117013321.868 8  91179227.59446
     -1084.275        -844.894
  22718212.841    22718212.4244   22718215.8224  119385035.397 7  93027324.04545
       837.319         652.456
  22748237.308    22748237.2844   22748240.3084  119542781.470 7  93150244.33545
     -3375.597       -2630.344
 08  5  2 14  6 30.0000000  0 11G 6G 7G 8G10G13G16G21G24G25G27G29
  22968756.661    22968756.2854   22968759.8244  120701638.538 7  94053249.71245
      1518.748        1183.440
  22187726.200    22187726.2034   22187728.6914  116597309.779 7  90855069.15345
       691.869         539.114
  24257094.394    24257094.1224   24257098.3614  127471906.313 6  99328778.08944
      2902.268        2261.507
  20924417.711    20924417.0354   20924420.7944  109958540.300 8  85682021.98346
     -1015.486        -791.287
  22784042.052    22784042.0864   22784044.3854  119730950.530 7  93296862.13944
     -3818.687       -2975.599
  22271698.059    22271697.5094   22271699.8314  117038570.185 7  91198910.78345
     -1670.058       -1301.343
  23335243.981    23335243.3604   23335245.4024  122627526.927 7  95553941.71744
      2337.342        1821.304
  21338621.830    21338621.6234   21338625.7184  112135201.929 8  87378119.17846
      -352.222        -274.460
  22273136.739    22273136.3574   22273139.1344  117046145.107 8  91204804.15145
     -1103.646        -859.983
  22713478.345    22713478.0024   22713481.3874  119360155.625 7  93007937.22045
       821.592         640.201
  22767549.052    22767548.8544   22767551.6174  119644264.117 7  93229321.66645
     -3389.665       -2641.293
 08  5  2 14  7  0.0000000  0 11G 6G 7G 8G10G13G16G21G24G25G27G29
  22960127.495    22960127.3044   22960130.6114  120656292.028 7  94017914.78845
      1504.439        1172.295
  22183831.391    22183831.4004   22183833.6054  116576841.586 7  90839119.94945
       672.789         524.252
  24240546.302    24240545.7784   24240550.2784  127384945.043 6  99261016.11444
      2895.280        2256.070
  20930274.282    20930273.5494   20930277.4764  109989317.279 8  85706004.06146
     -1036.212        -807.437
  22805879.306    22805879.2894   22805881.6034  119845705.581 7  93386281.65244
     -3831.537       -2985.608
  22281288.299    22281287.7224   22281290.2744  117088966.795 7  91238180.87345
     -1689.644       -1316.603
  23321927.208    23321926.7364   23321928.6954  122557547.902 7  95499412.59244
      2328.061        1814.076
  21340686.896    21340686.6684   21340690.7254  112146053.572 8  87386575.00746
      -371.134        -289.194
  22279491.016    22279490.8824   22279493.6424  117079538.180 7  91230824.73245
     -1122.440        -874.632
  22708831.589    22708831.1364   22708834.3964  119335736.259 7  92988909.15045
       806.448         628.406
  22786938.686    22786938.6414   22786941.4124  119746157.717 7  93308719.28045
     -3403.110       -2651.769
 08  5  2 14  7 30.0000000  0 11G 6G 7G 8G10G13G16G21G24G25G27G29
  22951579.185    22951578.8364   22951582.4754  120611370.607 7  93982911.09945
      1490.209        1161.199
  22180044.207    22180044.2594   22180046.4044  116556940.383 7  90823612.55845
       653.809         509.461
  24224037.267    24224036.9494   24224041.4354  127298191.452 6  99193415.97244
      2888.228        2250.565
  20936248.768    20936247.9064   20936251.4574  110020711.824 8  85730467.35846
     -1056.857        -823.523
  22827788.646    22827788.6044   22827790.9004  119960839.822 7  93475996.63544
     -3844.176       -2995.458
  22290989.111    22290988.5804   22290990.9944  117139945.510 7  91277904.54245
     -1709.069       -1331.745
  23308662.597    23308662.0824   23308664.2874  122487842.373 7  95445096.62244
      2318.855        1806.903
  21342859.242    21342858.7574   21342862.7994  112157468.041 7  87395469.37046
      -389.942        -303.849
  22285951.951    22285951.5224   22285954.3574  117113489.237 7  91257280.10045
     -1141.057        -889.136
  22704270.529    22704269.8934   22704273.2144  119311767.041 7  92970231.85645
       791.374         616.651
  22806403.888    22806403.9214   22806406.5934  119848448.680 7  93388426.66745
     -3416.388       -2662.123
 08  5  2 14  8  0.0000000  0 11G 6G 7G 8G10G13G16G21G24G25G27G29
  22943113.313    22943112.9974   22943116.4114  120566882.701 7  93948245.20945
      1475.664        1149.877
  22176366.589    22176366.5704   22176368.9334  116537614.333 7  90808553.32145
       634.585         494.480
  24207570.403    24207569.8274   24207573.8494  127211655.193 7  99125985.13544
      2880.865        2244.830
  20942341.431    20942340.6524   20942344.4434  110052729.854 8  85755416.46746
     -1077.658        -839.731
  22849770.585    22849770.7024   22849773.2194  120076356.866 7  93566009.89244
     -3856.913       -3005.387
  22300801.916    22300801.4174   22300803.6704  117191511.955 7  91318086.19345
     -1728.691       -1347.042
  23295452.185    23295451.7004   23295453.7854  122418420.586 7  95391001.73344
      2309.286        1799.446
  21345139.654    21345139.3594   21345143.4334  112169452.267 8  87404807.68946
      -408.979        -318.686
  22292519.769    22292519.4774   22292522.2224  117148004.150 8  91284174.83745
     -1159.882        -903.802
  22699796.526    22699795.9284   22699799.1714  119288255.922 7  92951911.51445
       776.021         604.693
  22825945.446    22825945.4294   22825948.3214  119951140.453 7  93468446.25445
     -3429.730       -2672.513
 08  5  2 14  8 30.0000000  0 11G 6G 7G 8G10G13G16G21G24G25G27G29
  22934729.174    22934728.8174   22934732.3284  120522823.254 7  93913913.18445
      1461.344        1138.718
  22172797.399    22172797.3724   22172799.5784  116518857.737 7  90793937.79945
       615.528         479.637
  24191143.530    24191142.8494   24191147.0874  127125331.469 7  99058719.86044
      2873.725        2239.268
  20948551.438    20948550.5944   20948554.2724  110085362.839 8  85780844.76946
     -1098.181        -855.724
  22871823.746    22871823.6594   22871826.2054  120192246.560 7  93656313.53344
     -3869.358       -3015.075
  22310724.913    22310724.4394   22310726.6764  117243657.395 7  91358719.00145
     -1748.005       -1362.081
  23282294.439    23282293.9524   23282295.9204  122349277.064 7  95337123.71944
      2299.972        1792.182
  21347527.380    21347526.9664   21347531.0364  112181999.502 8  87414584.78046
      -427.767        -333.321
  22299193.569    22299193.2824   22299196.0564  117183075.109 7  91311502.86845
     -1178.446        -918.272
  22695408.324    22695407.9884   22695411.1624  119265196.779 7  92933943.35545
       760.934         592.939
  22845561.490    22845561.4844   22845564.1634  120054223.592 7  93548770.81245
     -3442.777       -2682.680
 08  5  2 14  9  0.0000000  0 11G 6G 7G 8G10G13G16G21G24G25G27G29
  22926429.329    22926428.9944   22926432.5154  120479207.622 7  93879926.99245
      1446.627        1127.238
  22169339.342    22169339.2774   22169341.4454  116500685.574 7  90779777.65345
       596.169         464.549
  24174760.107    24174759.5194   24174764.1204  127039236.885 7  98991633.17244
      2866.135        2233.346
  20954881.097    20954880.1264   20954883.6694  110118624.382 8  85806762.85646
     -1119.013        -871.957
  22893949.829    22893949.8854   22893952.1554  120308519.980 7  93746916.18344
     -3881.957       -3024.903
  22320760.476    22320759.9844   22320762.2024  117296394.625 7  91399812.93545
     -1767.577       -1377.336
  23269192.740    23269192.3984   23269194.5894  122280427.414 7  95283474.65845
      2290.251        1784.608
  21350024.621    21350024.2454   21350028.4894  112195123.524 8  87424811.36646
      -446.902        -348.241
  22305975.637    22305975.3684   22305978.2174  117218715.365 7  91339274.50945
     -1197.307        -932.962
  22691109.071    22691108.7864   22691112.0494  119242604.962 7  92916339.36645
       745.447         580.869
  22865254.231    22865254.2154   22865256.8424  120157709.467 7  93629409.15145
     -3456.015       -2693.000
 08  5  2 14  9 30.0000000  0 11G 6G 7G 8G10G13G16G21G24G25G27G29
  22918214.043    22918213.6994   22918217.4504  120436036.737 7  93846287.36145
      1431.645        1115.570
  22165992.348    22165992.6344   22165994.6554  116483097.960 7  90766073.02146
       576.503         449.221
  24158420.389    24158419.9994   24158424.3514  126953372.740 6  98924726.06444
      2858.293        2227.236
  20961329.605    20961328.7814   20961332.3734  110152512.621 8  85833169.29246
     -1140.034        -888.341
  22916148.407    22916148.3334   22916150.6174  120425173.121 7  93837814.71744
     -3894.718       -3034.844
  22330908.106    22330907.4594   22330909.9614  117349720.648 7  91441365.67945
     -1787.309       -1392.703
  23256147.323    23256146.8254   23256148.8444  122211872.337 7  95230055.11045
      2280.220        1776.803
  21352631.471    21352631.0454   21352635.2294  112208822.797 8  87435486.12646
      -466.184        -363.246
  22312865.658    22312865.2774   22312868.3084  117254922.919 7  91367488.19146
     -1216.349        -947.806
  22686898.915    22686898.6254   22686901.9634  119220480.424 7  92899099.48745
       729.687         568.590
  22885022.784    22885022.8354   22885025.3874  120261593.888 7  93710357.95945
     -3469.409       -2703.432
 08  5  2 14 10  0.0000000  0 11G 6G 7G 8G10G13G16G21G24G25G27G29
  22910085.356    22910084.8384   22910088.5134  120393318.966 7  93813000.80145
      1416.348        1103.652
  22162758.547    22162758.6014   22162760.7254  116466102.914 7  90752830.15446
       556.637         433.737
  24142126.784    24142126.6034   24142130.5604  126867748.428 7  98858005.83244
      2850.136        2220.885
  20967898.874    20967897.8414   20967901.4634  110187033.431 8  85860068.64246
     -1161.207        -904.841
  22938419.338    22938419.3334   22938421.7844  120542209.058 7  93929011.53544
     -3907.536       -3044.833
  22341168.708    22341168.1624   22341170.7164  117403641.053 7  91483381.58545
     -1807.220       -1408.221
  23243159.754    23243159.1214   23243161.2614  122143621.433 7  95176872.60845
      2269.937        1768.785
  21355349.117    21355348.7924   21355352.9864  112223104.547 8  87446614.81246
      -485.728        -378.498
  22319864.857    22319864.4744   22319867.3534  117291703.854 7  91396148.66645
     -1235.543        -962.765
  22682779.350    22682778.7494   22682782.1334  119198830.842 7  92882229.69745
       713.749         556.161
  22904867.946    22904867.9574   22904870.8274  120365881.481 7  93791620.98045
     -3482.897       -2713.948
 08  5  2 14 10 30.0000000  0 11G 6G 7G 8G10G13G16G21G24G25G27G29
  22902043.601    22902043.4894   22902047.2594  120351061.982 7  93780073.29745
      1400.703        1091.461
  22159638.647    22159638.5624   22159640.7154  116449707.539 7  90740054.55546
       536.333         417.922
  24125880.457    24125880.1254   24125884.2804  126782372.963 6  98791479.49944
      2841.457        2214.125
  20974589.100    20974588.2884   20974592.0204  110222192.210 8  85887465.09246
     -1182.783        -921.648
  22960764.186    22960763.8874   22960766.5204  120659630.858 7  94020509.02244
     -3920.644       -3055.042
  22351543.398    22351542.8834   22351545.2724  117458160.520 7  91525864.28945
     -1827.471       -1424.004
  23230231.588    23230230.7604   23230232.8004  122075682.534 7  95123933.23445
      2259.196        1760.416
  21358178.799    21358178.3574   21358182.3964  112237974.257 8  87458201.61746
      -505.625        -393.991
  22326974.109    22326973.8774   22326976.6154  117329063.081 7  91425259.74045
     -1255.131        -978.026
  22678751.260    22678750.7244   22678754.1184  119177663.166 7  92865735.40445
       697.366         543.400
  22924790.761    22924790.6764   22924793.4054  120470575.368 7  93873200.66345
     -3496.762       -2724.755
